GFSCGP_sfc_thetae_000.txt.gz
Theta_e
318 314 310 312 315 314 313 312 313 317 323 323 322 326 326 330 332 330 332 337 339 340 345 349 353 355 356 357 360 361 362 364 363 361 360 359 357 360 361 360 362 363 363 363
312 310 314 315 314 313 312 311 311 318 322 323 325 325 329 330 328 331 332 335 337 341 343 348 351 353 354 356 359 361 363 365 365 362 366 362 360 356 357 362 361 359 358 358
309 311 316 314 313 312 312 311 311 313 322 325 325 323 328 331 333 334 336 337 340 341 342 345 348 351 353 355 358 360 363 364 366 364 360 355 351 352 346 349 347 353 354 354
313 315 313 312 312 314 310 315 314 314 319 311 324 308 325 329 331 333 334 338 339 342 344 345 346 349 351 354 359 365 367 365 360 355 351 349 340 339 343 344 345 349 350 351
311 311 312 311 312 315 312 319 317 317 318 317 320 313 316 328 327 329 333 335 337 341 343 344 344 347 350 357 359 360 359 355 353 351 348 340 342 340 342 341 344 347 348 349
314 317 316 315 315 315 321 320 319 319 314 307 311 312 310 316 324 328 333 336 338 340 343 345 346 349 353 354 352 349 351 351 350 345 344 344 342 341 338 340 339 338 340 343
312 313 316 317 313 317 317 313 305 303 303 302 312 310 311 317 326 328 330 336 339 340 341 343 347 349 349 350 346 345 348 349 349 341 340 340 340 341 342 341 336 339 336 337
307 305 313 317 315 312 313 311 305 298 299 303 312 304 311 323 326 328 332 336 339 339 340 343 348 348 349 347 345 344 347 347 344 341 343 345 344 337 338 340 339 336 335 336
308 308 315 316 317 317 312 308 313 306 307 303 306 312 318 324 324 326 331 335 338 337 339 342 346 347 347 343 344 345 347 346 343 341 345 345 345 344 341 343 343 338 341 337
312 307 313 314 316 315 315 317 307 308 300 299 304 305 309 315 318 325 327 332 338 336 338 341 343 345 343 342 344 345 346 345 343 342 343 339 340 342 341 341 341 341 342 341
314 311 311 314 312 311 311 311 312 312 308 302 301 306 317 316 318 320 328 333 338 335 336 340 343 345 341 342 342 343 343 343 342 342 341 341 340 339 339 338 340 341 342 342
314 312 308 309 315 317 316 313 313 307 307 308 306 305 319 319 320 322 325 333 337 339 334 335 342 344 339 340 338 339 340 339 339 340 339 339 340 340 339 338 339 340 340 341
315 309 305 307 312 314 312 315 315 314 313 308 304 307 322 321 323 326 326 332 337 340 337 334 338 339 338 339 339 338 338 335 335 337 337 338 338 339 338 338 338 339 340 340
318 312 309 304 308 312 310 312 314 313 308 309 309 311 315 319 321 323 327 332 335 338 338 336 336 337 339 339 341 340 338 335 335 335 335 337 339 338 337 338 339 339 340 340
317 311 313 312 312 312 311 312 312 312 312 309 310 311 316 319 320 324 325 327 333 334 336 337 336 336 339 340 341 340 338 338 338 336 336 337 339 340 338 339 340 340 339 338
320 313 315 310 312 311 309 312 313 313 313 313 312 311 317 319 321 319 321 325 328 332 334 336 337 337 338 339 339 337 338 336 339 338 336 338 339 340 341 339 339 339 337 337
318 315 314 307 312 311 307 312 313 314 315 314 309 314 318 316 318 320 324 326 327 330 334 335 336 338 339 338 336 335 336 337 338 339 338 338 340 340 340 337 338 337 337 337
319 318 315 308 312 301 312 318 317 314 315 316 315 316 317 318 322 327 328 327 327 329 333 335 336 338 338 335 332 336 334 337 339 339 338 338 339 339 339 337 336 336 337 335
320 318 311 307 307 310 311 313 313 312 313 318 316 316 317 320 325 324 327 328 329 332 336 337 338 337 336 334 334 335 336 336 336 336 337 337 338 338 338 337 336 337 335 333
317 320 312 309 303 301 312 317 320 319 308 317 317 316 317 321 314 321 331 329 332 334 337 337 337 335 334 336 334 335 335 336 334 335 336 336 338 338 337 337 336 336 335 332
311 313 308 307 306 308 317 317 319 306 310 319 318 318 319 320 322 329 332 332 333 335 336 337 336 333 335 338 338 336 335 334 336 336 334 335 339 341 340 338 337 335 335 333
311 309 307 309 306 303 319 316 311 321 323 321 322 322 323 327 329 330 332 333 333 333 333 335 334 334 337 340 341 339 338 343 340 338 337 339 341 339 333 340 336 334 334 333
308 313 311 312 312 321 320 320 322 323 323 325 326 327 328 328 328 329 331 332 332 333 333 334 334 337 339 341 341 339 343 343 341 341 339 337 334 336 339 338 336 330 330 326
312 315 311 312 317 316 317 320 322 324 324 326 326 326 328 329 328 328 331 331 332 333 333 334 334 333 335 338 339 341 342 342 339 336 335 336 336 336 337 334 330 328 324 325
313 314 311 313 316 316 318 320 320 321 323 323 325 326 328 329 327 327 327 328 329 331 331 332 333 333 334 337 337 337 337 336 334 333 333 334 332 333 332 336 327 327 318 318
315 312 310 308 313 314 315 316 319 319 321 322 324 325 327 326 324 324 325 328 329 331 331 332 333 333 331 332 333 335 337 336 336 332 330 329 328 327 326 328 323 302 302 299

GFSCGP_sfc_thetae_003.txt.gz
Theta_e
320 314 312 314 317 317 317 314 315 317 322 321 320 322 327 331 330 330 333 336 337 338 343 346 349 352 354 357 360 361 362 367 366 366 363 367 357 363 360 369 363 363 363 363
316 312 316 317 316 316 313 313 314 318 321 320 319 322 326 329 330 330 331 333 334 336 340 345 349 351 352 355 358 361 363 367 366 363 367 365 360 354 353 356 360 361 357 361
312 315 318 316 314 312 313 311 312 313 318 320 319 318 324 327 329 331 331 333 335 336 336 341 345 348 349 354 358 361 365 366 368 367 366 360 357 355 347 347 348 351 352 351
313 316 314 313 312 313 310 315 314 313 314 310 318 308 321 327 324 326 330 331 333 335 336 337 340 343 346 351 357 362 365 367 363 359 354 354 343 338 343 342 343 347 348 349
311 313 313 312 313 315 313 317 314 314 313 313 313 311 318 319 325 326 327 331 334 336 337 337 336 342 345 351 354 360 364 359 356 352 350 341 344 337 337 339 344 350 352 348
315 320 317 316 317 317 319 317 316 316 313 306 313 311 312 320 326 329 331 329 332 336 337 340 340 343 346 351 355 357 355 356 354 349 347 344 342 341 337 339 338 338 338 340
314 314 317 318 314 317 317 313 306 304 304 305 313 310 313 318 323 323 328 332 333 335 337 339 341 343 348 350 352 350 352 352 351 345 341 339 341 343 343 343 337 340 336 336
308 306 314 318 315 312 313 313 306 300 302 305 312 306 310 318 323 327 329 332 335 337 338 339 342 345 349 349 350 346 350 351 349 344 346 346 345 338 338 340 340 337 337 337
309 309 316 317 318 317 313 309 315 308 309 306 309 312 317 322 321 324 326 329 335 337 339 339 342 348 347 349 347 346 350 352 347 343 349 347 346 345 343 345 344 339 343 339
315 309 315 316 318 318 316 317 308 309 301 301 306 307 309 317 318 321 323 326 332 338 340 340 341 347 347 348 345 344 347 348 346 345 346 341 340 343 344 343 343 343 343 343
316 313 312 315 313 312 312 312 313 313 311 304 302 307 318 317 319 319 322 325 331 337 340 339 342 346 347 346 343 340 344 345 345 344 344 342 341 341 342 340 340 342 344 344
316 313 309 311 316 317 316 313 313 307 308 309 308 307 319 319 320 321 322 325 331 339 342 340 342 344 345 342 341 339 339 340 342 342 342 341 341 341 340 340 340 342 341 343
316 310 306 308 313 315 312 314 315 314 313 310 306 308 322 321 321 323 324 325 331 338 342 341 342 343 345 341 344 338 337 337 338 340 340 340 341 341 341 341 340 340 340 340
319 312 309 304 309 314 310 311 314 313 309 310 310 312 318 320 321 323 325 328 330 336 341 341 340 343 347 344 346 340 337 337 336 337 336 339 340 342 341 342 341 341 342 341
316 311 312 312 312 313 312 311 312 312 313 309 312 311 317 319 320 323 323 325 328 333 338 342 338 342 349 345 347 342 338 339 338 337 337 338 341 343 343 342 342 341 340 339
319 311 314 310 313 312 310 312 313 313 313 313 313 313 321 321 322 321 322 322 324 328 335 340 341 340 344 343 341 340 338 338 340 339 338 340 340 341 341 341 341 340 340 340
318 314 312 308 312 312 307 311 312 314 316 315 311 316 321 319 320 321 323 324 325 326 332 337 341 344 346 342 345 339 338 340 339 340 340 340 340 341 341 340 339 339 340 343
319 319 315 309 311 302 312 317 317 314 316 318 318 319 319 320 321 324 327 327 328 329 329 336 339 342 343 343 341 340 338 342 341 340 340 340 340 340 341 340 339 341 341 342
319 319 312 307 306 311 313 316 315 314 314 319 318 320 320 320 322 322 327 329 331 333 335 337 340 342 345 342 341 340 337 338 338 339 340 340 340 340 340 339 340 341 341 338
318 320 313 311 304 301 312 317 320 320 310 320 321 320 318 320 314 323 330 331 333 335 338 339 341 342 342 341 334 338 337 338 338 340 339 340 340 339 339 341 342 341 341 335
312 312 308 307 306 309 317 320 322 309 313 322 321 320 319 319 322 329 331 333 336 338 340 342 342 340 346 342 341 342 340 339 341 339 339 342 341 344 343 343 334 339 338 337
311 309 307 308 306 303 320 319 313 323 324 324 323 323 322 324 325 327 331 333 335 337 339 340 339 339 340 344 346 344 347 349 346 345 341 343 346 338 333 343 341 340 338 336
310 316 313 314 310 325 324 323 325 325 324 323 324 324 325 324 323 326 329 334 335 337 338 339 338 340 342 343 344 343 349 348 345 346 346 344 343 337 337 340 342 333 337 335
316 318 314 316 319 320 319 323 324 325 324 325 326 326 327 325 327 329 332 335 335 337 336 337 337 337 339 343 344 346 346 347 345 345 342 342 343 340 340 339 333 330 328 325
315 317 314 315 319 319 321 321 321 323 325 325 327 328 328 328 328 331 333 336 336 337 337 338 336 336 337 340 341 342 344 345 342 339 337 336 333 335 334 337 327 327 320 316
316 314 311 312 317 317 319 319 321 321 323 325 326 328 330 332 332 333 333 334 334 335 334 337 336 333 337 338 339 339 341 340 338 335 333 330 329 328 326 327 323 301 302 298

GFSCGP_sfc_thetae_006.txt.gz
Theta_e
321 314 310 313 317 318 318 315 315 318 324 322 320 321 325 327 329 331 332 333 334 335 343 346 350 353 353 355 362 359 360 373 371 365 361 363 359 365 363 366 366 366 367 364
315 310 315 317 318 316 315 313 313 318 321 321 321 320 325 326 327 330 332 333 334 336 338 342 345 346 348 356 361 365 367 369 370 371 369 366 366 364 363 361 365 364 360 359
311 313 317 316 314 313 314 311 312 314 318 319 317 318 318 325 328 329 331 334 335 335 336 341 344 346 349 353 358 363 367 367 370 371 371 367 365 365 358 360 351 354 353 355
313 317 315 314 312 313 309 314 314 313 313 308 317 306 318 322 323 326 328 330 332 334 337 339 342 346 348 353 359 364 368 370 370 370 366 362 354 345 355 355 353 351 354 354
310 313 313 312 313 315 311 316 313 313 311 310 311 308 315 323 320 322 326 329 331 333 335 336 339 343 346 353 354 362 368 368 365 363 360 355 353 346 348 348 351 354 352 354
313 317 315 314 315 316 316 316 314 313 310 304 309 310 311 317 324 323 325 328 331 332 335 337 340 343 344 350 354 360 363 362 362 358 356 353 351 350 346 348 346 345 347 348
311 312 316 317 313 316 315 312 305 303 303 302 312 309 315 322 324 327 328 329 331 334 336 338 338 340 344 348 353 358 358 357 357 355 353 349 349 352 351 349 347 349 343 346
305 304 313 316 314 312 312 312 305 301 301 304 313 307 314 322 327 331 333 333 332 332 337 339 342 342 346 350 355 354 355 354 354 353 354 352 354 350 349 353 347 345 344 346
306 307 316 316 317 316 312 309 314 308 309 305 308 313 317 320 319 320 323 324 330 331 334 338 342 343 348 350 353 354 354 355 353 351 356 354 354 353 351 353 353 346 352 343
313 308 314 315 317 317 314 316 307 308 302 301 305 307 308 318 318 320 320 321 327 334 335 337 339 344 350 351 353 352 354 355 351 351 351 350 352 351 352 352 350 350 350 350
315 313 311 314 312 310 312 311 312 311 309 303 301 305 319 322 321 319 321 323 325 327 334 340 341 346 351 349 350 348 350 352 349 349 351 352 347 347 350 348 347 349 351 351
316 313 308 310 316 317 315 313 313 307 308 310 309 306 320 320 320 320 322 323 327 331 335 342 342 347 349 348 347 345 344 346 347 348 351 350 349 349 349 348 347 350 349 350
316 311 306 308 312 315 311 313 313 313 312 311 305 308 324 321 321 323 322 325 334 336 342 345 343 343 347 348 347 343 341 341 343 346 343 347 348 347 348 348 349 348 348 346
319 312 311 303 309 313 310 311 312 311 308 308 309 313 317 319 322 327 326 329 330 338 338 344 345 345 347 348 346 344 340 339 340 340 342 346 346 347 347 349 350 348 347 346
316 314 311 311 311 311 311 311 311 310 312 308 311 313 319 319 322 323 325 326 328 334 337 344 343 345 348 348 346 346 341 344 343 343 344 346 349 348 349 348 348 347 347 346
316 312 312 308 311 311 309 311 312 312 311 311 312 314 320 324 326 323 322 323 327 330 331 338 345 344 349 348 346 343 342 344 348 337 342 347 347 346 346 347 348 347 347 346
317 312 312 306 310 310 306 310 311 312 314 313 311 318 323 321 321 321 324 324 327 330 332 335 343 343 351 347 346 342 344 345 345 344 344 345 346 345 346 346 346 346 347 346
319 319 314 307 312 301 311 317 315 313 315 316 317 319 322 321 322 324 327 328 326 331 332 335 339 345 350 347 345 346 343 343 345 344 344 344 345 344 346 345 345 347 346 345
313 318 311 308 305 309 312 315 315 313 315 320 318 320 323 322 321 326 329 328 329 334 340 341 337 342 349 346 346 346 340 341 342 342 343 344 344 344 344 344 344 346 343 342
317 319 314 311 304 301 314 318 321 319 309 320 320 320 320 321 313 323 333 330 331 333 339 342 344 346 348 347 346 343 339 341 339 341 343 345 346 345 344 344 344 342 346 341
311 313 308 307 305 308 317 319 320 306 307 319 323 322 322 322 325 334 334 332 334 336 339 343 347 347 349 348 344 339 339 340 343 344 345 346 347 347 347 348 346 343 338 336
312 309 307 310 306 304 321 318 313 326 327 324 323 326 326 325 326 327 329 336 335 338 340 343 347 347 349 350 348 340 341 348 353 349 347 348 349 342 337 346 344 338 341 336
309 312 312 313 311 319 324 324 327 326 328 324 326 324 325 323 323 325 328 332 336 338 340 343 345 349 349 348 353 350 353 356 354 354 352 351 352 347 348 343 339 339 335 334
317 320 315 313 315 315 322 322 323 324 323 322 323 323 324 323 324 328 330 334 338 332 340 342 345 345 346 353 352 352 351 353 350 351 351 351 348 348 345 340 341 330 335 331
315 314 311 316 314 321 320 320 322 322 324 323 324 323 323 325 327 331 332 341 332 342 335 336 335 333 331 332 333 336 340 342 345 347 348 347 341 340 337 320 317 328 312 312
315 314 312 309 316 318 316 319 320 319 320 323 323 322 324 327 331 335 340 336 338 338 338 334 337 335 328 331 335 339 337 343 343 341 338 336 335 326 334 324 317 301 300 297

GFSCGP_sfc_thetae_009.txt.gz
Theta_e
308 306 304 307 308 309 313 311 312 317 319 317 315 320 324 327 327 326 327 330 332 335 341 344 345 347 350 349 350 351 352 356 353 351 349 350 345 350 351 352 354 353 353 353
305 305 312 315 313 311 310 313 311 316 320 317 315 317 322 324 324 327 328 328 330 331 340 343 344 344 347 348 351 351 353 355 353 354 354 353 352 352 352 353 354 352 352 353
303 310 316 313 310 309 308 305 309 312 319 320 317 313 317 324 325 328 330 330 331 333 336 341 343 344 347 350 352 353 355 354 355 353 356 353 352 349 344 343 344 342 341 344
307 313 313 310 309 309 300 311 310 310 313 305 316 303 312 317 317 324 328 329 329 332 333 335 336 337 348 351 354 357 355 354 356 356 351 347 342 327 337 338 338 337 342 339
306 309 309 308 309 311 306 311 308 308 303 302 307 300 309 315 313 319 323 328 330 332 333 335 337 339 345 351 352 356 355 357 354 341 341 335 327 329 333 334 332 329 333 338
309 314 311 311 314 313 313 307 307 304 299 293 300 301 305 311 315 319 323 327 329 331 334 336 339 341 345 349 354 356 355 347 346 337 334 330 327 328 329 330 329 331 331 333
307 308 311 312 306 309 307 302 295 293 293 293 300 300 305 317 321 320 321 324 324 331 333 334 336 338 343 347 351 356 348 343 341 337 337 332 330 330 328 329 331 330 329 333
299 298 307 311 305 303 303 302 297 292 293 298 306 300 306 322 324 325 325 324 325 324 331 333 334 336 342 346 352 351 345 343 340 339 334 331 332 330 332 337 333 329 328 331
299 300 310 312 312 309 304 300 305 298 301 296 301 306 314 319 319 323 324 323 323 324 329 332 334 335 341 345 350 348 345 344 341 339 336 334 334 334 335 334 333 331 335 333
303 298 307 311 311 311 307 309 299 297 292 291 298 304 303 308 311 314 322 321 323 324 330 332 334 337 341 347 348 347 346 343 343 340 339 339 338 336 335 334 332 332 331 334
307 301 304 309 304 303 304 302 303 301 299 293 294 299 311 313 313 312 313 319 322 325 327 332 337 338 342 347 347 345 345 344 341 341 339 339 339 337 336 334 332 333 334 335
308 302 301 304 309 312 307 304 304 298 296 299 299 302 316 316 315 315 317 319 319 323 327 332 334 336 342 344 344 344 345 343 340 340 340 336 331 332 334 333 332 333 333 334
308 304 298 302 306 309 306 306 304 305 300 296 298 301 316 315 313 316 316 319 321 321 330 331 328 333 342 342 341 342 343 342 339 338 339 335 333 331 331 333 333 333 332 332
315 303 301 297 303 306 303 307 306 301 296 297 300 306 310 313 317 318 318 317 323 324 334 333 338 340 341 342 339 338 339 340 338 339 338 335 334 333 333 334 334 334 333 332
310 301 303 304 307 307 308 308 306 302 301 300 302 308 309 312 315 316 317 317 317 321 327 334 335 341 340 340 338 338 336 337 338 336 335 334 335 334 335 334 335 334 333 334
310 303 305 301 308 307 305 308 309 309 307 304 305 307 315 317 317 317 317 317 317 318 319 328 337 338 340 340 338 337 334 334 335 334 334 337 336 335 335 334 335 333 332 333
307 306 301 296 303 304 300 305 306 308 310 308 302 309 316 315 316 316 316 317 317 319 320 319 323 337 340 342 340 336 334 335 334 333 334 335 336 334 334 335 335 335 333 331
310 309 303 297 301 293 303 311 312 311 313 313 312 315 316 316 316 316 317 316 318 319 321 321 325 339 342 341 338 337 337 333 332 332 333 334 334 334 334 333 333 333 331 329
313 308 303 298 296 300 307 310 311 309 308 315 313 316 317 317 320 319 323 321 320 324 325 326 327 340 342 339 338 336 334 332 333 332 333 335 334 333 333 334 333 332 331 330
314 312 305 301 296 296 304 314 318 316 304 316 316 316 318 314 312 315 322 325 325 326 327 327 329 339 340 339 337 334 332 332 332 333 334 336 335 334 334 334 334 332 331 329
306 305 301 300 300 303 313 318 318 302 304 317 316 315 316 314 318 323 325 324 326 325 328 332 333 338 338 339 337 332 331 330 333 333 335 336 336 335 335 335 333 332 330 322
306 303 299 302 299 297 318 318 310 313 317 320 321 319 318 317 318 319 320 325 326 325 330 332 337 338 339 338 335 330 329 333 335 335 335 337 337 338 338 335 334 331 328 325
305 309 309 310 309 316 318 314 318 318 316 317 317 318 319 318 319 319 318 316 323 328 331 335 338 336 334 335 334 326 320 319 330 337 336 337 338 338 331 332 331 327 326 326
312 314 309 310 312 314 318 317 318 319 320 320 320 318 318 316 319 318 321 321 327 331 330 329 327 323 322 324 324 324 324 324 322 326 336 335 336 333 332 329 326 324 323 320
310 312 309 309 313 316 315 317 318 320 320 320 322 320 320 320 322 323 321 328 329 329 329 330 326 326 324 324 324 324 325 325 322 321 324 333 333 329 318 313 313 319 305 307
313 310 308 303 314 313 313 316 316 315 315 316 315 318 321 321 323 329 331 329 326 326 329 327 323 323 323 325 325 325 322 323 321 321 328 328 326 323 319 312 305 300 300 297

GFSCGP_sfc_thetae_012.txt.gz
Theta_e
303 299 298 302 306 306 307 310 309 314 317 319 319 320 324 327 327 327 328 329 331 332 335 338 340 341 343 345 343 346 347 351 351 349 346 345 344 345 348 349 351 350 350 351
300 298 305 311 311 308 305 308 310 313 317 314 318 319 324 327 327 329 329 331 332 334 335 338 340 343 344 344 343 346 348 351 350 349 347 348 347 346 348 349 351 351 350 350
297 302 311 311 309 307 304 309 311 309 315 315 318 313 316 324 327 326 331 333 334 335 335 337 339 341 344 343 346 346 350 349 349 350 350 349 348 346 340 339 341 342 344 345
300 307 308 309 308 308 298 309 314 314 311 304 314 303 311 318 319 320 325 329 331 335 337 339 339 339 343 346 349 349 350 350 351 349 349 345 339 335 333 334 332 334 338 337
300 304 304 305 309 309 304 309 307 314 310 305 309 303 312 313 313 316 320 326 328 336 338 339 340 340 345 348 350 351 349 349 351 349 346 341 329 328 331 332 329 326 329 335
302 310 308 308 311 310 311 305 302 300 297 294 305 305 299 310 314 316 319 327 328 334 338 340 342 341 345 348 351 352 348 348 348 338 335 327 326 326 327 326 323 328 325 335
301 304 308 311 303 307 304 296 291 291 290 290 295 305 308 315 319 319 318 326 328 332 334 337 337 339 345 346 349 352 348 345 341 333 330 326 326 325 325 324 327 326 330 330
294 295 304 308 305 302 300 298 292 288 290 293 299 295 302 316 322 321 323 328 329 330 332 333 334 337 344 345 347 351 348 345 339 333 331 328 328 326 326 328 330 324 325 330
293 296 306 308 309 305 300 297 301 295 296 293 296 302 310 315 318 320 320 326 326 329 331 332 335 336 341 345 346 349 346 342 338 334 330 328 328 330 332 332 329 327 330 331
297 293 302 307 306 306 304 304 296 293 289 288 294 298 300 310 314 317 318 320 321 328 331 332 334 336 341 345 348 350 346 342 337 334 331 330 330 330 332 330 329 330 328 330
300 296 299 302 300 301 301 298 297 297 294 291 289 296 307 309 316 317 320 322 320 322 329 332 334 336 341 344 348 348 345 341 336 336 333 332 333 333 331 330 330 330 329 331
300 295 295 299 305 307 303 301 299 294 292 294 295 297 310 312 315 319 320 322 321 322 326 330 332 334 339 342 347 346 344 340 338 337 335 334 335 334 331 330 330 330 330 331
303 294 293 295 298 301 302 302 300 297 295 294 293 296 311 310 311 313 314 315 319 322 328 330 331 332 337 341 345 344 343 340 339 337 335 333 332 330 330 330 330 329 329 329
310 294 295 294 295 300 298 302 302 300 294 294 296 301 307 309 311 312 314 316 318 322 326 329 329 332 337 341 343 343 342 341 338 338 335 334 329 328 329 331 330 329 329 328
303 295 298 299 304 305 304 305 302 298 298 298 298 304 307 311 313 314 314 316 319 319 325 325 328 327 335 340 341 342 342 340 338 336 336 334 332 331 329 330 332 330 330 329
300 296 299 300 304 305 303 305 306 305 304 304 304 304 310 314 313 312 315 315 314 316 324 328 330 329 328 339 339 340 340 339 337 334 335 335 332 332 331 332 332 330 330 329
299 299 296 295 301 302 299 302 303 306 309 307 302 306 312 311 312 312 312 313 314 316 317 318 331 335 336 339 340 337 337 337 336 335 335 333 333 332 332 332 331 330 328 328
300 298 296 296 295 292 300 309 312 310 310 310 309 311 314 314 314 315 313 313 314 315 317 316 318 327 339 341 339 338 333 336 335 332 332 334 334 332 332 332 331 331 330 330
308 304 298 293 293 296 303 308 310 306 306 313 310 314 314 315 315 314 316 315 315 316 317 319 321 324 336 340 339 335 333 334 333 331 331 333 333 332 331 330 330 330 329 327
307 306 303 300 295 291 301 313 317 313 302 313 314 313 313 313 306 310 317 320 321 322 322 324 323 331 336 335 336 333 331 330 329 331 332 333 333 332 331 331 331 330 329 329
301 300 297 297 295 298 310 314 315 299 301 313 313 314 314 313 313 317 320 319 321 322 324 325 330 334 333 335 335 331 330 329 330 331 332 331 333 332 332 332 331 331 327 323
302 302 299 298 296 295 313 312 307 310 311 315 316 316 317 316 319 318 318 320 321 323 324 330 332 331 332 332 331 327 324 329 330 331 333 334 334 335 334 331 330 327 324 324
303 307 305 304 302 311 315 311 313 314 311 314 314 315 316 316 316 318 318 319 318 322 332 330 325 326 330 328 326 322 320 325 325 323 321 322 325 326 331 331 328 325 323 321
310 313 308 308 311 314 316 319 319 318 316 317 318 318 318 316 319 320 319 320 328 326 324 324 324 324 323 324 324 321 323 325 324 324 324 322 324 321 323 328 326 324 322 320
309 311 307 308 313 313 314 314 315 317 316 317 318 317 318 318 322 328 326 326 326 327 326 325 324 323 321 323 323 323 323 323 322 322 321 321 322 326 321 316 314 315 306 309
310 307 305 303 312 311 311 314 315 312 312 312 311 311 313 316 317 329 328 326 325 326 323 321 321 322 321 323 321 322 323 322 322 321 320 320 324 321 315 308 304 299 299 297

GFSCGP_sfc_thetae_015.txt.gz
Theta_e
301 298 296 299 303 304 306 308 311 316 318 318 317 317 321 325 325 325 326 327 329 330 333 336 339 340 340 345 345 347 346 347 349 347 345 344 345 346 345 346 349 349 349 349
297 295 302 304 307 305 304 307 309 313 318 318 316 317 321 323 324 325 326 327 328 330 330 333 337 338 338 340 343 344 347 348 349 346 345 344 343 343 345 346 348 350 348 348
294 298 306 307 306 306 301 302 307 308 315 317 317 312 317 323 325 326 327 329 330 330 330 332 335 336 339 339 340 343 345 348 349 347 346 346 346 344 340 338 342 345 349 350
297 303 305 305 305 306 297 306 310 311 310 304 316 303 311 318 321 324 326 328 329 331 333 333 335 337 339 340 343 343 346 346 348 347 345 343 341 335 333 334 331 333 338 336
297 301 301 302 306 308 304 307 306 310 308 305 307 303 307 315 314 321 324 327 331 332 334 333 336 338 340 342 344 345 347 346 347 346 347 344 336 332 331 329 327 328 328 332
300 304 304 303 306 309 309 304 300 299 301 297 307 304 301 309 316 319 323 324 330 332 335 336 338 339 340 343 344 347 346 346 347 346 344 342 334 327 327 325 324 324 323 331
297 300 302 307 301 304 302 296 289 290 293 294 301 304 306 313 320 322 322 321 328 332 335 335 336 337 338 341 344 346 346 345 346 345 339 335 327 327 326 325 322 326 327 328
291 292 299 303 302 300 298 297 290 286 287 293 296 299 307 316 319 324 324 323 326 329 335 336 338 338 338 341 344 346 345 344 344 339 333 325 325 324 324 323 326 325 326 329
291 292 302 304 305 304 298 294 298 291 291 290 293 298 305 313 312 320 322 320 324 327 333 336 338 339 339 341 343 346 345 345 343 337 329 325 325 325 324 327 328 324 324 330
296 290 298 304 304 303 302 301 293 291 287 287 291 294 297 303 310 315 318 317 323 327 330 334 337 337 340 343 344 346 348 345 342 332 330 327 327 329 329 329 327 327 328 329
295 294 295 299 298 299 298 294 293 294 291 289 288 293 303 306 311 314 317 320 323 326 329 331 335 336 338 343 344 345 347 344 336 336 330 327 327 329 329 329 328 329 327 327
298 294 293 296 300 302 299 298 297 294 290 290 291 294 307 310 313 316 317 320 324 327 328 330 332 334 334 339 342 344 346 343 339 336 331 329 329 329 329 329 328 328 327 328
297 290 289 291 293 297 297 298 295 294 293 292 292 295 308 308 310 316 317 318 319 322 326 329 330 332 333 336 340 344 345 343 339 336 331 330 331 331 330 330 329 328 328 328
307 290 295 293 293 297 296 299 299 297 292 292 294 298 305 307 308 311 314 316 319 320 323 326 329 331 332 334 338 344 345 344 339 335 332 330 331 333 332 331 330 329 328 327
301 293 293 299 300 300 300 301 300 298 299 298 299 300 305 307 309 311 315 315 317 319 321 325 327 328 330 332 337 344 345 342 340 335 333 331 332 334 332 332 331 330 329 329
297 293 295 294 299 300 299 301 302 302 299 299 298 301 307 311 309 310 314 315 316 317 322 325 326 326 328 332 337 342 343 342 340 336 333 333 333 332 329 329 330 330 328 329
295 297 291 294 296 298 294 300 300 302 304 304 300 303 308 308 310 311 311 314 317 318 321 323 323 324 324 331 338 339 341 342 338 336 334 334 334 334 332 331 330 328 329 328
298 296 292 295 294 290 299 306 306 307 309 310 308 305 311 312 314 312 311 312 312 314 317 321 325 328 329 327 336 338 340 339 337 332 334 335 334 332 332 331 330 329 330 328
303 295 294 292 292 297 304 308 308 304 304 311 309 310 313 314 313 311 314 313 313 314 313 314 318 325 329 333 334 335 334 336 335 332 333 335 334 331 331 329 330 329 329 328
303 300 298 294 291 291 304 310 315 311 299 312 313 311 312 312 308 308 315 315 316 317 319 319 320 325 330 332 334 333 331 333 333 333 332 333 334 333 331 330 330 329 329 328
300 301 296 295 295 299 308 312 314 301 300 310 312 311 311 308 309 313 317 318 318 318 319 323 328 329 331 333 332 327 328 328 329 331 331 331 330 330 330 329 330 330 327 324
300 299 298 297 293 294 311 311 305 308 310 311 311 312 313 312 314 314 316 315 317 320 326 332 330 329 331 331 330 327 325 328 329 330 329 326 329 333 331 329 325 321 323 325
300 305 303 300 299 307 312 309 312 312 308 311 312 313 317 320 318 317 316 317 324 329 329 328 327 326 326 327 328 325 322 324 325 323 322 323 323 327 327 326 319 318 319 324
309 310 305 306 306 308 312 314 315 314 311 311 313 315 314 315 323 323 324 323 325 324 323 324 325 322 319 320 322 321 323 326 325 323 322 321 321 320 322 323 322 322 323 322
308 311 308 306 312 311 312 314 314 315 316 315 314 314 314 314 315 326 325 326 326 324 322 322 321 320 319 321 322 323 323 324 322 320 320 320 322 323 321 310 308 316 310 311
308 306 303 303 308 309 310 314 314 311 311 310 311 311 311 311 311 315 324 327 327 324 323 321 321 321 320 321 321 321 320 322 318 317 317 316 318 319 317 311 305 301 299 297

GFSCGP_sfc_thetae_018.txt.gz
Theta_e
299 296 294 299 301 307 309 311 311 313 319 316 315 315 321 324 325 325 326 329 332 332 335 339 340 342 342 344 345 347 347 348 347 347 346 347 347 349 349 349 352 351 352 352
296 294 300 304 304 306 310 308 310 312 317 316 315 315 320 324 324 325 325 326 328 330 329 333 337 338 340 343 345 346 347 347 348 348 347 347 347 347 348 349 350 352 351 351
293 297 303 304 302 302 303 308 306 311 315 317 315 312 314 321 324 325 326 328 329 328 327 330 334 336 338 341 343 345 347 347 349 348 346 347 348 346 344 343 347 350 350 350
295 301 302 302 303 304 297 305 310 310 310 304 314 299 310 316 319 322 324 326 327 329 330 330 333 335 337 339 343 345 346 347 349 348 346 345 343 342 342 339 340 341 345 344
296 298 300 301 303 306 303 306 307 310 308 306 307 302 306 316 314 318 322 324 327 329 330 331 333 335 338 340 340 342 343 345 348 348 348 345 341 340 335 334 333 335 336 337
300 302 302 302 306 308 307 301 299 299 301 296 305 305 302 308 316 320 323 326 327 329 331 333 335 336 337 340 341 342 342 344 346 347 347 345 342 334 332 330 328 328 330 335
295 298 301 304 300 303 300 295 290 291 293 293 301 303 308 310 318 322 322 325 328 331 331 332 333 335 337 338 340 342 342 342 346 346 346 346 343 334 333 330 327 327 328 333
289 290 298 301 300 298 297 296 290 286 287 294 299 300 307 317 318 322 324 325 328 328 332 333 334 335 336 339 340 341 342 343 345 346 345 343 339 333 331 330 327 329 330 333
289 290 299 302 303 303 296 293 297 290 287 289 293 298 306 309 311 315 318 322 323 326 332 333 335 336 337 338 340 341 342 344 345 346 344 336 334 328 328 328 328 329 331 333
295 289 296 300 302 301 299 299 293 289 286 285 290 293 296 303 307 311 313 320 322 325 330 333 336 337 338 339 341 343 344 344 344 344 339 335 330 328 327 328 329 328 329 332
294 291 292 297 296 296 295 293 292 292 290 287 286 291 300 304 306 309 313 319 321 323 327 332 336 338 339 340 341 342 344 344 343 341 337 333 329 328 328 329 331 330 330 331
296 294 291 293 297 300 299 296 295 293 288 289 289 292 305 306 308 312 315 319 319 322 326 331 335 337 339 339 340 341 344 345 345 341 337 333 330 330 330 330 331 331 331 331
296 289 289 289 292 295 295 296 293 291 291 289 291 293 305 307 309 312 315 316 318 322 324 328 331 335 337 338 340 342 343 345 346 341 336 332 329 330 331 332 331 330 330 330
310 290 292 291 293 295 294 297 296 294 290 290 293 297 301 308 308 311 315 317 318 322 325 326 327 331 334 334 338 342 343 346 344 340 337 332 329 330 331 332 332 330 330 330
297 292 292 298 297 297 297 298 297 295 295 294 297 298 303 306 309 310 316 318 318 318 320 325 327 329 331 332 334 339 343 345 343 339 336 333 332 333 333 334 334 333 330 330
296 292 292 296 298 298 297 298 299 299 298 297 298 298 304 308 310 311 314 316 318 318 320 323 326 328 328 330 332 338 342 345 342 338 335 333 333 333 332 330 329 330 332 330
294 292 289 292 294 294 291 298 298 299 300 301 297 304 306 308 309 311 312 316 318 320 321 320 324 326 327 329 334 338 342 344 340 338 333 332 331 330 330 329 329 330 331 330
300 292 290 290 291 286 297 304 303 302 306 306 307 306 308 310 313 313 314 314 317 318 321 322 323 325 326 332 336 339 341 341 338 335 332 331 328 329 330 330 328 330 332 330
301 293 290 291 287 293 303 307 308 304 304 310 308 310 313 314 313 311 314 315 315 319 320 323 325 327 328 327 332 337 338 339 336 334 332 331 330 330 331 332 331 332 331 331
306 300 294 290 288 289 299 308 314 312 299 310 311 310 312 312 305 307 316 316 316 317 317 318 320 324 329 332 332 334 334 336 335 334 334 334 332 331 333 332 332 333 332 332
301 300 296 294 293 297 307 310 313 300 301 310 311 311 312 310 309 315 319 318 319 321 323 326 327 328 331 335 333 330 331 333 335 335 336 335 335 335 334 332 332 331 329 329
301 299 298 297 294 293 310 309 303 307 310 312 314 314 311 313 314 317 318 321 325 326 329 330 329 330 332 333 332 329 329 330 333 333 333 332 332 333 332 332 330 329 327 325
300 305 302 301 298 307 310 308 312 312 310 312 312 314 320 320 321 321 322 325 325 325 325 328 327 326 327 330 331 328 327 330 330 329 330 332 332 332 332 330 326 323 321 322
308 310 303 305 308 309 310 310 312 312 309 310 310 311 312 317 321 322 324 324 324 324 325 326 324 323 323 324 326 327 327 328 328 326 326 327 328 327 327 326 323 321 322 323
308 310 307 305 310 310 311 313 313 311 312 312 312 311 311 312 313 318 324 326 326 325 325 325 323 323 322 323 325 327 328 328 326 326 325 323 322 322 314 308 310 321 314 318
303 305 304 303 310 308 309 312 313 310 310 311 309 309 311 312 312 321 324 326 327 325 324 323 322 323 321 323 323 323 325 326 324 321 321 320 322 322 316 312 306 299 298 297

GFSCGP_sfc_thetae_021.txt.gz
Theta_e
308 304 302 307 314 316 317 316 315 320 324 321 321 322 325 332 333 333 335 337 338 340 345 348 350 352 352 354 354 355 356 361 360 356 355 356 355 358 360 361 363 363 363 362
304 301 306 309 312 314 317 315 315 319 323 322 320 319 326 329 332 334 334 336 338 341 343 346 348 350 351 352 354 355 358 361 361 358 358 358 358 358 360 361 362 363 362 363
302 304 307 307 307 307 315 315 316 316 320 323 320 317 322 327 330 332 334 336 337 339 340 342 344 347 348 350 353 355 360 362 361 362 359 358 358 358 356 357 357 359 361 362
303 306 305 305 306 309 307 317 318 317 316 310 321 308 318 324 326 328 330 332 333 336 339 340 341 344 346 349 353 357 359 361 360 362 358 358 353 351 354 355 356 359 361 360
304 302 303 303 306 310 309 315 316 318 316 314 314 311 316 322 322 325 329 331 333 335 336 337 339 342 346 348 350 354 359 360 362 361 362 356 355 355 356 353 352 354 356 358
307 307 307 307 310 311 312 311 311 315 314 305 312 312 311 317 322 325 329 331 333 334 336 338 340 343 344 347 348 352 357 360 361 359 359 359 358 356 351 349 347 347 347 346
305 305 308 309 306 311 311 309 302 301 302 301 311 311 314 320 324 326 328 330 333 335 335 337 339 340 344 346 348 350 355 357 359 357 358 358 358 358 354 351 346 345 342 341
299 297 304 308 307 306 307 308 302 296 297 301 307 306 312 323 326 327 330 332 333 334 336 338 342 343 344 346 350 351 353 354 357 355 359 360 359 356 351 353 347 342 342 341
300 300 304 307 309 311 307 303 311 304 301 302 306 310 314 320 321 324 326 328 331 334 336 337 339 342 345 347 349 351 353 354 356 355 359 358 360 357 353 353 346 342 344 342
304 298 304 305 309 309 308 310 301 303 298 295 300 303 305 314 317 322 324 325 329 333 336 337 340 343 346 347 350 352 354 354 355 355 356 356 356 355 354 347 339 343 343 344
308 303 301 304 303 303 304 303 304 307 304 300 298 302 315 317 321 321 323 325 327 331 334 338 342 345 347 348 348 350 351 354 355 356 358 357 353 350 340 343 336 337 340 341
307 305 300 301 307 307 307 305 306 302 301 302 303 303 314 317 320 322 322 324 327 331 333 337 340 343 344 347 346 347 350 351 354 356 356 353 348 337 343 340 340 339 338 339
304 302 298 300 304 305 303 305 307 307 306 305 299 303 317 316 318 320 320 326 329 331 333 336 339 343 346 347 349 349 350 349 351 354 351 349 337 342 339 337 338 336 337 336
311 304 302 297 301 305 302 302 304 304 301 302 302 306 312 315 318 323 324 326 329 331 332 335 338 343 346 349 350 351 349 350 351 352 350 346 340 342 341 339 336 332 334 334
312 305 305 306 307 305 304 302 303 302 305 302 305 306 312 317 319 324 329 329 328 329 332 336 337 342 346 348 351 351 350 353 354 353 350 346 342 344 342 341 338 331 333 334
308 304 305 304 307 305 302 304 304 304 305 305 307 308 317 320 321 320 324 326 328 330 331 334 337 339 342 345 346 348 350 351 355 351 349 346 342 343 342 341 339 337 332 335
310 305 301 299 305 302 298 304 305 306 308 307 304 311 319 315 317 321 326 327 329 332 334 334 336 341 342 342 345 345 348 353 352 350 348 343 343 342 341 339 339 338 337 337
310 307 303 301 300 292 304 310 309 307 308 310 311 314 317 319 322 324 327 328 329 332 334 334 334 338 341 342 343 347 349 352 351 349 345 343 342 341 342 339 337 339 339 336
315 308 304 301 299 302 305 311 306 304 307 313 312 316 319 319 318 321 322 324 328 330 332 334 335 337 339 342 345 348 349 351 350 347 344 344 343 341 340 337 337 340 340 338
311 312 308 301 297 295 306 312 316 316 304 317 318 319 319 319 313 320 322 324 327 330 333 335 337 339 340 341 346 347 348 348 347 347 345 344 343 341 338 338 338 340 339 339
309 309 303 302 299 304 312 315 316 304 308 317 318 320 319 318 320 323 326 328 330 330 332 336 339 340 343 345 344 344 346 346 349 348 346 343 342 340 340 340 340 339 339 338
307 305 304 305 300 298 315 314 310 315 319 319 320 321 320 323 326 329 331 332 334 336 338 339 339 340 343 345 346 345 345 349 348 344 343 341 342 339 339 340 339 340 339 338
305 311 305 305 305 314 314 315 317 318 319 321 326 328 329 327 328 330 331 332 333 334 335 338 339 340 342 344 344 342 336 341 344 344 342 339 339 340 339 338 340 338 338 338
312 314 309 310 312 312 313 315 315 316 315 317 319 321 324 324 327 330 332 332 333 334 335 338 340 339 338 340 337 340 341 343 343 341 340 340 340 339 339 338 337 335 334 333
307 314 309 309 310 312 311 314 316 316 316 315 316 318 322 327 327 330 331 333 334 335 335 335 336 336 334 336 337 339 338 338 339 339 339 338 335 334 327 320 321 328 329 321
305 307 308 307 313 314 312 314 316 313 313 315 315 315 318 321 326 330 331 333 334 334 334 335 334 335 333 332 336 337 336 337 337 335 334 332 332 328 324 320 316 299 299 298

GFSCGP_sfc_thetae_024.txt.gz
Theta_e
312 309 306 311 315 318 318 316 315 320 327 325 324 324 328 334 334 334 336 337 337 340 345 349 351 353 354 356 357 359 359 363 363 360 358 357 356 368 361 363 366 364 364 363
308 305 312 315 315 315 316 315 315 321 326 325 323 323 327 330 334 335 335 337 338 340 343 347 350 351 353 355 358 360 361 363 364 361 361 359 359 358 359 361 364 365 364 364
306 308 313 312 312 313 316 315 316 317 324 326 322 320 324 327 332 336 337 337 339 341 340 344 347 350 352 354 357 360 363 364 366 366 363 363 363 362 359 359 359 361 365 364
308 311 309 309 309 313 312 319 318 318 319 313 324 310 319 325 328 332 335 336 337 340 343 344 345 348 351 353 358 361 364 366 365 369 367 365 356 352 352 354 354 356 362 362
306 307 307 306 308 314 313 318 318 319 318 317 318 314 318 323 324 328 333 335 335 337 339 340 342 345 350 352 354 359 364 368 370 371 370 362 360 356 356 356 359 361 362 363
310 313 310 309 311 312 316 315 316 317 316 309 315 314 314 319 325 327 332 335 335 335 337 339 341 344 346 350 352 356 363 370 369 368 367 366 366 361 355 358 355 350 350 356
308 308 310 311 308 311 313 312 306 305 306 306 317 312 316 321 324 327 327 333 336 337 336 338 339 340 344 346 350 353 365 369 368 365 365 365 365 364 363 361 356 351 346 346
303 300 308 310 309 308 309 311 306 301 302 306 315 308 314 325 327 327 328 331 335 338 339 338 341 342 344 347 352 355 363 366 366 363 368 369 367 361 361 362 356 350 345 345
304 303 310 311 311 311 309 308 315 310 311 307 310 314 319 322 323 325 326 328 331 336 339 339 341 344 345 349 355 360 364 368 368 363 369 366 366 364 362 364 364 354 354 347
310 303 309 310 312 311 311 315 307 310 303 301 306 309 310 317 319 322 323 326 330 334 338 340 341 344 347 349 353 356 362 366 364 362 363 362 363 365 365 363 362 357 353 350
312 308 307 310 307 306 307 308 311 311 309 303 302 306 318 318 320 320 322 325 327 330 336 339 342 344 348 350 351 354 357 359 360 364 365 366 361 362 362 361 360 356 352 350
312 309 303 305 310 311 311 309 311 306 307 309 308 308 320 321 321 322 323 324 326 329 333 338 342 344 345 349 350 352 354 356 358 363 367 363 364 362 360 358 354 352 349 348
313 308 302 303 306 309 307 310 311 312 312 310 304 307 321 320 321 324 324 327 329 336 337 338 341 344 346 348 354 352 354 354 356 359 359 361 361 359 356 354 352 347 345 346
313 310 306 301 304 306 303 305 309 309 307 307 308 312 316 318 319 322 324 326 329 332 338 340 341 344 347 351 357 358 354 355 356 356 358 362 360 359 356 356 349 344 346 345
309 306 309 309 309 309 307 305 305 305 307 305 309 310 315 319 320 322 324 325 326 334 338 341 341 344 349 352 357 356 355 356 357 357 357 360 364 357 355 358 352 349 347 344
313 308 311 307 309 309 306 308 308 307 307 307 308 309 318 320 322 321 322 323 326 332 338 341 343 345 349 351 354 355 355 356 358 357 358 361 359 354 357 355 352 348 348 346
309 308 308 304 309 309 304 308 309 309 310 308 305 311 316 316 318 321 326 326 327 329 337 340 343 346 349 351 355 354 356 357 358 359 360 360 358 354 353 352 349 349 344 341
312 312 309 305 308 298 309 315 314 311 312 312 311 313 315 317 321 323 330 328 329 331 333 340 342 345 349 351 353 354 356 358 359 360 359 359 356 353 352 352 349 347 341 343
313 314 307 304 304 307 309 312 311 310 310 315 313 315 316 319 322 324 329 332 333 334 337 340 344 346 349 349 352 353 354 356 357 357 358 357 354 352 350 349 349 346 343 342
313 315 311 309 302 299 312 317 321 320 307 316 316 315 316 318 313 319 330 332 331 333 338 342 343 344 347 349 351 352 353 355 354 356 356 356 355 353 350 348 348 347 344 340
309 311 307 306 305 308 316 318 320 306 309 323 319 318 318 317 321 329 331 333 335 337 341 343 344 344 348 351 353 352 353 353 356 356 356 355 355 352 350 349 347 345 343 342
308 306 306 308 305 303 317 318 312 320 328 326 326 326 326 328 331 333 335 337 338 340 342 345 346 347 348 352 354 353 353 356 358 357 355 353 352 348 346 345 342 343 340 338
307 312 309 312 311 318 319 319 322 323 325 330 328 328 330 330 331 334 335 338 339 341 342 344 346 347 351 354 354 352 354 357 356 355 352 349 346 346 345 342 341 338 339 338
316 321 314 313 314 316 318 318 320 323 322 325 331 332 332 330 331 332 334 335 337 339 340 342 344 346 348 351 353 351 352 354 351 349 346 344 342 340 342 341 341 339 338 336
311 316 315 314 315 314 316 318 319 318 321 323 327 330 332 333 334 336 337 338 339 340 343 345 346 347 348 350 349 351 350 351 346 346 345 340 339 337 331 324 321 333 325 323
305 306 313 310 317 316 315 317 318 317 318 320 321 322 325 327 328 333 336 339 340 339 343 343 344 345 344 346 345 345 349 348 346 343 342 340 340 339 338 333 324 299 300 299

GFSCGP_sfc_thetae_027.txt.gz
Theta_e
314 309 307 313 316 318 319 318 315 321 323 324 323 323 327 333 333 332 332 333 334 336 342 345 347 347 350 352 355 357 361 370 363 357 356 357 354 362 359 360 361 365 364 364
311 306 313 317 317 317 317 317 317 320 323 323 323 323 327 332 333 334 333 333 333 335 339 343 347 347 350 352 356 361 364 371 367 361 363 360 360 355 358 359 362 366 363 368
308 309 313 315 314 314 315 316 317 316 324 325 323 320 323 328 333 335 335 336 336 335 336 341 345 347 349 351 356 363 369 371 370 371 367 363 362 359 355 352 352 356 360 359
310 313 311 312 312 315 312 319 318 317 316 314 322 311 321 325 326 331 334 336 335 336 337 340 344 346 348 351 356 365 370 372 371 373 366 369 356 351 349 352 352 354 356 356
308 309 310 309 312 316 314 319 318 318 316 317 316 313 316 323 322 325 331 336 336 337 338 338 341 346 349 351 353 360 371 373 373 373 371 362 362 353 352 351 365 361 365 358
312 315 313 312 315 316 318 317 318 318 316 308 316 313 315 318 323 326 331 334 337 337 339 341 342 345 347 350 352 356 368 374 376 374 373 373 371 362 354 355 355 351 349 353
310 311 313 314 310 315 314 313 306 305 306 306 317 314 317 323 325 327 327 331 336 339 338 340 341 341 346 349 353 355 366 372 376 373 372 372 373 373 369 363 354 358 346 346
305 302 310 312 311 310 311 312 306 301 303 306 315 311 316 326 328 328 328 330 334 338 339 338 340 341 344 348 355 358 363 371 374 374 373 375 376 363 361 365 356 352 346 347
306 306 313 313 313 312 310 308 315 310 311 308 311 316 320 325 325 327 328 328 328 335 338 339 340 341 341 347 354 357 362 370 373 371 375 375 374 371 362 367 370 358 363 348
311 306 312 312 313 312 310 315 307 311 304 303 308 310 313 320 321 324 325 325 327 330 335 339 340 341 345 344 351 358 363 369 372 372 373 371 372 373 373 373 371 367 364 358
312 310 309 312 309 307 307 308 311 311 310 305 303 309 321 321 323 322 324 326 327 328 332 337 341 343 347 346 349 354 360 366 370 371 371 371 370 369 371 368 369 369 368 362
313 310 306 308 313 314 311 309 310 310 307 310 310 309 322 322 324 324 325 326 327 329 330 334 339 342 344 350 348 349 354 357 364 367 371 370 371 370 368 368 369 369 366 362
313 308 303 306 310 313 309 310 310 311 313 311 307 309 323 323 323 324 324 326 328 329 332 335 336 340 346 351 353 352 354 352 357 364 365 370 370 369 367 369 369 369 363 359
315 310 307 303 307 310 307 308 309 309 307 309 309 312 318 320 322 324 325 326 327 329 332 338 338 336 346 352 356 357 355 352 355 358 361 367 370 370 368 370 369 366 361 356
312 307 309 309 311 311 309 307 307 307 309 307 311 312 317 320 322 325 326 326 327 327 329 338 341 342 352 354 360 359 360 360 358 362 363 367 372 372 372 369 367 363 360 353
312 307 311 308 311 310 309 308 308 308 308 309 310 311 320 323 324 325 325 325 325 326 327 336 343 345 350 355 359 362 361 362 364 365 365 369 372 372 369 367 367 361 356 353
310 308 307 303 309 309 304 309 310 310 310 309 306 313 318 318 320 324 330 327 326 327 329 329 342 347 353 352 360 361 363 365 365 369 367 371 372 370 365 363 363 358 355 352
309 310 309 305 308 298 310 315 314 312 313 314 313 314 316 317 321 324 327 326 328 329 329 332 337 345 349 352 354 361 360 365 367 367 369 371 369 365 362 360 361 360 355 351
312 310 305 302 303 308 310 313 312 311 311 316 315 317 318 318 318 321 325 328 331 333 334 335 331 343 351 354 360 364 363 363 365 365 368 367 365 364 361 354 357 358 355 349
312 314 309 306 301 299 309 318 322 320 308 319 319 320 318 319 311 318 326 324 327 330 332 332 336 340 348 355 354 361 360 362 363 363 365 366 365 361 357 356 356 357 353 349
305 307 304 307 304 308 319 321 321 307 311 326 327 326 325 320 319 324 327 328 333 333 336 339 343 344 357 359 360 360 359 358 361 361 362 363 360 360 359 357 357 351 346 343
304 304 303 306 304 300 321 320 314 322 329 331 330 328 327 330 325 324 333 335 337 338 340 342 344 349 354 361 363 362 362 367 366 363 358 359 360 356 354 353 350 348 344 345
304 309 306 309 309 324 325 325 326 326 325 330 331 331 330 329 330 333 337 337 339 342 344 345 347 353 356 361 365 361 366 367 364 361 360 359 358 354 353 347 344 341 343 341
312 316 314 318 320 320 322 324 326 327 328 331 332 332 332 330 333 336 339 340 342 345 347 350 349 350 355 362 362 362 362 365 361 357 354 351 348 347 348 344 343 342 340 340
305 308 316 318 319 321 321 322 324 325 330 332 334 335 335 334 334 336 337 339 340 342 346 348 349 351 351 354 355 357 357 358 354 350 349 346 346 346 340 327 327 341 335 327
306 306 311 314 320 321 319 323 324 323 324 327 327 328 328 332 334 337 338 341 342 343 346 348 349 349 350 351 352 355 355 354 351 346 345 341 341 339 340 335 325 300 302 300

GFSCGP_sfc_thetae_030.txt.gz
Theta_e
314 309 306 309 312 314 314 315 314 319 320 320 322 321 322 325 329 326 327 329 331 333 339 343 345 347 348 352 356 359 362 366 366 363 357 358 360 361 362 361 370 365 365 365
310 305 310 313 314 313 313 313 315 320 323 322 320 322 325 326 328 329 328 329 330 333 337 341 345 346 347 352 355 360 362 369 366 362 361 358 358 357 360 361 364 363 365 364
306 309 312 311 311 312 312 312 315 316 321 322 320 317 322 328 330 330 331 332 332 333 333 340 343 345 347 351 356 359 362 367 364 367 362 364 369 370 355 357 356 363 364 365
309 312 310 309 309 312 309 316 316 317 316 311 320 308 320 324 327 328 329 331 332 333 335 337 341 346 346 351 358 361 363 365 366 365 365 364 356 356 358 362 357 363 365 363
308 309 308 307 308 314 312 317 316 316 314 316 316 311 317 324 322 326 328 331 332 335 335 335 340 345 347 351 355 360 363 365 366 365 367 365 360 353 360 358 364 364 366 362
311 315 312 311 312 313 316 315 315 315 313 307 314 310 312 319 322 325 329 329 335 334 336 338 340 345 347 350 354 358 363 364 366 367 365 366 361 358 359 361 359 358 358 359
309 310 313 313 309 312 312 310 305 304 305 304 315 313 316 323 325 326 324 329 335 338 337 338 339 341 347 349 351 356 363 363 366 367 366 364 366 365 361 368 362 355 350 352
303 302 309 313 309 308 309 309 306 300 302 305 314 309 316 326 327 325 327 328 334 336 338 340 341 341 347 348 352 354 361 363 366 366 368 368 366 366 364 364 361 355 356 352
305 304 313 313 313 311 308 306 312 307 309 306 310 314 321 325 323 327 328 328 328 331 337 339 343 344 345 349 351 354 362 363 366 368 368 368 368 366 363 365 363 364 360 362
310 304 311 313 314 312 310 313 304 306 301 301 307 310 312 321 320 325 324 327 329 330 337 338 339 343 345 348 352 355 358 364 367 369 369 367 368 369 366 365 364 359 367 360
311 309 308 313 309 307 307 305 307 308 308 303 302 308 321 321 326 326 326 328 329 328 334 338 339 342 345 346 350 352 355 362 365 368 369 368 368 369 367 364 363 364 363 361
312 309 305 307 314 314 311 308 307 302 305 308 307 309 321 328 327 328 327 329 330 331 330 333 340 342 343 344 346 349 353 354 363 367 367 368 369 368 367 363 366 367 362 362
314 307 303 304 309 313 309 309 308 307 307 307 304 307 321 324 323 325 327 328 330 333 337 338 337 341 344 344 345 346 350 352 359 365 365 367 367 366 365 365 362 365 364 362
316 309 306 302 306 309 308 309 309 307 303 305 308 311 316 321 322 325 327 329 331 337 340 340 346 343 344 346 346 347 348 353 355 361 363 364 366 366 365 365 365 365 366 362
312 306 308 309 308 310 309 309 308 307 308 305 308 312 316 320 324 325 334 332 333 336 337 341 340 348 354 350 350 350 350 351 354 358 360 363 367 367 367 366 366 366 365 362
313 307 308 306 308 308 307 310 310 310 309 309 310 310 319 323 325 328 324 325 330 333 333 341 347 350 354 356 353 351 352 352 354 355 358 362 365 367 367 366 366 364 364 360
310 307 307 303 308 307 303 309 310 310 311 310 306 313 319 319 321 326 329 326 331 331 332 337 346 349 353 357 358 354 354 357 354 357 358 361 365 366 366 367 365 363 362 359
312 309 308 304 307 298 309 314 313 312 312 312 312 315 317 319 322 323 329 332 333 334 333 338 334 346 352 353 354 362 358 359 358 360 360 363 366 366 367 366 364 363 361 355
312 311 304 302 301 305 308 312 312 310 312 316 315 317 317 318 319 320 324 326 330 333 338 340 334 332 350 350 355 358 361 359 360 359 366 366 367 367 366 363 362 360 358 351
309 314 307 305 299 297 309 313 318 317 308 319 318 319 318 321 313 316 326 325 326 328 330 337 338 335 337 351 354 358 358 361 358 363 365 369 369 367 364 362 361 362 360 351
303 306 302 303 301 305 313 316 321 308 313 327 325 324 323 322 327 335 333 329 327 328 331 334 339 342 359 354 355 358 359 360 362 366 368 368 368 367 366 361 359 357 355 353
302 302 301 304 303 300 319 320 313 324 330 330 329 329 327 330 331 332 334 335 336 342 341 341 351 356 362 360 364 361 361 366 368 366 366 366 366 360 360 355 353 351 348 346
300 305 304 308 308 322 321 327 329 328 327 329 330 329 329 328 328 329 337 340 337 340 345 347 353 364 366 372 365 361 367 366 366 363 362 360 360 358 355 351 350 343 344 340
310 312 309 310 314 321 323 324 328 329 329 331 332 331 330 329 330 333 338 339 341 345 349 353 355 358 361 366 367 366 365 363 361 359 359 358 354 349 348 346 345 342 339 340
307 309 309 312 324 323 323 325 326 328 332 332 336 336 337 338 338 340 342 345 345 350 354 355 357 357 360 363 362 363 362 361 358 356 351 348 346 342 328 319 316 339 325 326
308 305 305 311 311 313 322 325 328 327 327 330 331 332 336 338 337 339 339 344 345 348 352 352 350 348 352 356 355 356 359 358 353 347 346 343 339 335 329 327 320 301 302 300

GFSCGP_sfc_thetae_033.txt.gz
Theta_e
307 302 300 302 304 305 306 305 305 313 320 318 318 316 318 320 319 320 326 327 328 330 333 337 338 343 344 347 348 347 348 354 353 353 352 351 349 350 351 353 356 356 355 355
303 300 306 309 308 306 306 304 305 317 319 316 318 317 319 321 321 322 324 326 327 329 331 335 337 339 342 344 348 347 350 356 353 354 353 349 350 350 351 352 356 355 356 355
302 303 310 308 306 305 305 303 305 313 318 319 316 314 315 319 323 325 325 327 328 328 329 333 335 338 341 343 348 349 352 356 355 356 354 351 353 354 351 353 354 356 356 357
304 309 308 306 304 306 301 309 310 314 312 306 316 306 314 318 320 323 324 324 326 328 331 333 336 337 340 344 350 351 353 356 354 355 351 347 346 345 347 352 353 352 356 356
303 306 305 304 304 307 304 311 310 310 310 311 311 307 311 320 319 320 324 324 325 327 330 333 336 338 341 346 348 353 353 357 353 354 354 349 346 348 346 344 349 353 352 354
306 311 309 306 308 308 309 308 308 307 305 299 309 308 306 310 320 322 324 326 327 327 329 331 336 340 340 346 350 352 352 353 355 352 353 353 350 344 342 348 347 349 345 348
304 305 309 311 303 306 305 300 296 295 296 295 309 307 309 315 319 326 325 325 327 329 329 329 334 337 339 342 349 352 352 351 356 355 354 355 355 349 348 349 347 345 344 342
298 296 305 309 305 301 302 300 296 289 293 297 304 303 309 320 323 325 327 326 326 327 330 330 331 336 340 341 347 351 352 352 355 356 354 354 355 358 353 351 351 346 346 344
298 299 309 309 310 306 299 298 303 295 299 296 301 305 313 320 319 322 321 323 324 326 331 332 332 335 340 341 346 349 353 353 355 357 356 355 354 355 358 353 350 351 347 347
303 296 306 309 310 308 303 302 297 299 291 292 299 300 304 314 316 320 321 322 324 325 328 334 334 334 341 342 344 349 356 355 357 357 358 358 358 357 356 356 353 351 351 350
305 301 302 307 303 302 300 300 298 298 299 292 292 299 308 314 318 320 322 324 326 328 328 332 335 336 340 343 344 346 355 356 357 358 358 358 359 360 358 356 354 353 350 350
306 302 297 301 308 309 306 301 298 295 291 296 297 298 312 316 321 323 323 324 326 328 330 330 335 337 337 342 344 346 355 355 358 359 360 359 359 362 360 358 355 355 351 351
307 302 294 297 302 306 303 305 302 300 296 295 292 298 312 313 320 323 323 323 326 325 322 328 333 336 338 341 344 345 351 356 358 359 360 360 360 359 361 359 357 356 355 352
316 303 299 295 298 301 301 304 304 301 296 294 297 297 305 311 315 318 320 322 323 325 325 324 333 334 337 338 342 344 347 354 358 359 360 359 360 360 361 362 358 356 357 353
300 298 303 303 305 305 304 305 304 301 301 296 298 299 303 308 316 319 319 318 320 324 326 324 331 333 336 336 339 343 346 347 355 356 358 358 360 361 361 361 360 356 357 356
299 299 302 300 305 304 303 305 305 305 304 303 303 302 307 309 320 320 321 320 320 324 328 329 328 335 336 336 337 340 343 345 347 353 355 358 358 360 360 359 359 358 355 357
296 296 298 295 302 301 298 302 304 306 307 305 301 303 308 308 312 316 320 319 320 321 325 329 332 333 336 340 340 339 341 344 346 346 352 355 357 358 359 359 358 358 356 358
297 297 299 295 299 292 301 307 308 307 309 308 307 307 310 310 313 317 321 320 321 322 324 325 336 336 338 347 343 343 343 343 345 347 349 353 355 358 359 359 358 358 358 354
303 299 297 295 295 297 304 307 306 303 304 311 308 309 311 311 310 309 316 319 315 320 321 326 328 338 342 345 348 345 344 346 344 346 348 353 355 357 359 358 358 358 356 353
303 302 300 295 292 291 300 310 313 310 300 317 314 311 310 309 302 306 321 322 319 320 320 323 326 326 340 339 351 347 345 347 345 345 350 352 356 357 359 359 358 355 353 349
296 298 297 296 293 297 307 311 312 300 302 322 322 320 320 316 320 322 324 324 323 319 321 320 322 324 327 340 348 350 348 346 351 352 357 358 360 361 360 358 356 355 349 346
297 295 297 297 294 293 317 312 310 318 322 324 323 322 320 320 322 322 330 330 330 333 335 333 326 330 333 340 348 347 349 352 353 358 360 360 360 360 356 353 351 350 347 343
296 302 300 302 301 316 319 319 321 322 324 322 322 322 322 320 319 329 331 332 330 331 333 337 347 353 355 352 349 349 354 358 359 359 358 358 356 355 351 347 344 342 341 339
305 307 305 305 308 311 315 319 320 323 324 331 333 333 333 333 336 336 337 337 340 343 345 348 350 350 352 355 358 357 358 358 357 354 352 349 349 347 346 343 342 340 339 338
305 306 303 305 308 313 318 313 319 324 332 332 334 334 334 334 335 336 336 339 343 345 348 349 349 351 352 355 354 355 356 355 352 350 346 343 339 330 320 315 326 334 322 328
306 303 301 301 309 311 312 312 315 326 327 327 328 331 333 334 334 335 334 337 341 341 343 344 347 348 350 352 352 352 351 348 345 341 340 334 331 328 324 320 312 301 302 300

GFSCGP_sfc_thetae_036.txt.gz
Theta_e
302 299 299 299 300 301 301 299 299 305 315 316 314 314 320 325 327 327 328 329 330 331 334 335 342 344 342 344 346 347 347 346 346 348 347 346 345 346 348 349 349 353 353 354
298 297 302 305 304 302 301 299 299 312 318 316 315 314 318 319 325 327 327 328 329 330 331 333 338 341 341 341 345 345 347 348 348 349 350 347 348 349 346 348 353 352 352 352
297 300 306 305 303 302 300 299 299 302 315 316 316 312 313 318 319 320 328 329 329 329 329 331 334 338 341 341 344 345 347 349 350 351 350 347 348 346 347 348 351 352 354 354
299 304 305 303 302 303 296 305 305 305 306 304 313 302 311 315 315 318 321 325 327 329 330 331 333 336 340 342 345 345 347 351 351 351 350 347 345 344 344 346 350 352 353 353
299 303 303 301 302 305 300 305 304 305 306 304 307 302 306 316 315 315 320 323 326 328 330 330 333 335 339 342 345 346 347 352 352 352 350 348 343 345 347 345 351 347 350 352
304 308 306 305 307 307 307 302 301 300 301 298 305 306 304 310 314 317 321 323 325 327 329 331 334 336 337 341 345 346 346 349 351 352 350 348 345 343 343 342 343 345 348 349
301 303 305 307 301 303 302 293 289 289 290 292 304 305 307 315 320 321 322 324 325 327 328 329 331 334 336 339 343 346 346 347 349 351 350 348 346 345 342 341 344 344 342 343
295 293 302 305 304 300 296 297 291 284 287 290 299 301 307 317 321 325 327 327 327 325 327 329 331 334 336 338 343 346 345 347 349 348 349 351 351 349 346 344 345 346 345 345
294 296 305 307 306 305 297 294 298 290 293 291 295 302 309 316 316 321 325 327 325 325 326 328 330 334 336 338 343 346 346 346 350 349 348 348 350 353 352 348 348 344 342 342
297 292 302 306 305 306 303 299 292 288 286 287 291 296 299 307 313 317 323 325 325 326 327 328 329 333 337 338 344 346 347 346 349 351 350 349 348 351 354 352 348 347 344 344
303 296 297 301 301 300 298 296 294 294 292 290 288 294 303 305 313 316 322 326 326 325 327 329 330 331 336 339 342 347 347 347 348 350 351 350 349 349 351 354 353 349 348 345
299 297 294 297 302 305 304 300 296 294 288 290 295 296 306 308 314 319 320 324 325 325 329 330 331 332 332 338 339 345 349 348 349 351 352 352 352 352 350 350 353 353 349 348
299 296 291 291 297 301 298 301 301 291 291 294 290 292 305 305 314 318 319 320 323 326 323 329 332 330 331 336 339 343 348 350 351 352 352 353 353 353 352 352 351 354 352 347
301 294 294 293 294 298 296 301 300 298 293 293 295 294 299 302 311 316 320 321 322 323 323 321 325 329 333 337 339 341 345 352 352 353 353 352 353 355 355 355 353 352 354 349
294 288 292 295 301 301 300 301 302 298 299 296 294 295 298 301 306 314 319 321 323 323 321 325 326 328 333 335 339 341 343 350 353 353 353 353 354 356 357 357 357 355 353 352
293 289 292 296 300 302 300 302 303 302 302 300 296 296 301 304 305 308 316 320 320 318 320 321 323 327 333 335 339 341 343 348 352 353 353 355 356 356 356 357 358 356 354 353
290 289 289 289 298 299 296 301 302 302 302 301 296 299 303 303 308 310 314 316 316 321 321 323 325 328 334 336 340 341 342 346 351 351 354 355 356 356 356 357 357 356 353 354
292 290 290 289 292 289 298 306 306 302 303 304 302 303 306 306 307 310 311 314 316 317 319 322 327 330 334 336 337 341 343 344 346 351 352 354 355 355 357 357 356 356 354 353
298 295 289 288 289 294 301 303 302 300 301 306 306 306 306 308 307 306 313 317 317 317 318 320 327 333 334 337 336 337 338 341 343 345 349 352 355 354 356 355 355 356 356 353
299 300 295 292 288 288 296 306 309 306 296 311 308 307 307 305 303 302 316 315 314 314 316 323 326 331 332 339 339 336 336 338 340 343 344 350 354 354 355 356 356 357 356 353
296 295 292 293 293 294 302 307 307 297 297 317 316 311 308 309 306 316 321 320 318 315 315 317 318 323 335 340 342 337 337 337 340 343 345 346 352 353 356 357 357 356 355 350
295 295 295 295 292 289 311 312 299 304 318 318 317 316 316 317 318 323 324 326 328 328 330 324 316 316 317 335 346 341 338 342 343 342 344 346 351 353 355 357 357 355 351 347
294 300 298 300 301 308 312 309 312 320 318 319 319 317 318 317 322 326 325 326 333 332 330 341 330 332 338 330 344 344 343 344 347 344 347 349 352 355 357 356 354 351 347 342
303 306 302 302 307 307 312 311 313 316 327 330 330 331 331 330 333 333 334 336 340 342 342 344 344 343 343 345 339 343 345 347 350 348 354 356 356 354 355 354 351 346 343 339
304 305 302 302 307 309 312 311 312 324 330 331 332 333 332 332 331 335 335 337 339 341 343 344 344 343 344 345 346 350 354 355 354 353 353 351 347 347 334 323 333 341 332 335
305 301 300 300 306 309 309 312 314 314 317 322 328 329 330 330 330 333 332 333 335 337 339 341 341 343 344 346 346 349 353 352 348 345 339 335 332 329 325 322 315 305 306 308

GFSCGP_sfc_thetae_039.txt.gz
Theta_e
303 299 296 298 299 300 300 297 297 301 306 312 312 313 323 326 326 327 329 330 331 331 334 338 340 342 343 343 343 344 344 345 346 344 345 343 342 343 347 346 348 350 353 354
297 297 302 304 302 300 298 297 296 302 313 312 311 312 322 325 325 326 327 328 330 330 331 335 337 341 341 340 341 344 345 344 346 346 347 345 344 344 345 349 347 349 351 352
297 298 304 303 300 299 297 296 296 298 309 314 312 309 316 324 324 327 328 329 330 330 328 329 335 339 341 340 341 343 345 345 345 346 346 345 346 344 344 344 347 350 351 353
296 302 302 300 300 301 294 301 302 301 300 298 311 299 309 316 318 322 326 328 329 330 331 331 334 338 340 340 343 344 345 345 345 346 346 344 342 340 342 345 346 349 352 351
296 298 299 298 301 302 299 303 301 301 297 296 302 299 304 314 312 315 320 326 328 330 331 331 332 336 340 341 341 344 344 346 346 347 347 346 343 344 342 343 345 347 349 350
301 304 302 301 304 304 304 300 297 296 294 292 298 302 304 308 313 315 317 322 328 329 330 332 332 335 338 341 341 343 342 345 347 347 348 346 344 341 341 341 342 345 345 348
297 299 302 304 299 300 299 292 287 285 286 289 296 299 304 310 317 318 319 319 324 329 329 330 330 332 335 338 340 342 342 343 347 347 348 347 346 343 342 342 343 341 342 343
293 291 300 303 300 297 296 296 286 282 284 289 294 294 301 313 317 321 323 322 323 325 328 329 330 331 333 337 339 341 341 342 347 348 348 347 347 345 344 342 343 343 344 346
293 293 303 305 303 303 295 293 297 287 288 287 292 298 307 313 314 317 320 321 322 324 326 328 330 330 333 335 338 341 342 343 345 348 348 347 347 345 344 342 342 344 345 346
296 291 299 302 304 302 300 297 290 285 285 285 287 292 296 306 311 313 317 321 323 325 325 327 329 330 332 335 337 340 343 343 345 347 348 348 347 347 346 344 344 343 343 342
293 292 294 300 297 298 294 295 291 292 287 288 283 291 300 305 309 311 315 322 324 325 327 326 328 330 332 335 337 340 342 343 344 346 347 347 348 349 350 349 347 345 343 341
296 288 293 297 299 304 302 298 295 289 287 288 292 291 302 306 307 312 315 319 324 327 328 328 327 329 330 333 336 340 342 343 344 347 347 346 346 347 349 350 350 348 344 342
299 289 285 288 292 295 296 298 298 296 289 293 288 290 301 304 308 311 314 317 320 326 325 327 327 327 328 332 336 339 342 344 345 346 347 347 346 346 346 347 350 351 349 346
297 288 288 288 289 294 293 297 299 296 291 293 295 292 296 301 303 308 315 317 318 322 324 326 326 327 328 331 336 337 342 344 345 345 346 346 347 347 346 346 347 350 351 347
292 286 289 292 295 297 296 298 299 294 297 294 296 295 298 300 304 307 312 317 319 320 322 325 326 327 326 328 334 337 341 345 346 345 346 346 348 349 349 348 346 347 349 350
290 288 289 290 296 298 296 298 300 300 300 297 294 294 300 303 302 303 307 314 317 319 323 323 324 328 329 330 333 337 338 343 347 346 346 348 348 350 350 350 350 348 348 348
287 287 287 285 293 293 292 297 299 300 301 300 294 297 300 300 301 302 304 308 316 320 322 320 320 324 327 331 334 335 338 342 347 347 348 349 349 349 351 352 352 351 349 349
287 287 288 285 289 285 297 303 304 301 301 300 299 300 302 303 305 307 306 308 313 317 319 319 321 321 322 328 333 337 339 339 345 347 348 350 350 350 351 352 352 353 353 350
292 288 286 285 285 292 299 300 300 298 297 303 302 303 303 304 303 303 308 309 314 316 317 322 324 325 324 326 332 335 336 339 343 345 347 350 351 351 351 351 352 353 355 353
292 292 292 287 285 285 295 308 312 305 297 304 304 304 304 303 298 305 307 312 314 315 315 318 323 327 328 329 334 336 337 339 340 345 347 350 352 352 352 353 353 354 355 354
287 288 287 289 288 292 306 310 313 295 297 306 310 307 304 302 305 308 309 314 311 312 314 316 321 327 331 331 332 333 336 337 341 344 348 349 351 353 354 354 355 355 355 354
291 289 289 290 290 287 310 310 301 304 309 312 314 310 305 306 308 313 318 321 322 320 314 313 314 322 327 334 333 331 331 337 340 342 342 345 349 352 353 353 354 355 355 353
290 296 294 295 295 305 309 310 312 313 311 311 318 314 314 317 319 321 322 322 325 325 332 327 312 312 313 326 335 332 334 336 336 338 339 341 344 350 352 352 353 354 354 352
296 300 297 299 306 308 311 313 313 315 317 328 329 325 323 326 328 329 332 333 335 337 339 339 338 338 338 342 332 334 336 336 334 334 335 338 341 344 349 353 354 354 353 349
293 300 298 298 306 311 312 312 313 314 317 325 328 328 329 332 331 332 334 335 338 340 341 342 341 340 341 344 344 345 343 340 339 339 337 340 343 343 319 312 311 332 333 341
300 301 298 297 306 308 308 313 316 314 314 316 318 320 321 324 327 331 330 332 334 335 337 339 341 342 342 342 341 343 346 347 347 346 345 340 329 327 324 326 324 309 310 314

GFSCGP_sfc_thetae_042.txt.gz
Theta_e
303 298 294 298 298 299 300 297 297 300 304 310 308 310 320 326 327 327 328 328 330 331 335 338 340 343 342 343 343 342 344 344 345 345 344 345 344 345 347 350 351 351 352 355
296 297 302 302 301 300 298 296 295 299 303 306 306 309 321 324 326 328 328 329 329 331 333 335 337 340 340 340 342 342 343 344 344 346 347 347 347 345 348 351 350 351 353 355
298 298 304 302 298 298 295 296 295 297 305 311 309 306 316 323 325 327 330 331 332 332 331 332 335 338 341 340 341 343 343 344 345 346 347 346 346 346 345 347 349 349 352 354
296 302 303 299 298 299 291 299 300 299 296 292 309 298 307 318 320 323 324 328 330 331 333 332 334 336 339 341 342 343 344 345 346 346 345 344 344 343 344 345 348 351 352 353
296 298 298 299 300 301 297 302 299 299 296 293 297 298 302 315 316 320 323 325 328 331 332 330 332 336 338 341 341 342 343 345 345 346 346 344 344 344 344 346 347 347 351 353
298 301 301 299 301 302 303 298 295 293 292 288 294 296 295 306 315 320 324 327 328 329 331 332 332 335 337 341 342 342 342 343 345 345 345 345 344 342 342 342 344 346 348 350
295 298 299 301 297 298 299 292 285 284 285 288 294 296 299 309 316 320 322 324 328 330 331 332 332 331 335 338 340 340 342 341 344 344 345 345 345 344 344 343 344 344 346 348
290 289 297 300 297 295 295 292 285 281 281 290 292 291 297 309 317 320 322 324 325 327 331 332 333 333 333 337 340 340 341 341 344 345 345 346 347 346 346 345 345 345 346 349
290 291 300 301 301 300 292 291 294 286 286 284 289 294 303 308 309 315 318 320 321 323 327 330 332 333 333 335 338 339 340 341 343 345 346 347 347 347 346 346 345 345 348 349
294 289 297 301 301 301 296 298 290 285 283 281 286 289 294 303 306 310 313 318 321 322 323 328 331 332 333 334 338 340 341 341 343 346 346 347 347 348 347 347 344 344 346 348
292 291 293 297 296 297 293 291 289 292 286 284 282 288 297 303 306 308 311 317 320 322 323 326 329 332 333 334 336 338 340 341 342 346 347 347 347 348 348 346 345 345 346 346
296 286 289 292 297 303 302 297 290 290 285 286 286 289 300 303 307 310 311 315 319 323 324 326 328 330 331 331 333 336 339 341 342 344 347 347 348 348 347 347 347 347 345 345
296 288 284 287 294 295 294 296 292 290 287 292 286 290 301 301 303 305 309 312 317 321 324 326 326 327 329 330 332 335 337 340 343 344 345 346 347 347 347 347 349 348 347 345
296 287 285 285 288 292 290 296 296 295 290 292 293 292 297 301 300 304 308 313 314 318 322 325 326 326 328 330 332 334 337 340 342 343 344 344 346 347 347 349 350 350 349 346
290 285 287 290 293 295 294 295 296 295 296 292 295 295 297 300 303 306 306 313 318 319 321 322 325 325 326 328 332 335 337 341 343 343 343 344 346 346 347 347 349 350 351 350
288 285 287 288 294 295 293 296 297 297 297 297 296 295 300 303 302 304 307 310 315 318 321 322 325 326 327 327 331 335 337 340 343 343 342 345 346 347 346 346 346 347 349 351
285 285 286 284 291 291 289 295 297 297 298 298 295 298 301 300 301 303 306 306 311 317 320 321 323 325 328 327 331 334 336 341 342 343 344 345 346 346 347 347 346 345 345 349
284 285 286 284 287 283 292 300 301 299 300 300 299 302 304 304 306 306 306 308 306 311 319 321 323 324 327 330 330 334 337 339 343 343 343 345 346 346 348 348 347 347 347 346
290 285 283 284 283 290 294 303 304 300 297 302 300 302 303 306 305 303 306 306 308 310 316 321 324 325 326 327 332 333 335 338 341 343 344 346 347 346 347 348 348 349 349 348
290 290 286 284 283 282 294 306 312 310 295 306 307 304 304 302 297 304 307 309 310 312 315 317 320 323 322 324 326 331 334 336 338 344 345 348 349 348 347 348 349 351 352 351
282 285 282 284 285 289 301 309 311 295 297 309 311 310 309 301 306 309 309 309 312 313 314 316 319 324 326 327 331 332 334 336 339 343 347 349 350 350 351 350 351 352 352 353
284 283 281 283 284 284 307 308 302 304 310 312 314 314 312 314 307 308 311 312 313 313 315 316 319 321 325 331 333 333 334 338 342 343 345 347 350 351 352 352 352 352 352 352
286 290 289 288 288 299 308 307 311 311 312 313 314 316 322 322 309 311 317 322 325 332 333 320 313 327 334 331 334 330 333 337 338 341 342 347 351 351 353 352 352 352 353 351
291 295 294 294 299 305 309 311 312 314 314 315 317 324 327 317 323 329 332 335 339 340 340 342 341 340 340 344 341 337 339 339 336 336 337 340 342 346 351 353 354 353 352 351
291 292 291 294 296 305 311 311 312 315 317 317 319 324 331 332 333 335 334 336 336 338 339 340 340 341 340 343 345 348 347 342 339 337 336 339 340 327 322 318 322 330 323 340
292 290 288 288 298 299 306 311 315 314 314 317 318 325 327 330 330 333 332 333 333 333 337 337 338 339 340 341 342 345 348 347 346 342 340 333 328 327 329 325 321 307 310 308

GFSCGP_sfc_thetae_045.txt.gz
Theta_e
310 304 301 304 307 307 305 305 307 310 312 314 314 315 319 330 332 332 333 333 334 335 340 343 345 347 348 350 351 353 353 356 354 351 349 348 345 350 354 357 361 361 362 364
304 301 306 307 306 304 304 303 305 308 308 309 311 312 319 327 330 333 332 333 334 335 338 341 344 346 347 348 351 353 354 356 355 352 353 350 351 352 355 358 361 363 362 364
301 303 307 305 304 302 302 301 304 305 307 313 312 310 318 326 331 333 334 335 334 336 336 339 342 344 347 348 351 354 356 358 356 357 354 354 355 355 353 354 357 360 362 363
302 307 304 303 303 304 299 305 304 305 304 301 314 303 315 322 326 329 332 334 334 335 338 339 340 343 345 349 350 355 355 358 357 360 355 356 349 348 351 355 357 358 362 362
301 303 303 302 303 306 302 306 304 304 304 304 305 304 309 320 321 325 330 333 335 337 337 338 339 343 345 348 348 351 355 357 358 358 358 354 354 352 354 355 360 363 363 362
305 307 307 306 307 307 308 305 304 303 303 297 303 303 306 313 320 325 329 332 335 337 338 340 342 343 344 347 348 349 354 356 358 358 358 357 356 356 352 354 353 354 355 357
302 302 307 308 304 307 306 302 295 294 294 295 305 301 305 312 320 324 328 331 333 336 338 340 341 340 345 346 349 351 353 353 356 356 357 357 357 358 358 357 353 355 352 353
297 294 302 306 305 302 303 302 296 290 292 296 302 299 305 313 316 323 326 330 333 335 337 339 343 343 343 346 348 350 351 352 354 355 356 358 359 356 356 357 354 353 353 354
298 298 305 305 307 306 302 300 305 298 297 295 300 304 309 313 315 317 324 327 330 333 336 337 339 342 343 344 348 350 351 352 354 355 356 357 358 358 356 360 361 355 361 356
302 297 304 304 307 307 304 306 296 299 291 290 296 298 301 310 312 317 320 325 328 332 334 336 340 342 344 344 347 351 352 352 354 355 356 355 356 358 359 360 359 360 362 360
302 301 300 304 301 301 300 301 301 301 298 293 292 297 309 312 316 316 318 324 326 328 330 333 338 343 345 346 344 348 350 352 353 354 355 356 356 357 359 358 359 360 362 362
301 298 299 300 306 308 305 303 302 297 296 297 298 298 309 313 316 318 319 322 325 328 330 332 333 338 341 344 344 345 348 349 351 353 355 355 357 358 357 358 359 361 360 362
300 297 295 298 302 304 302 304 304 303 303 299 294 297 312 312 313 315 317 321 324 328 331 333 333 336 340 342 343 344 346 347 349 353 353 355 356 356 356 357 359 360 360 360
301 297 296 296 298 299 298 301 304 302 298 299 300 301 307 310 311 315 317 319 321 327 331 334 335 336 340 342 343 344 345 347 349 351 351 352 353 355 356 357 359 359 360 359
298 292 294 296 296 297 298 298 300 300 303 300 302 304 307 310 313 317 319 320 320 323 328 332 335 338 341 342 344 345 345 348 349 351 351 352 355 357 357 358 358 359 360 359
296 291 294 292 296 297 296 299 300 300 301 301 302 303 311 314 316 316 318 319 321 322 326 332 336 339 341 341 343 344 345 347 350 351 350 353 355 357 357 357 358 359 359 360
292 292 291 289 294 295 293 298 300 301 303 303 299 306 311 310 312 316 319 321 321 323 328 332 335 339 343 341 343 343 345 349 350 351 352 354 355 355 356 357 358 358 358 360
291 291 294 289 292 286 299 305 306 303 304 306 305 307 310 312 316 318 321 321 322 324 325 328 330 335 340 340 339 345 346 349 350 351 353 355 355 355 356 356 356 357 357 357
294 292 289 286 289 293 296 301 307 306 304 311 308 309 310 312 314 317 319 321 323 326 328 328 327 331 341 342 343 345 346 348 350 350 352 354 354 355 356 355 355 356 356 356
294 293 290 289 285 285 297 303 309 312 300 313 315 314 314 315 306 311 323 320 321 322 324 326 329 330 334 341 340 344 345 348 348 350 352 355 356 355 355 356 356 358 357 356
287 287 285 286 286 292 301 308 315 301 303 316 318 319 319 316 315 322 323 322 324 326 327 329 329 331 339 339 343 345 346 346 349 353 355 356 357 357 356 358 359 359 358 358
289 287 286 287 285 283 302 309 304 311 316 318 320 322 320 322 325 326 327 326 322 325 325 325 328 331 335 340 343 344 347 350 354 355 353 357 359 355 355 358 354 359 355 350
288 292 291 291 290 300 304 306 315 317 316 318 320 324 324 322 325 330 330 327 327 338 336 326 330 337 341 344 344 347 352 351 351 351 354 356 357 357 360 359 358 355 356 351
294 298 294 295 298 301 304 308 312 317 318 320 324 325 324 324 329 333 331 332 343 346 341 340 348 346 346 348 348 349 349 353 355 353 354 356 355 356 358 357 357 355 355 356
294 296 294 294 296 299 304 307 312 317 320 322 325 323 322 330 334 329 335 342 341 341 342 345 346 346 348 352 354 356 352 352 350 350 351 352 353 352 345 335 341 359 363 352
294 293 291 290 299 300 302 307 312 314 319 323 323 320 325 334 335 337 338 339 340 340 342 342 342 342 345 350 352 350 355 355 352 348 346 339 337 337 333 330 324 308 309 310

GFSCGP_sfc_thetae_048.txt.gz
Theta_e
316 311 306 309 312 312 313 312 312 317 321 319 319 320 322 327 333 334 336 337 337 337 340 343 345 346 347 349 351 353 354 361 358 355 352 350 347 350 351 356 363 366 367 368
308 306 311 312 310 310 310 309 310 316 317 315 317 317 321 324 331 334 336 337 338 339 339 341 344 345 346 349 352 355 357 360 361 356 355 352 351 349 352 357 363 366 366 369
306 307 311 309 309 308 309 308 309 311 315 316 315 313 317 323 328 333 336 339 340 339 338 340 342 344 346 347 351 354 360 362 362 362 356 354 352 353 352 356 358 364 366 367
308 310 308 308 306 308 305 311 310 309 309 307 316 307 317 320 324 329 333 336 338 340 341 340 341 344 344 347 351 356 360 362 363 362 359 361 347 345 349 355 357 358 364 365
306 307 306 305 306 309 306 311 309 309 308 308 310 307 312 320 319 325 331 335 338 340 341 340 340 342 346 348 350 354 360 364 365 364 364 357 356 347 352 355 366 370 369 366
307 311 310 309 310 309 310 308 308 308 307 301 307 308 309 314 319 323 329 334 337 339 341 343 342 343 345 349 351 354 360 367 366 364 362 366 364 358 353 358 356 357 358 359
305 306 310 311 307 310 308 305 299 297 298 298 309 307 310 316 320 324 326 330 336 340 340 342 344 342 344 346 349 353 362 365 366 363 363 363 364 365 365 362 357 361 354 354
301 298 306 311 308 307 306 305 300 295 297 300 308 303 309 319 321 322 327 329 336 339 341 342 344 345 345 346 353 356 361 363 362 362 366 368 369 358 358 363 357 356 355 355
303 303 309 310 311 311 306 303 308 303 304 301 305 309 314 317 318 320 322 325 328 334 340 342 344 346 347 349 353 359 362 365 365 362 368 368 367 367 360 367 369 360 367 358
308 303 309 309 311 311 309 310 301 303 296 295 301 303 305 312 314 319 320 322 327 330 336 341 344 346 348 350 352 357 362 365 365 364 365 363 366 368 368 369 368 369 368 368
308 306 307 308 305 305 306 305 306 306 303 298 297 302 313 313 316 317 320 323 326 329 334 340 343 345 348 350 350 353 357 361 361 363 365 366 365 364 366 365 369 370 371 372
309 307 304 304 310 311 309 307 307 301 300 303 302 304 313 314 316 319 320 323 326 330 332 338 341 344 345 347 349 350 352 354 357 362 365 365 367 367 365 366 368 370 370 373
307 303 300 303 307 309 306 308 308 307 307 304 299 304 316 316 316 318 320 323 326 328 331 334 335 338 341 345 352 349 350 352 354 360 358 362 365 365 366 368 368 369 370 371
304 305 304 301 304 307 304 306 307 306 303 304 304 307 311 312 314 317 319 321 323 327 330 333 334 336 338 344 354 356 351 351 353 355 356 361 364 365 366 367 368 368 370 370
302 301 302 306 303 302 306 305 306 305 307 303 307 308 312 314 315 318 320 321 322 325 327 331 336 338 342 345 353 357 355 356 355 358 358 360 365 367 368 368 369 370 370 370
301 298 300 300 302 301 300 304 305 306 307 308 308 308 316 317 319 318 319 320 320 322 323 327 334 338 343 345 348 352 355 354 357 360 359 363 365 368 367 368 369 369 369 370
296 297 296 296 302 301 298 303 305 306 308 308 305 311 315 315 316 317 319 321 321 323 325 327 332 338 342 346 349 351 355 355 357 359 362 364 365 366 367 366 368 368 368 368
295 296 296 295 299 290 304 311 309 307 308 310 310 312 314 316 318 320 322 321 322 323 325 329 329 332 340 343 343 351 351 357 358 359 361 364 365 365 366 367 367 368 368 367
298 296 294 292 293 299 303 304 304 305 307 312 311 313 315 316 317 317 320 323 324 326 327 329 329 329 333 336 341 347 350 351 353 358 360 362 364 365 365 365 366 368 365 365
297 297 294 294 290 290 301 307 310 311 302 313 316 316 317 317 310 314 322 323 325 326 327 327 329 330 331 334 338 345 349 353 356 358 360 363 365 365 365 366 366 367 366 361
292 292 289 291 290 296 304 309 315 300 308 320 321 323 324 322 323 327 330 331 332 332 331 332 332 332 338 338 343 350 349 351 358 356 357 363 367 367 368 368 368 366 364 363
292 289 289 290 289 287 304 304 304 312 318 320 321 322 323 326 329 331 333 334 334 333 334 332 333 333 337 344 347 357 356 359 362 362 358 364 367 360 358 367 363 365 365 363
290 294 294 294 293 303 305 306 309 311 312 315 319 321 322 323 326 329 334 337 337 338 337 334 337 336 341 346 351 352 362 364 360 360 363 365 366 361 364 365 363 358 362 357
295 299 295 297 300 302 305 307 310 312 312 315 319 321 321 322 325 329 336 339 339 341 337 341 338 339 346 352 354 355 356 361 360 360 359 360 361 361 362 359 359 357 356 356
297 299 296 297 301 302 304 307 308 309 315 316 319 321 323 324 326 331 337 342 341 341 349 347 347 351 353 356 357 356 356 358 355 356 357 358 358 359 360 353 351 359 364 351
298 296 294 293 301 302 303 307 310 309 309 311 313 317 323 327 328 330 340 345 344 344 347 349 350 355 360 358 353 360 359 358 358 357 356 355 356 358 358 352 342 308 305 303

GFSCGP_sfc_thetae_051.txt.gz
Theta_e
318 313 310 313 318 319 316 314 313 319 323 323 321 322 326 331 332 334 337 338 337 337 341 343 344 345 346 347 350 355 358 366 360 354 352 352 348 351 349 350 361 362 364 367
314 310 315 317 316 318 316 314 314 319 322 323 320 320 325 327 330 332 335 337 339 339 339 341 343 344 345 347 353 359 361 367 364 357 359 353 354 349 349 351 364 364 365 368
310 313 316 314 312 313 316 312 313 314 319 322 318 317 320 325 327 332 334 339 340 340 339 339 341 343 344 347 353 357 363 366 366 365 361 360 357 355 349 351 355 361 365 366
311 314 311 311 309 311 307 314 314 313 314 310 318 307 317 321 322 327 332 336 338 341 341 340 339 341 343 346 350 359 366 368 367 369 360 361 349 345 347 350 353 359 366 365
309 310 309 308 310 312 309 314 313 313 311 312 313 310 315 321 320 323 329 333 336 340 342 341 339 341 344 345 347 355 366 368 369 369 366 357 356 347 349 350 364 366 372 370
313 316 313 311 312 312 314 311 312 312 310 303 310 311 312 316 321 324 328 331 335 339 341 343 343 341 343 345 346 350 363 369 372 372 368 368 362 357 346 352 352 355 357 360
309 311 313 314 310 312 310 307 301 300 301 301 311 309 312 319 322 324 327 330 334 338 340 342 342 340 342 344 346 350 362 367 371 371 369 366 368 366 363 364 355 360 353 353
303 301 310 312 310 308 308 307 301 296 298 302 310 305 310 319 323 325 328 330 333 337 340 341 344 342 343 347 351 354 361 366 370 370 371 372 370 360 358 361 357 355 354 355
304 304 313 312 313 312 308 305 310 305 307 303 306 311 316 319 320 322 323 328 330 335 338 341 343 345 344 348 354 357 361 366 370 369 371 372 371 369 361 364 368 358 368 356
309 305 311 312 313 313 311 313 303 305 300 299 304 307 308 314 317 321 322 324 329 334 338 340 342 345 348 347 353 358 361 367 368 369 370 370 371 372 369 368 369 367 367 371
311 309 309 313 308 307 308 308 308 307 305 300 300 305 315 316 319 319 321 324 327 331 336 339 340 345 350 350 349 355 360 363 367 369 370 371 370 371 372 368 370 370 375 375
311 309 305 308 312 314 312 309 310 304 303 305 305 306 316 317 318 320 321 324 327 330 332 336 340 344 346 349 349 351 354 357 365 367 369 369 371 371 370 371 370 374 372 376
310 306 302 306 310 312 309 311 311 310 309 306 302 306 319 318 319 320 321 323 327 330 332 334 336 342 345 347 354 354 356 354 357 364 365 368 369 370 369 370 373 373 374 374
307 306 306 303 308 310 306 308 310 309 306 306 307 309 313 316 317 319 322 324 326 329 332 334 336 340 345 349 355 357 354 353 356 359 362 365 368 370 369 371 373 373 374 374
306 303 307 309 310 310 309 308 309 307 309 306 309 310 314 316 317 320 322 324 324 325 327 331 333 336 340 347 354 359 356 359 356 361 362 364 369 372 372 372 371 374 374 374
306 301 306 306 309 308 305 309 309 309 309 310 310 311 319 320 320 319 320 321 321 324 327 329 333 336 339 341 347 355 361 358 362 362 362 367 369 372 372 372 372 373 373 373
300 301 303 300 307 306 302 307 309 310 312 311 307 313 318 318 319 319 320 322 322 324 326 327 329 333 339 339 349 352 359 363 362 360 366 367 369 370 372 373 373 373 372 373
298 300 301 298 303 295 307 314 312 310 312 313 314 316 318 319 321 322 324 324 324 325 326 328 328 331 335 338 342 351 351 364 363 364 362 367 368 369 372 373 372 373 373 372
301 298 297 295 299 304 307 309 310 309 309 314 314 315 317 318 319 320 323 324 325 326 328 329 329 330 333 333 340 346 352 356 361 362 363 365 368 369 370 370 371 372 372 372
300 300 296 297 294 295 306 311 312 314 305 315 316 316 317 318 312 316 326 329 333 332 334 333 331 331 331 334 333 337 347 358 360 361 364 367 370 370 369 371 372 373 373 371
293 295 292 294 294 300 308 311 315 301 310 322 322 323 323 321 325 332 333 334 336 336 336 338 338 336 339 341 342 347 347 355 359 361 365 369 370 371 372 373 373 373 372 367
294 292 292 294 293 292 309 307 304 313 317 314 318 321 323 324 325 327 330 332 335 339 340 339 337 338 341 344 351 354 357 360 369 367 366 368 370 367 365 374 374 373 372 369
292 298 296 297 297 306 308 308 311 312 311 314 316 317 319 321 322 324 327 330 335 341 343 343 340 344 350 350 357 357 361 371 369 370 369 370 372 371 370 371 372 366 369 361
298 302 297 297 302 304 306 309 311 311 311 313 314 319 320 321 323 325 327 331 336 343 345 346 343 342 349 355 356 363 366 375 371 370 369 370 370 370 371 365 364 361 359 359
297 299 297 298 301 302 305 307 309 310 312 312 314 316 315 316 318 323 326 331 338 346 347 346 349 348 347 353 357 357 362 367 364 364 362 367 363 365 366 360 343 359 362 343
299 297 294 294 302 303 304 308 309 309 309 311 313 312 314 315 316 321 326 331 340 345 350 349 351 353 356 358 360 363 363 363 364 360 358 355 355 360 359 355 342 305 305 302

GFSCGP_sfc_thetae_054.txt.gz
Theta_e
318 312 310 313 316 317 316 313 313 317 321 322 320 322 323 325 325 327 333 333 333 335 340 343 344 346 347 350 353 353 357 362 359 357 355 356 351 357 359 361 364 368 371 371
314 309 314 315 316 315 315 313 312 316 322 320 319 322 323 323 327 330 332 334 335 335 337 342 344 345 345 348 351 354 356 361 361 358 358 356 358 355 354 358 364 368 367 372
310 312 315 313 312 311 314 313 313 312 320 322 320 316 322 327 332 334 334 337 337 337 336 339 342 343 345 347 351 354 357 363 362 361 361 363 362 362 355 354 356 362 367 370
312 316 313 312 311 312 307 316 316 314 315 310 320 307 320 322 323 328 332 334 336 338 339 338 340 342 343 347 351 355 358 360 361 363 357 358 349 347 349 354 356 360 365 367
311 312 312 310 311 314 310 315 316 315 311 312 313 311 313 321 319 322 328 333 334 339 339 339 339 342 344 347 350 353 358 359 362 359 362 355 354 350 355 354 358 364 367 367
314 319 315 312 314 314 314 311 312 312 310 304 309 310 312 315 320 323 326 331 335 336 340 341 341 343 343 346 349 353 357 358 361 362 359 363 355 355 348 354 354 358 360 364
311 313 315 314 309 313 311 306 300 299 301 301 310 308 313 320 323 324 326 330 334 339 340 341 341 340 342 344 346 350 357 359 361 362 361 359 364 356 356 359 353 356 356 357
303 302 312 314 311 308 308 306 301 295 297 301 309 305 310 321 324 327 329 330 332 335 340 342 343 341 342 343 347 349 355 358 361 361 364 363 362 362 354 356 356 353 358 357
304 304 314 315 314 312 307 304 309 303 305 302 305 309 315 319 320 323 323 329 331 333 338 341 344 343 342 344 346 348 353 357 360 362 364 365 362 360 361 356 360 362 361 358
308 303 310 313 315 312 310 312 302 304 297 297 302 306 308 314 318 321 321 322 329 333 337 340 343 344 343 344 347 349 353 356 361 363 364 364 366 361 360 364 357 357 364 373
308 306 306 311 309 307 307 307 307 306 304 298 298 304 317 318 319 320 321 325 327 332 335 339 342 346 345 345 346 348 349 357 360 363 365 364 365 366 363 359 362 360 363 364
310 306 302 305 313 313 311 308 309 303 302 304 304 305 317 319 322 322 323 326 327 330 335 339 343 345 346 346 346 348 350 352 360 364 365 364 366 366 365 362 362 364 364 370
305 304 299 302 309 313 309 309 309 310 308 305 301 304 319 318 319 323 322 324 330 332 338 340 340 342 346 347 348 348 351 352 357 362 364 364 365 365 365 365 363 365 365 365
307 303 303 301 305 310 307 308 309 307 305 304 306 308 313 316 317 319 325 326 328 334 335 338 340 340 345 349 350 350 351 353 355 359 363 363 364 365 366 367 367 365 365 367
305 301 306 307 309 311 308 307 308 308 309 306 308 310 314 318 318 321 327 329 330 333 333 340 337 340 346 350 352 353 353 354 354 356 359 362 365 367 367 367 366 367 367 365
303 300 305 304 308 309 308 309 309 309 309 309 310 311 318 321 323 322 325 325 327 328 330 334 340 345 350 349 353 354 354 356 356 357 357 362 364 365 366 366 366 367 367 367
299 299 300 298 306 307 303 309 309 310 311 311 308 315 321 319 320 322 326 325 324 325 332 333 337 346 354 353 356 356 357 358 359 358 361 362 364 364 365 367 367 366 366 367
297 298 299 298 302 295 308 315 313 311 313 314 314 316 318 320 323 325 328 326 323 326 330 333 330 336 341 340 341 356 357 364 359 360 362 364 365 364 366 366 367 367 367 366
301 297 296 295 297 304 308 311 311 309 309 315 314 317 318 319 321 322 324 325 327 332 334 335 331 331 344 340 342 354 353 357 363 360 362 361 364 365 365 365 366 367 367 367
299 300 296 297 294 294 306 312 316 315 305 321 317 316 316 317 311 322 334 333 334 336 339 340 340 339 341 343 341 355 352 358 358 360 361 364 364 364 365 365 367 368 369 367
293 294 293 294 294 300 308 311 315 303 309 318 320 321 324 320 324 328 330 331 333 336 339 344 344 341 345 351 352 361 363 356 360 362 364 364 364 365 366 368 368 368 368 367
294 292 291 294 293 293 309 308 306 314 316 314 317 317 317 321 324 324 326 329 331 336 338 343 345 346 348 351 353 358 360 365 367 368 364 364 367 362 365 367 368 369 368 366
291 297 295 297 297 307 306 307 310 312 312 313 313 314 317 320 321 323 325 329 331 335 338 346 348 351 352 356 364 361 362 372 381 368 367 366 366 367 364 367 366 366 368 365
297 300 295 297 301 303 305 307 310 311 310 312 312 313 314 316 317 317 320 323 329 333 335 346 352 349 353 356 356 366 371 375 373 374 369 369 367 366 367 366 367 366 364 363
296 298 296 296 300 303 304 306 307 308 310 310 312 312 312 315 315 315 318 321 325 332 335 346 350 352 355 361 363 363 368 368 362 370 368 368 366 365 367 349 335 358 354 340
299 296 294 294 301 302 303 307 309 308 308 310 310 310 312 314 314 314 317 320 323 332 334 343 347 351 357 362 366 369 373 371 364 364 364 362 361 364 363 340 336 305 304 301

GFSCGP_sfc_thetae_057.txt.gz
Theta_e
312 307 303 306 309 310 312 311 309 315 321 320 318 318 322 327 328 328 328 328 330 334 339 341 344 345 344 344 344 344 345 349 348 350 348 348 344 346 343 345 353 356 357 357
308 304 310 312 312 310 310 308 308 313 317 318 319 317 322 323 324 325 327 330 331 333 334 338 338 340 341 344 342 345 345 350 349 352 349 347 347 346 345 346 346 357 358 359
305 308 314 312 310 309 308 307 308 309 313 317 319 315 318 322 325 328 330 332 333 332 332 335 336 338 340 343 344 343 347 352 350 351 351 348 349 345 343 343 342 354 355 358
307 312 311 309 308 309 303 311 312 312 310 303 314 304 313 320 322 323 328 330 329 331 333 335 336 337 339 342 346 344 349 351 352 351 350 347 343 340 342 341 345 351 355 358
304 309 308 307 308 310 305 311 310 310 308 308 308 305 312 319 316 320 326 330 328 332 333 334 336 338 339 343 345 346 347 353 352 352 348 347 343 342 340 343 342 347 353 356
308 315 312 310 312 312 313 309 307 307 306 299 302 306 305 313 316 321 327 331 332 333 334 335 338 338 338 343 346 348 347 349 351 350 350 346 344 341 340 339 342 347 355 356
305 308 312 315 308 311 309 302 294 293 295 296 301 302 305 314 317 324 328 330 332 334 334 333 335 336 338 340 343 347 347 347 352 350 348 349 347 345 341 339 341 346 350 354
297 296 308 314 309 305 305 303 293 287 289 295 300 296 303 313 318 322 329 332 334 334 335 334 334 336 337 339 343 346 348 347 350 353 350 347 350 350 346 347 345 343 348 352
296 298 311 313 314 310 302 300 302 292 295 292 296 301 308 312 312 316 321 329 331 333 335 335 335 336 336 338 341 344 347 348 350 351 353 352 348 352 349 344 348 350 346 352
299 294 304 310 314 312 305 305 297 297 287 289 295 297 301 305 309 311 313 322 326 332 335 336 336 335 337 338 341 343 348 349 351 351 353 354 354 350 353 350 346 346 348 352
299 295 299 304 306 305 303 300 301 296 294 289 289 296 306 308 311 311 314 316 325 328 335 336 337 336 338 338 340 342 344 350 351 354 352 355 357 356 351 353 352 348 347 350
299 295 294 298 305 310 307 303 300 296 291 293 292 296 311 310 314 314 315 316 320 328 336 337 338 337 337 337 338 340 344 348 352 353 355 353 356 359 355 350 351 351 349 352
297 292 289 295 300 304 304 304 304 299 297 293 292 295 311 311 314 315 315 317 318 324 333 337 338 336 336 336 337 340 342 347 350 353 354 356 356 356 358 356 353 353 353 353
304 294 292 289 296 300 300 304 304 301 295 295 298 297 307 309 311 313 314 318 322 321 330 335 337 337 337 337 338 339 341 344 350 352 355 355 357 357 358 359 358 354 356 355
295 290 295 298 303 304 304 305 304 301 301 298 299 301 306 308 312 316 319 321 322 324 329 332 335 338 339 338 338 340 341 343 345 353 354 355 357 359 359 358 360 359 355 358
294 289 295 297 303 304 304 307 306 305 304 303 302 302 311 314 314 316 318 319 318 322 324 326 329 336 338 340 340 341 341 344 346 345 353 355 358 358 359 359 359 360 359 356
290 290 290 291 301 301 297 304 306 305 307 305 301 304 312 311 316 316 317 318 319 322 322 321 325 328 337 341 343 343 344 345 346 347 348 353 356 357 358 360 360 359 359 360
290 290 291 290 297 289 301 311 311 307 308 309 307 311 314 314 317 318 316 315 317 319 319 321 320 322 328 338 347 347 347 348 347 347 349 350 355 357 358 358 358 359 360 359
295 292 288 288 293 298 305 306 305 304 308 313 315 317 317 322 323 323 328 328 328 329 331 330 331 332 333 333 332 348 347 349 350 350 350 352 355 356 357 357 358 360 359 359
295 295 290 292 289 291 297 304 309 310 301 313 313 316 317 321 313 316 324 327 329 332 334 337 337 333 332 335 338 341 346 350 348 349 353 357 356 357 356 358 358 361 361 359
289 291 288 290 290 296 300 304 313 300 301 310 310 311 315 314 316 318 324 326 331 330 332 338 340 339 337 337 336 337 334 341 350 352 353 355 357 357 359 359 360 360 361 361
289 288 289 290 290 288 303 303 297 304 310 308 309 309 313 314 315 316 317 320 326 327 329 331 336 341 346 341 337 332 340 340 344 354 354 353 354 357 360 360 360 361 361 360
287 291 288 291 288 299 302 302 305 305 304 308 307 308 310 312 311 313 313 314 317 324 326 329 332 342 347 348 340 339 340 346 351 355 353 354 355 356 353 359 359 359 360 360
293 297 291 291 296 298 300 303 303 304 303 306 306 307 308 308 311 310 311 312 313 316 323 328 326 335 340 347 350 349 341 351 353 350 356 355 354 355 353 358 360 360 360 360
293 293 290 290 294 295 299 300 301 303 305 306 307 307 306 306 309 309 309 310 311 313 321 326 325 328 337 343 354 358 352 350 346 346 358 357 357 353 354 327 322 351 344 342
293 291 288 287 293 292 293 298 301 300 301 303 305 306 308 308 308 310 308 310 311 310 313 325 327 333 338 342 350 355 357 358 356 347 351 356 355 356 344 327 322 303 302 300

GFSCGP_sfc_thetae_060.txt.gz
Theta_e
304 298 295 297 299 301 306 305 305 310 321 322 319 317 321 324 326 330 331 332 332 333 337 339 340 341 341 341 343 342 342 343 345 343 344 342 340 343 343 342 347 350 352 355
303 299 303 306 306 305 305 304 306 311 315 317 319 318 322 322 322 328 331 332 333 334 335 337 339 340 340 339 342 342 343 343 345 345 344 345 343 342 344 341 348 351 352 354
301 305 311 309 306 305 304 303 305 305 311 319 317 315 316 320 326 328 330 331 333 334 334 336 337 339 340 339 340 340 344 344 345 346 344 344 345 341 341 340 339 350 354 356
301 308 308 307 306 306 300 309 309 308 306 302 316 302 313 318 320 323 324 327 329 331 336 336 337 339 340 340 342 341 345 345 346 348 345 344 344 343 340 338 340 345 353 354
299 304 306 305 307 309 304 310 308 307 302 300 308 305 309 318 315 318 322 326 329 332 333 335 337 340 342 342 341 343 346 346 346 349 347 344 341 341 339 339 339 340 349 353
302 307 308 308 311 311 311 305 304 301 298 293 300 304 303 311 315 318 321 325 329 332 333 335 336 339 339 342 342 341 344 347 347 348 347 345 343 339 338 336 338 338 345 349
297 301 306 309 305 309 307 297 292 289 291 291 299 298 304 317 320 321 321 323 328 332 331 333 334 335 337 340 341 340 343 345 348 347 347 346 345 342 340 338 337 338 346 348
291 291 301 308 306 303 302 301 293 287 286 293 297 295 303 315 324 324 325 325 327 332 331 331 334 335 336 338 341 342 340 343 346 348 347 346 344 345 343 339 339 338 346 351
288 292 305 308 309 309 301 298 303 291 289 289 293 299 304 307 311 316 323 326 326 331 332 332 334 336 336 339 341 342 341 341 346 347 348 347 348 346 344 342 340 341 343 351
292 286 299 303 307 310 307 303 294 290 290 286 290 293 299 302 305 307 320 324 327 332 333 334 334 336 337 339 341 343 343 342 343 348 347 346 345 349 351 344 341 345 344 346
293 289 293 299 298 299 304 302 295 296 290 290 286 293 301 303 306 307 314 326 329 332 333 334 334 336 337 338 340 342 344 343 343 345 348 348 347 345 347 349 344 343 343 346
296 292 286 292 301 303 305 301 299 294 289 289 290 295 305 307 308 309 310 324 331 333 334 335 335 335 336 336 338 341 343 344 345 346 346 348 349 349 346 345 351 347 343 343
296 292 286 290 294 299 297 299 296 293 293 290 291 295 304 304 307 310 312 313 328 332 334 335 335 334 335 336 337 339 342 345 346 347 347 348 350 351 351 348 347 350 348 346
299 291 289 284 288 294 293 297 300 296 292 291 295 298 300 304 306 311 310 313 323 331 333 334 334 334 335 335 336 338 340 345 347 349 349 348 348 352 355 354 351 348 351 349
295 286 287 289 292 295 296 297 301 297 298 295 297 296 300 302 306 311 311 314 319 328 332 334 334 333 334 335 335 337 339 342 346 348 349 349 351 351 353 356 355 352 349 350
292 286 287 284 293 297 297 302 303 303 301 298 298 298 305 306 310 312 314 318 319 328 332 334 335 334 334 334 335 336 338 340 345 346 348 349 351 353 353 354 355 356 353 351
288 286 284 282 295 297 295 298 303 303 302 300 298 301 307 308 312 315 314 317 317 320 327 334 335 335 335 335 336 335 338 340 343 345 347 349 351 352 354 355 355 355 355 354
288 287 284 283 292 289 298 303 303 306 305 306 307 312 312 318 321 322 325 324 324 324 325 325 326 327 336 338 337 338 338 339 340 341 347 350 351 353 354 355 355 355 356 356
293 289 284 282 289 297 298 299 299 297 301 305 307 316 319 319 320 319 325 328 329 331 332 328 328 328 331 333 337 339 338 339 340 340 342 348 352 353 354 354 355 356 356 356
292 292 286 285 286 289 292 300 306 308 296 306 306 309 312 315 308 310 320 325 325 328 333 337 340 342 335 331 335 341 341 341 340 341 343 346 349 353 354 355 355 357 357 357
286 287 285 287 288 294 296 301 305 294 296 305 307 307 307 305 308 310 314 315 324 325 326 334 340 343 343 338 330 332 339 342 344 345 346 348 349 349 353 355 356 356 357 356
287 287 286 286 286 287 298 299 294 297 301 302 304 304 306 307 308 309 310 311 313 317 324 324 329 337 341 344 345 337 335 337 341 349 348 351 351 352 354 354 355 356 355 356
286 289 287 287 288 295 296 299 304 303 300 301 301 303 303 306 306 308 308 308 310 312 324 324 320 324 335 339 346 347 352 337 340 345 347 349 351 354 355 354 353 354 355 355
291 294 288 288 292 292 294 298 303 300 299 301 301 302 304 303 306 306 307 308 309 310 313 324 323 323 328 336 342 348 353 350 344 341 344 348 348 348 348 356 356 356 356 355
290 292 289 288 290 293 296 297 298 298 301 301 302 301 302 304 305 306 306 307 307 308 309 317 322 321 322 333 337 344 351 352 351 346 343 347 349 345 348 340 338 353 354 347
291 289 288 287 293 293 294 297 300 298 299 300 301 301 301 304 304 306 306 307 307 308 309 310 321 322 324 331 335 340 348 348 346 346 348 346 349 347 342 328 319 303 302 301

GFSCGP_sfc_thetae_063.txt.gz
Theta_e
299 293 292 295 296 298 301 302 301 306 314 319 318 317 322 329 328 327 328 329 331 332 336 338 339 340 337 337 337 338 338 342 342 341 340 339 339 341 342 342 346 346 351 351
297 293 298 300 299 298 297 297 299 306 319 317 318 316 320 327 328 329 329 329 331 332 334 336 337 339 338 338 338 338 339 341 343 343 343 341 339 340 342 341 343 347 349 352
298 300 304 302 299 298 297 297 299 302 315 319 317 315 317 322 325 330 332 332 332 332 332 335 336 337 339 337 340 339 339 340 343 343 341 342 341 339 339 338 338 347 350 352
299 306 304 302 301 302 295 304 305 305 304 302 315 299 311 317 319 320 325 331 332 333 334 334 336 336 337 338 341 341 340 340 342 342 341 340 339 337 337 337 338 344 350 351
298 300 301 302 303 307 301 307 305 304 302 300 309 302 308 316 315 317 322 328 332 334 335 334 335 337 338 339 339 341 341 341 342 344 342 341 336 338 338 337 337 337 347 350
299 306 303 304 308 308 310 304 302 299 301 295 299 304 300 309 314 318 322 326 329 333 335 336 338 338 338 340 340 340 340 342 342 344 343 341 339 337 337 337 336 335 339 348
296 298 302 305 301 306 306 295 290 288 290 291 297 297 302 313 319 320 321 324 328 330 332 334 336 336 338 339 339 340 339 340 343 343 344 342 341 339 339 337 337 335 337 342
287 289 297 303 301 299 301 300 290 284 285 292 296 292 300 312 321 323 325 325 327 329 331 332 334 337 338 339 340 339 339 340 343 343 344 344 343 341 341 340 337 337 338 343
287 289 299 301 302 303 299 297 301 290 289 287 292 296 304 308 311 320 322 323 323 326 330 332 334 336 337 339 340 339 339 341 343 343 345 345 344 343 342 339 339 338 339 345
291 285 295 298 301 303 302 301 294 290 289 285 288 291 297 301 303 316 319 321 323 325 329 332 333 334 336 338 340 341 339 341 343 345 345 345 345 344 344 341 338 337 339 342
289 288 290 295 294 294 296 298 294 296 291 291 286 293 298 302 305 306 314 321 323 325 327 332 332 334 336 337 339 340 340 339 341 344 345 345 345 345 345 342 342 342 341 340
292 288 286 289 298 300 298 295 299 293 289 288 289 295 304 304 305 306 307 314 320 327 328 332 332 333 335 335 337 339 340 340 340 343 344 344 344 344 346 347 343 342 342 343
290 290 283 287 290 294 291 294 294 294 291 290 290 295 302 302 303 306 307 310 323 326 328 331 332 333 334 335 336 338 340 341 341 341 343 344 344 343 342 343 348 347 343 342
297 287 284 283 286 289 287 290 291 290 288 297 294 294 299 300 301 303 305 308 312 326 328 331 333 333 333 335 336 338 340 342 342 342 342 342 344 345 346 344 343 346 349 346
291 285 288 288 289 290 289 289 291 290 294 290 298 295 298 299 302 303 308 311 310 316 328 331 332 333 333 334 335 337 339 341 343 342 342 342 344 346 347 348 347 345 346 348
288 285 286 285 290 290 288 291 294 296 298 298 297 296 300 308 315 317 313 311 311 321 329 331 333 333 333 334 335 336 337 340 343 342 342 344 344 345 348 350 350 349 346 345
286 287 284 280 288 288 290 295 300 300 301 299 295 299 307 315 318 319 320 321 315 323 329 331 333 333 333 334 335 335 336 339 342 343 344 345 346 346 346 349 351 352 349 348
284 287 287 280 285 283 295 300 301 300 300 302 304 311 316 317 318 318 321 321 326 323 324 329 334 334 335 335 335 336 336 337 339 342 344 346 346 347 349 348 349 350 353 352
291 288 284 281 283 291 296 296 295 296 295 298 300 305 311 319 319 314 313 321 323 330 335 332 327 329 330 333 335 334 334 336 338 340 342 345 347 346 348 350 350 351 351 353
292 292 287 285 281 289 292 297 299 301 292 299 300 298 304 311 303 304 310 313 320 322 331 339 340 333 330 329 335 333 334 335 335 338 343 345 346 347 348 349 351 353 353 353
285 287 284 284 285 291 296 296 301 293 291 299 299 298 299 301 304 307 309 310 315 323 321 327 337 339 340 336 335 334 334 335 337 337 338 340 347 348 350 351 352 353 353 354
285 285 285 286 286 287 295 296 293 296 300 299 299 298 298 302 307 306 307 307 309 313 322 322 325 332 338 344 349 344 339 336 343 343 341 342 343 347 351 351 352 353 353 352
285 287 286 286 286 294 296 295 299 301 297 297 298 300 300 301 303 305 305 306 307 308 313 323 319 321 331 337 346 346 346 338 336 343 344 344 345 346 346 348 350 351 352 351
290 293 288 287 292 292 295 298 299 300 298 300 301 301 301 300 303 304 304 305 305 307 308 319 321 318 321 331 337 343 347 347 346 343 341 344 344 345 347 350 350 350 351 351
290 291 288 289 292 293 296 297 299 300 302 302 304 303 302 302 301 302 303 305 305 306 308 309 317 319 320 325 330 335 344 345 342 342 343 343 345 343 344 345 341 350 352 345
291 290 288 286 293 293 294 298 300 300 302 302 302 303 304 304 302 304 302 304 305 304 306 306 308 316 321 323 324 328 335 340 338 337 338 339 340 344 344 337 326 304 304 303

GFSCGP_sfc_thetae_066.txt.gz
Theta_e
297 292 292 294 294 296 297 299 300 305 309 317 316 315 324 327 327 327 328 328 329 330 335 338 339 339 339 339 338 338 337 339 341 340 339 341 341 345 345 345 349 350 352 355
294 291 295 297 296 296 296 294 294 302 310 313 312 315 323 325 326 328 328 329 329 331 333 336 337 337 337 337 337 338 338 339 343 343 343 342 341 343 346 345 348 349 352 355
292 295 300 297 295 294 293 293 294 299 309 317 314 312 315 325 327 328 329 331 331 331 331 334 336 336 337 335 336 336 338 339 343 343 343 343 342 342 343 343 343 347 350 354
298 302 299 297 295 295 288 298 299 301 300 301 314 299 310 316 323 326 328 328 330 332 333 334 335 336 337 337 338 338 338 339 343 343 342 342 340 337 339 341 343 346 350 352
296 298 299 297 297 299 294 302 299 301 299 300 302 299 302 314 315 321 326 329 331 332 333 334 335 337 339 339 339 339 339 339 341 343 343 341 341 339 339 340 342 342 349 351
297 302 300 301 304 304 306 301 299 298 299 294 298 303 301 307 314 318 323 328 332 333 334 335 337 338 338 340 339 341 339 339 340 342 343 341 341 338 339 338 338 339 341 349
294 297 299 302 298 303 303 295 288 286 290 291 297 296 303 308 317 320 321 323 328 334 334 334 334 335 337 338 338 340 340 339 340 341 342 341 341 340 340 340 338 337 339 342
286 287 295 300 297 296 298 296 289 283 283 291 294 292 300 309 312 321 323 325 327 331 335 335 336 336 336 338 338 339 339 339 341 341 342 343 342 341 342 342 341 341 339 342
286 288 297 300 300 298 295 295 299 290 288 286 291 295 302 307 308 316 319 323 325 328 332 335 337 338 337 338 338 338 338 339 341 342 343 343 343 342 342 342 343 342 342 344
290 281 293 297 300 300 296 299 292 288 287 285 288 291 297 301 306 307 317 320 323 327 330 332 335 337 339 339 340 340 340 339 341 343 343 344 344 344 344 342 341 342 342 344
286 285 286 294 292 292 293 292 292 294 292 290 285 292 298 302 306 306 313 320 323 325 327 330 333 336 338 340 340 340 339 339 340 342 343 344 344 345 345 343 342 342 343 342
290 284 283 287 296 298 295 293 290 288 288 288 291 294 304 303 304 306 308 321 324 325 326 329 332 335 335 337 339 340 340 340 341 343 343 344 345 346 344 344 344 344 342 342
289 284 279 283 287 292 290 291 287 287 285 289 290 293 305 307 304 305 306 308 316 324 326 327 330 332 334 335 338 339 340 339 341 343 344 344 344 344 344 345 344 344 344 344
295 282 281 279 283 288 287 290 290 286 284 286 292 295 299 302 302 304 305 307 309 320 324 326 329 332 333 335 337 339 340 341 340 341 343 343 344 344 345 346 348 346 345 344
288 280 283 286 289 289 289 289 291 288 288 286 292 295 299 301 303 305 312 316 311 310 323 326 328 331 333 334 336 338 340 341 341 340 341 342 344 345 345 344 345 349 349 346
288 279 282 282 288 289 287 290 293 292 292 291 293 294 304 315 318 318 318 321 322 315 313 326 329 332 332 334 335 337 339 340 342 340 340 342 344 345 345 345 345 344 345 349
286 284 283 278 286 286 285 290 294 295 295 297 294 299 307 315 312 309 311 316 320 325 326 315 328 332 333 334 336 336 339 341 341 341 341 342 343 344 345 347 347 346 344 345
285 285 284 281 282 279 291 299 300 295 295 296 296 298 314 314 313 311 312 312 317 323 331 326 330 333 335 335 336 337 339 340 341 341 342 343 343 343 345 346 348 349 349 347
287 286 283 280 280 287 293 295 293 292 293 297 295 297 300 309 315 312 311 312 318 321 324 335 331 332 334 335 336 336 337 339 340 341 342 344 345 345 345 345 347 350 352 351
287 287 284 286 278 283 293 295 297 299 290 298 297 295 296 306 299 303 308 310 314 321 322 336 335 331 331 333 336 334 334 336 337 341 343 346 347 347 347 348 347 349 351 352
283 285 281 283 282 287 292 294 297 291 290 298 297 296 296 295 300 307 309 309 311 318 322 326 337 339 342 334 335 333 333 334 338 341 344 346 347 347 348 349 351 351 351 352
284 283 283 285 281 282 293 293 290 292 296 298 298 297 297 299 302 305 307 307 308 309 319 322 323 331 340 347 338 333 334 338 340 341 343 344 346 347 348 349 350 352 352 351
283 286 286 285 285 293 295 294 298 299 297 298 299 300 301 301 300 302 304 307 307 308 310 320 322 323 327 336 348 345 344 342 344 340 340 341 344 348 350 349 350 350 352 351
289 292 287 288 291 292 295 299 300 300 299 301 302 303 304 301 302 301 303 304 305 307 308 312 319 322 323 326 331 340 345 347 345 344 346 347 346 345 347 350 352 351 351 351
289 291 288 288 292 293 296 298 299 300 302 303 305 305 304 304 304 303 302 303 307 306 307 308 312 318 322 325 326 330 337 340 341 342 344 347 348 346 349 349 346 351 354 346
291 288 287 286 292 293 294 299 302 301 302 305 305 305 306 305 304 305 304 303 306 305 306 307 309 314 319 322 323 327 331 334 336 338 339 339 344 348 348 345 337 305 307 304

GFSCGP_sfc_thetae_072.txt.gz
Theta_e
308 304 301 305 307 307 306 305 305 311 322 323 323 326 331 335 335 335 337 337 337 338 343 345 346 346 344 347 349 350 350 352 351 349 347 349 350 354 356 359 362 366 366 366
304 301 307 308 307 305 305 304 305 311 319 321 322 322 329 335 334 336 337 337 337 339 341 343 345 346 344 346 349 350 351 353 354 348 350 351 353 354 356 359 363 365 365 367
303 305 308 306 304 302 304 303 305 306 314 319 320 319 321 329 335 335 338 340 339 338 339 341 344 345 346 345 348 350 353 353 354 355 351 355 357 357 356 357 358 361 364 365
306 310 306 304 302 304 301 306 304 306 307 307 318 309 319 323 329 333 335 337 338 339 341 342 343 344 346 346 349 351 353 354 353 357 357 361 351 349 349 353 355 357 363 363
304 306 306 303 304 306 303 307 305 304 305 308 313 311 316 324 324 329 334 336 338 340 340 341 343 346 348 349 348 351 353 356 358 359 360 355 356 349 351 351 360 365 364 365
308 312 310 308 309 308 307 304 304 304 302 298 307 309 312 318 324 329 334 337 339 340 341 343 344 347 348 349 348 349 353 358 357 357 355 360 361 358 351 354 352 353 355 357
305 307 310 310 306 308 306 302 297 294 294 294 306 305 311 319 327 329 332 336 339 341 343 343 343 344 347 348 349 349 357 359 358 355 355 357 359 361 359 358 353 356 350 351
298 296 306 309 307 306 305 305 298 293 294 296 303 301 308 319 322 328 330 333 338 340 342 344 345 345 346 348 349 351 357 359 357 357 360 363 364 354 355 358 354 353 351 351
297 297 305 306 310 309 306 301 308 302 304 300 301 304 313 318 320 323 325 328 332 337 340 342 345 347 347 348 351 354 358 361 361 355 362 363 364 362 356 366 361 356 360 354
297 292 302 306 307 308 307 311 301 303 295 295 300 302 303 311 317 321 323 324 328 333 338 341 344 346 348 349 350 352 356 359 358 357 358 357 360 361 362 360 361 362 359 360
298 294 296 299 302 302 304 303 306 306 303 298 297 301 312 313 317 319 322 324 326 328 332 339 343 346 349 350 351 351 352 354 355 358 360 362 358 358 359 357 359 361 362 362
298 295 291 294 304 305 304 305 305 300 301 304 303 302 315 315 317 321 322 324 326 329 333 337 342 347 348 349 350 351 352 352 354 359 362 360 361 363 357 358 359 361 362 364
299 293 289 292 296 300 300 304 305 306 306 303 300 302 317 318 318 320 320 321 323 326 331 337 339 344 347 349 352 351 352 351 352 356 355 357 358 358 361 361 361 361 362 362
299 294 291 289 292 296 295 299 301 303 300 302 303 307 312 314 316 319 323 326 326 326 328 335 339 342 348 351 355 355 351 352 351 352 353 358 361 362 360 364 365 361 364 362
298 291 294 294 294 293 293 293 295 298 301 300 304 306 311 315 317 321 326 327 327 330 331 331 337 341 345 350 355 356 352 356 354 356 353 359 364 365 366 366 365 364 363 362
298 291 292 290 293 293 291 294 295 296 299 301 303 304 314 316 319 320 325 326 327 330 332 336 338 337 341 346 351 355 356 356 358 359 357 362 365 366 365 366 365 365 363 364
295 292 290 287 292 291 288 293 295 297 300 301 299 306 313 314 318 323 323 325 327 329 333 336 338 341 341 343 349 354 357 358 359 361 361 363 365 365 366 364 366 366 365 364
293 293 291 287 290 282 294 305 304 301 300 303 306 310 312 314 322 322 322 322 323 326 330 335 338 340 343 344 345 351 353 359 361 361 362 363 364 364 365 366 366 367 365 366
297 291 289 285 286 290 292 297 296 295 299 306 306 310 311 312 317 320 320 320 322 323 326 334 339 341 345 347 346 350 351 354 357 359 361 363 364 364 364 363 365 364 364 363
296 294 289 288 283 282 292 295 298 298 292 303 306 307 307 311 311 317 316 317 318 320 324 334 341 345 349 351 347 347 350 356 358 359 360 364 364 365 364 365 366 366 363 360
289 289 286 287 285 289 297 298 299 288 292 301 303 304 306 304 311 314 315 315 315 316 317 331 342 346 352 350 348 353 352 354 358 357 357 361 363 366 366 367 367 367 364 364
286 283 285 286 284 282 299 299 291 294 298 301 302 303 305 307 309 313 314 313 314 314 315 321 334 341 353 350 351 358 356 357 361 361 358 362 364 359 358 366 364 364 365 364
286 291 289 290 290 299 299 299 301 301 298 299 300 303 305 306 307 311 312 312 312 316 315 317 324 338 346 355 352 352 358 361 359 360 361 361 361 360 364 364 362 359 362 358
290 289 289 291 297 298 296 302 302 301 300 302 304 305 307 307 307 309 310 310 311 314 315 318 318 324 330 341 349 353 355 358 358 357 358 359 359 358 360 359 360 358 357 356
290 290 289 291 296 294 297 299 300 301 303 302 304 305 306 308 308 308 309 310 311 313 317 318 318 319 320 327 333 342 353 357 354 356 356 357 357 358 359 360 358 357 363 353
290 288 287 287 292 293 294 298 300 299 301 303 303 304 306 307 309 309 309 310 311 312 317 318 320 320 320 323 327 331 338 351 357 355 353 352 352 355 355 355 356 316 317 312

GFSCGP_sfc_thetae_075.txt.gz
Theta_e
315 308 305 309 311 309 309 307 306 312 322 322 322 324 329 336 336 337 338 339 338 340 344 345 346 346 344 345 348 350 354 363 356 352 350 352 349 355 354 355 362 364 364 364
309 304 310 311 311 309 308 306 307 310 315 322 321 320 331 334 335 337 338 339 338 340 341 344 345 345 345 345 348 354 357 362 357 352 355 354 356 352 354 355 362 364 363 366
307 308 311 309 308 306 307 306 306 307 313 318 320 318 325 331 336 338 339 341 340 340 341 343 344 345 345 344 348 353 359 361 360 359 356 356 358 358 352 357 357 361 362 363
308 312 308 307 306 308 304 309 308 307 307 307 318 309 319 330 329 333 336 339 339 338 343 343 345 345 345 344 348 355 357 362 360 363 355 361 351 348 350 354 354 359 362 362
305 308 307 306 307 309 306 310 307 307 306 308 311 309 315 324 323 330 334 337 340 340 341 342 344 346 347 346 346 350 359 361 361 361 361 355 357 350 350 350 366 373 370 363
309 312 310 310 311 311 311 308 307 307 305 298 306 309 311 315 322 327 334 336 339 341 341 343 346 347 348 349 347 348 358 361 362 362 360 364 360 359 348 352 353 353 356 359
305 308 311 312 308 311 310 306 298 296 297 296 305 305 314 320 325 326 332 335 338 341 342 342 344 345 347 348 349 350 358 361 362 361 359 362 366 366 366 362 351 354 349 350
299 298 307 312 309 307 307 306 299 294 295 298 305 301 308 321 327 328 333 335 339 340 342 343 345 346 347 349 354 355 358 360 362 360 360 361 366 353 352 362 353 350 349 351
298 299 309 311 312 311 307 303 309 303 305 301 303 305 311 316 320 326 326 333 335 340 342 344 345 346 347 351 356 357 359 361 362 360 361 362 363 361 355 366 368 357 365 353
301 296 306 308 311 311 308 312 302 303 297 296 303 304 303 310 315 321 324 329 333 339 340 342 345 347 348 349 352 358 360 362 363 360 363 361 362 364 365 368 370 366 367 366
301 298 299 304 304 304 305 304 307 307 304 299 298 304 314 312 317 319 322 327 330 333 337 340 343 347 349 350 350 352 357 361 362 361 362 362 362 361 364 362 367 367 369 370
302 298 295 298 304 307 306 306 306 302 302 304 304 305 317 317 317 320 323 326 329 331 334 337 341 345 348 349 350 351 352 353 358 361 362 362 364 364 363 363 363 368 368 371
302 296 292 294 298 302 302 305 307 307 308 305 301 304 319 318 318 321 322 325 327 329 331 333 338 343 346 349 353 352 352 352 354 359 359 362 364 364 364 365 365 366 368 370
301 297 294 292 295 299 298 300 305 306 301 303 305 307 314 316 318 323 326 329 330 331 330 334 337 341 347 351 357 358 354 353 354 354 356 360 364 365 364 366 367 368 370 370
299 293 296 297 298 298 297 298 301 303 305 301 305 308 313 316 318 324 327 328 328 329 333 332 336 339 346 350 359 359 356 359 357 359 357 360 366 367 367 366 368 369 370 370
298 293 295 293 297 297 295 297 298 299 301 302 306 306 315 315 320 321 322 327 328 330 333 336 338 340 343 348 352 359 359 360 361 361 358 362 366 368 367 367 368 369 370 370
296 295 292 289 294 295 291 296 297 298 301 301 300 308 315 314 316 322 327 326 327 329 332 336 339 342 344 343 351 355 361 360 361 364 362 363 366 367 368 368 369 369 370 370
294 294 293 289 292 283 296 302 303 301 301 303 304 307 311 315 319 321 327 324 324 327 329 331 336 341 344 344 344 352 355 363 363 363 365 364 366 367 369 370 369 371 370 370
298 294 290 286 287 292 294 300 300 299 300 309 305 307 311 315 316 318 323 325 323 325 328 330 333 339 345 347 348 349 355 359 362 363 365 365 366 367 369 368 369 371 370 371
298 298 292 289 285 283 294 300 303 304 295 308 309 308 308 311 308 315 320 321 322 324 327 329 333 341 344 348 351 349 348 358 361 362 365 368 368 368 369 370 370 371 371 370
292 293 290 289 287 291 299 302 302 292 295 305 304 305 306 304 309 314 319 320 321 323 323 328 332 339 348 352 357 356 353 355 362 362 366 370 370 371 372 373 373 373 370 366
289 289 289 290 286 284 301 301 295 302 306 304 304 303 303 306 310 311 316 319 319 320 321 326 326 333 340 354 360 361 358 362 368 367 366 368 371 366 366 372 372 372 372 370
288 289 287 292 292 299 304 302 305 306 303 303 304 306 306 307 309 312 313 317 317 317 318 321 323 328 328 338 354 356 368 369 368 368 367 368 369 368 369 370 370 365 370 360
293 295 289 292 297 300 301 304 304 303 303 303 305 306 305 306 310 310 311 315 316 315 315 318 321 324 324 330 333 341 345 362 365 367 367 367 366 366 367 364 363 360 358 358
291 291 290 291 296 296 300 298 299 300 302 303 304 306 305 306 307 311 311 313 314 312 315 319 320 320 322 325 325 328 331 335 359 359 360 363 361 361 363 363 360 359 363 351
291 287 287 286 291 290 293 298 299 299 300 302 303 305 307 307 307 309 311 312 312 312 316 318 321 321 321 322 321 324 328 327 344 355 356 356 357 359 359 358 355 316 323 313

GFSCGP_sfc_thetae_078.txt.gz
Theta_e
317 310 305 309 309 310 308 306 305 309 315 315 315 321 323 324 324 327 333 335 337 337 342 344 345 346 344 345 349 354 355 358 357 355 353 356 355 361 356 358 367 369 367 368
311 306 311 311 311 309 309 305 305 309 312 314 319 321 322 322 321 325 330 335 336 339 339 343 345 345 344 344 349 352 355 358 356 357 357 360 360 359 365 365 367 366 369 369
305 309 312 310 308 307 307 305 305 306 310 313 316 319 318 322 327 332 335 338 338 339 338 341 343 344 344 344 349 350 357 358 357 361 358 362 362 362 361 361 361 366 368 369
309 312 310 307 306 308 303 309 308 307 306 302 311 302 321 324 327 332 334 332 336 337 342 341 341 344 344 345 350 352 357 358 356 362 356 360 353 353 357 348 360 363 368 367
305 308 307 306 307 309 306 310 308 306 305 305 306 306 312 328 323 322 325 331 335 335 341 341 343 344 345 347 348 352 354 359 355 356 361 356 356 353 361 359 360 363 371 371
308 313 310 309 311 311 311 308 308 307 304 297 303 304 308 321 319 317 326 334 335 336 338 342 346 346 346 347 347 352 353 356 356 355 357 359 355 360 357 360 356 359 360 366
303 305 311 311 306 310 309 305 297 296 296 295 304 302 308 319 329 325 324 334 337 337 338 341 343 344 346 346 346 349 352 352 354 355 353 360 356 357 364 360 357 353 356 356
297 296 304 311 308 305 306 305 298 293 294 297 304 300 304 315 320 334 337 335 339 340 337 341 344 346 347 348 347 348 352 352 354 356 351 355 362 354 356 363 354 359 353 355
296 296 306 309 311 310 306 303 308 302 303 299 302 306 310 314 317 326 328 332 334 332 341 342 345 346 348 349 350 348 352 353 355 353 355 352 360 361 353 364 369 356 363 362
299 294 302 306 310 310 307 310 301 303 295 295 300 304 304 310 313 323 327 326 330 331 336 343 343 346 349 350 352 352 354 355 356 354 355 353 352 358 359 354 365 364 370 370
301 297 297 302 302 304 305 304 305 305 303 296 296 301 314 313 315 316 327 328 329 333 336 339 345 347 349 351 351 353 353 355 357 357 355 354 354 354 354 358 359 362 364 370
301 297 293 297 304 307 307 305 305 300 300 303 303 303 318 317 315 317 320 329 330 332 336 334 342 347 348 349 351 353 354 355 357 359 357 354 355 354 353 351 362 363 367 372
300 296 291 293 298 302 300 302 304 304 305 302 299 302 317 319 318 318 319 323 331 334 334 335 339 344 345 349 350 352 353 354 357 360 357 356 356 356 354 352 357 363 360 364
300 295 293 290 295 298 297 299 302 302 300 301 303 306 313 316 318 325 328 331 330 335 336 338 336 343 343 350 351 352 352 354 355 358 358 356 356 357 356 358 355 357 363 362
298 291 294 295 297 297 297 298 299 298 302 300 303 307 307 312 317 318 328 329 329 331 336 338 340 340 340 351 353 355 354 354 355 355 356 357 359 359 360 360 361 359 359 361
299 292 294 292 296 296 295 298 299 299 301 304 305 305 313 315 316 321 325 328 329 331 333 337 340 343 342 346 354 355 356 355 356 355 355 358 360 360 360 360 361 361 360 362
295 294 292 288 294 294 290 296 298 299 301 302 299 305 311 313 315 315 322 324 324 327 329 331 333 337 344 342 348 357 358 359 359 359 358 358 360 360 360 362 361 361 361 362
294 293 293 287 290 283 295 302 302 299 301 302 303 305 307 310 315 318 322 323 323 323 325 327 329 332 337 342 346 350 361 359 361 359 361 360 359 360 362 361 361 361 362 362
299 294 291 286 285 290 294 300 300 299 299 307 307 309 309 312 314 313 318 320 321 322 325 326 330 332 336 341 345 350 351 359 357 358 361 361 359 360 361 361 361 361 361 362
299 299 292 289 284 282 294 300 304 302 295 306 306 305 306 310 303 306 315 319 321 322 324 324 329 332 337 344 348 352 354 352 359 357 361 365 362 361 361 363 362 363 364 362
292 290 289 290 287 290 299 301 304 289 294 306 306 306 305 304 307 311 314 317 320 321 321 323 328 328 331 334 340 345 359 359 356 363 361 364 366 362 364 365 365 365 364 364
289 288 288 290 287 284 302 301 294 301 304 305 305 306 305 307 308 310 313 315 317 319 318 321 323 326 330 331 332 335 344 343 365 366 363 364 365 364 364 365 366 366 365 364
288 290 286 289 291 299 301 300 302 305 304 305 305 305 306 305 307 310 312 314 315 318 317 319 321 325 329 328 327 326 332 337 342 364 364 363 366 366 364 364 364 364 365 363
294 296 290 290 294 295 297 301 302 301 301 303 305 305 306 305 306 308 312 313 314 317 316 318 320 321 323 325 322 324 328 334 338 365 366 365 365 364 365 364 364 364 363 362
295 294 291 290 295 293 297 296 299 299 301 302 303 305 305 305 306 307 310 312 314 315 316 318 319 321 321 323 321 322 327 331 335 356 365 365 364 362 364 362 364 364 365 360
294 290 287 288 292 290 291 296 297 297 298 299 300 301 304 306 307 308 310 313 314 314 316 317 320 322 320 322 320 320 322 324 326 338 344 358 359 360 360 360 358 316 327 318

GFSCGP_sfc_thetae_081.txt.gz
Theta_e
310 303 300 303 305 305 305 303 300 303 307 308 311 324 328 331 326 330 333 333 332 333 336 339 338 339 340 343 342 343 345 346 351 347 346 346 345 348 345 352 353 357 358 355
306 302 308 311 309 306 303 301 301 304 307 305 318 321 324 326 323 329 326 326 331 334 335 340 338 337 339 340 344 343 347 347 349 347 347 346 345 349 349 353 358 357 357 356
300 306 312 309 306 303 302 299 300 300 305 304 315 315 314 321 324 325 331 331 330 333 334 337 337 336 338 338 342 346 348 347 349 346 347 348 349 346 350 348 353 353 358 357
304 309 307 305 305 305 295 305 305 303 299 293 302 299 313 317 320 324 328 330 331 332 336 337 336 336 335 340 343 348 349 348 347 349 343 343 344 342 347 351 351 354 355 356
300 304 304 304 305 306 301 307 304 302 298 293 298 292 310 317 317 321 325 322 329 332 336 336 336 338 337 342 341 347 350 348 347 349 344 344 343 344 347 344 348 351 354 357
302 308 306 304 308 307 308 303 301 299 295 288 294 293 303 313 316 318 328 328 332 335 337 337 338 339 339 342 342 343 349 346 345 346 349 344 342 344 348 346 348 351 354 356
298 300 305 307 301 305 303 297 289 287 288 288 294 293 296 321 324 323 327 331 331 334 337 337 336 337 338 339 343 342 347 346 345 344 345 350 344 344 347 348 351 348 348 349
288 289 298 305 302 298 298 295 290 284 286 290 296 290 297 309 329 327 328 329 327 333 337 337 338 338 339 339 342 344 343 347 345 343 343 346 348 345 347 351 348 349 349 349
290 291 301 302 303 303 298 295 300 292 295 292 295 298 303 306 309 325 322 326 329 335 333 337 339 339 340 340 340 344 343 344 346 346 342 344 351 344 345 347 349 348 348 350
293 287 296 300 302 303 298 302 293 293 286 286 293 295 296 300 304 322 326 327 332 336 335 337 336 340 341 342 341 344 345 344 347 347 345 343 346 351 348 346 352 349 345 349
295 290 292 297 294 294 297 297 296 296 294 290 287 293 303 310 307 316 324 328 332 333 336 338 339 338 334 343 343 342 346 345 346 345 348 343 343 350 349 347 343 352 350 356
295 289 286 291 299 301 298 296 297 293 291 294 293 296 311 313 317 314 323 327 329 332 333 334 336 335 334 333 344 342 347 346 347 347 347 347 343 346 349 346 346 352 349 352
293 288 283 287 291 296 294 297 297 298 294 291 291 295 312 314 313 318 323 326 329 329 329 330 332 334 333 333 344 345 345 347 349 349 347 347 346 342 345 346 344 349 355 356
297 286 284 282 287 292 291 294 296 295 291 293 295 298 307 310 312 317 320 325 328 328 328 328 331 330 333 337 343 345 345 349 350 350 349 347 346 347 344 344 343 348 352 352
292 284 287 290 292 293 292 293 294 293 295 291 294 298 304 310 315 316 319 323 325 328 330 332 334 334 336 340 341 345 347 348 351 351 350 349 348 348 349 346 346 341 353 352
294 286 289 288 293 293 291 293 295 295 296 295 296 301 308 313 315 314 315 318 318 320 323 324 329 335 338 341 342 343 346 348 351 351 351 351 351 350 349 350 349 346 343 351
289 289 285 281 290 290 286 291 293 295 297 297 293 302 308 310 313 313 313 314 316 318 321 320 323 327 330 337 339 334 336 340 349 350 352 352 351 351 350 352 351 352 348 346
289 287 288 282 285 277 288 296 299 298 300 302 303 306 310 311 313 314 315 313 315 317 318 320 321 325 331 337 339 337 337 334 341 348 350 352 353 351 352 351 352 352 354 351
295 291 285 281 282 286 290 297 297 293 295 302 301 303 304 306 310 308 312 314 314 316 317 318 322 325 328 328 334 341 344 344 344 350 349 352 352 353 353 351 351 353 353 354
294 293 288 286 281 279 291 299 302 300 289 302 302 301 301 304 299 301 309 312 313 315 316 316 319 324 326 326 328 332 335 339 337 344 354 354 353 353 353 354 353 355 355 353
286 288 284 284 283 288 295 300 302 286 290 300 301 302 300 298 301 305 309 311 313 315 316 316 318 319 323 325 323 323 327 327 331 334 337 357 355 353 355 355 356 355 355 355
286 283 282 285 284 282 296 298 292 296 299 300 301 301 300 301 303 305 307 309 312 313 315 314 315 317 322 324 320 318 320 323 326 329 332 353 357 355 356 356 357 356 355 354
287 287 283 285 287 295 295 293 297 299 298 298 298 299 300 300 301 303 305 307 310 313 313 314 314 316 319 321 320 316 319 323 324 326 331 349 357 356 355 356 356 356 356 355
293 293 286 287 291 292 293 294 296 297 296 297 298 299 300 299 301 301 304 306 308 311 312 313 313 314 316 318 320 317 320 323 324 325 329 353 356 356 356 358 358 358 357 355
291 290 288 287 291 291 294 294 295 296 297 298 299 299 298 299 299 301 303 305 308 309 313 313 313 314 316 317 317 316 318 322 322 324 328 340 354 353 357 357 358 358 359 356
293 288 285 284 290 291 291 295 296 295 295 296 296 296 298 300 298 300 301 305 309 309 311 312 313 316 315 315 314 314 315 319 320 321 325 324 333 343 355 354 350 318 325 321

GFSCGP_sfc_thetae_084.txt.gz
Theta_e
307 301 298 303 303 303 301 299 298 303 306 302 318 323 326 326 332 328 331 332 332 334 334 335 335 338 342 342 340 343 342 341 346 343 341 344 341 345 346 347 351 354 353 354
303 298 306 308 307 304 302 299 298 301 305 300 320 321 327 327 330 326 326 331 332 333 334 334 335 338 340 339 340 342 343 341 345 344 343 343 344 346 345 349 350 354 355 352
300 305 311 309 305 303 299 296 298 298 302 317 319 317 322 328 330 331 331 334 334 333 333 332 334 335 340 339 339 342 343 344 345 344 344 344 345 345 345 346 351 353 355 353
301 307 305 306 303 303 294 303 303 301 296 291 307 294 312 319 319 324 331 331 332 332 334 335 333 333 337 340 341 344 344 345 345 343 342 341 341 338 345 345 349 350 355 353
297 302 302 301 303 305 301 305 301 300 295 292 293 292 303 315 314 317 323 329 331 334 335 334 334 334 337 340 341 345 344 345 346 344 342 341 339 340 345 346 347 349 351 352
299 304 303 301 305 305 306 300 298 294 292 287 291 291 295 311 315 318 321 328 331 333 335 336 337 335 336 339 342 345 343 344 346 344 340 340 339 340 342 341 344 347 348 351
295 297 299 303 298 302 300 293 287 286 286 286 290 290 293 315 319 321 321 324 329 333 334 335 335 334 334 336 339 345 343 342 344 346 343 340 341 340 343 341 344 345 347 349
287 287 295 300 295 294 294 293 288 283 284 287 292 288 295 305 322 324 326 328 325 328 332 335 337 336 334 337 337 343 344 341 342 344 344 345 341 341 344 345 346 348 348 348
286 288 298 300 300 297 296 290 295 289 289 287 290 296 302 313 313 320 323 327 328 333 334 335 337 337 336 337 338 339 344 342 342 342 342 342 346 341 342 346 347 348 348 347
290 285 292 298 299 298 293 296 291 289 284 283 289 291 293 306 311 316 321 325 330 330 334 336 337 337 338 338 340 340 342 344 343 342 341 341 343 346 341 344 346 345 346 346
289 287 289 294 290 290 292 290 289 291 289 285 285 290 306 308 314 314 319 323 328 330 334 337 338 339 339 339 340 341 340 342 344 344 341 340 341 344 345 343 343 349 343 346
290 285 283 288 295 297 294 290 288 285 287 289 288 291 309 313 316 317 321 324 327 332 335 337 340 339 336 336 339 341 343 341 343 345 344 340 340 342 346 346 342 344 346 352
290 283 280 283 287 291 290 293 289 289 287 287 289 291 312 314 315 317 319 325 328 329 330 330 334 336 336 335 334 339 343 344 343 345 344 343 338 339 343 347 345 341 345 347
295 282 281 278 283 287 287 291 293 287 283 285 287 291 305 311 312 315 317 320 321 324 325 326 329 333 333 336 336 337 340 345 345 345 343 343 342 338 339 346 344 345 346 347
289 282 285 286 290 291 290 291 292 289 288 284 289 292 305 309 310 313 317 318 319 319 320 322 324 334 334 337 341 342 340 344 346 344 344 343 345 344 339 339 345 342 347 349
290 284 284 284 290 290 288 290 292 292 294 296 295 298 307 311 312 312 314 317 317 317 319 321 324 325 329 334 339 339 343 344 347 346 345 344 345 345 344 340 340 342 340 349
287 285 282 279 287 286 281 288 292 294 299 299 296 299 302 309 308 308 310 314 316 317 318 318 321 324 327 329 337 338 336 337 337 345 348 347 345 345 345 346 342 341 340 337
284 284 283 279 281 276 284 293 299 297 298 299 299 300 301 304 306 306 309 310 312 317 316 317 318 323 327 329 328 336 341 339 338 340 343 349 348 346 345 346 346 344 344 340
290 286 281 279 278 283 288 294 294 291 294 299 296 300 301 302 305 303 308 311 311 315 318 316 319 321 323 326 327 329 335 339 339 340 337 338 349 348 347 347 347 348 347 346
289 289 285 280 278 278 286 295 299 298 288 299 300 299 299 300 293 297 305 309 311 313 317 315 317 319 320 324 324 324 324 327 328 329 332 337 335 350 349 349 349 350 350 350
281 282 279 280 279 285 292 296 299 284 286 298 299 297 297 294 298 299 305 305 309 312 315 316 314 315 318 323 320 316 320 320 324 327 331 336 336 344 352 351 351 350 350 350
281 279 275 279 278 279 293 294 288 293 296 297 298 298 296 298 300 301 302 304 307 309 313 315 314 314 316 320 320 316 314 319 322 325 329 331 335 343 353 352 352 350 350 350
282 284 280 282 282 291 292 291 293 293 292 293 294 296 297 296 298 300 300 302 304 307 311 313 314 313 316 319 318 314 315 317 319 323 326 331 333 342 353 352 351 351 351 351
287 289 282 284 287 290 291 293 293 293 292 294 295 296 297 297 297 297 299 301 303 306 309 312 311 313 314 316 318 314 314 316 318 320 324 328 325 344 351 353 353 353 352 351
287 288 284 284 288 288 292 291 293 295 294 294 295 296 295 295 295 296 297 299 301 303 307 312 311 311 314 314 314 314 313 313 315 318 322 325 326 332 349 352 353 354 355 351
288 285 281 281 287 286 287 291 294 293 293 295 293 294 295 295 294 296 296 298 299 300 305 309 310 313 314 313 312 311 311 311 312 316 319 322 324 326 333 348 347 318 322 320

GFSCGP_sfc_thetae_087.txt.gz
Theta_e
302 300 297 302 303 302 300 297 296 301 304 309 320 319 324 327 330 329 330 329 331 332 331 334 334 339 341 341 341 342 342 341 344 340 341 341 341 345 346 347 349 351 350 351
301 297 304 307 306 303 300 298 297 301 303 299 310 318 322 326 327 330 329 330 331 331 330 331 332 339 340 340 341 343 343 341 344 341 340 344 341 344 344 346 348 352 352 351
299 304 310 307 303 302 297 295 297 297 302 321 318 317 319 323 328 331 328 332 333 332 328 330 331 337 339 339 339 342 342 341 343 342 341 343 342 344 342 345 346 350 354 351
301 307 306 302 303 302 293 302 302 300 294 290 307 298 314 321 322 326 329 327 332 333 331 330 331 336 338 339 340 342 341 340 342 342 340 340 340 337 341 344 346 350 353 351
298 299 301 299 301 304 300 304 300 298 292 290 292 291 299 319 317 320 326 329 331 334 333 330 331 335 338 339 339 341 341 340 341 342 341 340 339 339 342 343 344 347 350 351
297 302 300 300 303 304 305 299 296 292 290 285 289 289 291 311 317 320 324 326 332 332 333 333 333 334 337 339 340 341 341 340 341 341 339 339 339 339 340 341 342 344 347 348
293 294 297 299 295 299 297 291 286 285 284 284 287 289 291 305 317 322 322 324 329 334 332 334 332 332 334 337 338 341 341 340 342 341 339 338 339 338 340 340 343 343 345 347
285 286 293 299 293 290 292 291 287 282 282 285 289 288 295 311 314 318 320 325 328 330 333 334 334 333 333 336 338 341 340 340 342 342 340 338 337 339 340 341 341 345 347 348
284 286 296 298 298 295 292 288 292 287 285 286 288 292 301 313 314 317 318 321 324 327 331 334 336 334 333 335 338 340 340 340 342 342 342 339 338 337 339 343 344 344 345 349
288 284 291 296 297 297 292 293 288 287 283 282 287 289 296 308 311 316 320 322 323 326 329 332 336 336 334 335 337 341 342 340 341 343 343 343 342 341 339 341 345 344 345 344
287 286 288 292 290 289 289 287 286 287 287 284 284 292 307 311 312 314 317 322 322 326 328 331 334 337 336 335 337 337 342 341 340 341 342 342 342 342 340 340 342 345 345 343
288 284 282 285 292 295 293 287 285 283 283 285 286 292 309 312 313 315 315 317 321 325 328 334 336 337 337 335 336 336 338 342 341 341 340 339 339 340 343 341 340 341 345 344
289 281 278 281 286 290 287 290 286 285 283 282 283 289 311 312 313 314 313 316 318 322 323 329 333 332 335 335 335 338 338 339 342 342 340 339 338 338 339 343 342 339 343 345
293 280 279 277 280 285 286 289 290 285 282 283 285 287 304 308 309 313 315 316 317 318 321 323 325 327 332 335 336 336 338 342 340 342 342 340 338 338 338 340 344 344 340 343
287 281 283 283 287 289 288 288 289 286 286 283 288 297 300 307 309 311 316 318 316 316 317 321 323 326 328 330 339 341 341 340 343 341 341 341 342 339 338 338 341 343 344 344
287 283 283 281 288 287 285 290 291 292 295 292 294 295 301 308 307 307 309 316 315 315 316 318 322 325 325 327 328 333 337 342 344 342 342 343 343 342 338 337 337 341 342 344
285 283 280 277 285 283 281 287 293 295 295 296 292 297 300 304 302 303 305 307 313 314 315 316 318 321 326 324 325 326 336 338 339 343 343 344 341 342 342 339 336 337 340 340
284 283 281 278 279 275 282 295 298 295 296 296 296 298 300 301 305 305 306 305 308 313 314 315 316 318 322 325 323 324 330 340 338 343 345 346 344 342 343 343 340 336 338 339
286 283 279 278 277 281 288 291 293 289 291 297 296 297 298 301 304 304 303 306 306 309 315 315 316 319 318 323 323 321 322 327 333 338 335 337 338 343 345 343 343 343 340 338
288 286 284 279 278 277 285 292 296 296 284 296 297 295 295 298 294 298 302 304 306 308 312 316 317 316 318 319 321 320 319 320 322 324 328 334 336 335 339 346 344 345 345 343
278 279 278 278 277 284 291 293 295 283 283 295 296 295 294 291 295 298 302 303 305 305 307 313 316 315 315 319 320 318 317 316 320 322 325 329 333 336 336 338 348 346 345 346
279 276 274 277 281 279 293 293 286 289 290 292 293 294 293 295 296 298 299 300 300 303 305 309 312 314 315 317 319 316 313 316 318 320 323 325 329 334 340 338 344 348 346 345
279 283 279 281 281 289 291 289 291 290 289 289 290 292 293 293 295 297 298 299 299 300 303 306 309 312 315 316 316 313 312 314 314 317 321 322 327 330 333 336 342 348 347 346
286 287 281 284 285 289 290 292 292 293 291 292 292 293 294 293 294 295 296 297 298 299 300 303 306 309 312 315 315 314 312 313 313 313 316 320 325 325 328 337 348 348 348 345
286 287 283 282 287 287 290 291 292 293 294 293 294 294 294 294 294 294 294 294 296 298 299 300 302 306 309 314 314 313 312 311 310 312 315 318 323 324 326 332 346 350 352 347
287 285 282 281 287 287 287 291 293 292 293 293 293 294 295 296 294 295 295 296 296 296 298 298 300 304 308 313 312 310 309 308 307 309 312 313 318 322 326 329 332 322 319 315

GFSCGP_sfc_thetae_090.txt.gz
Theta_e
300 297 295 300 302 301 299 297 295 299 314 319 319 317 322 328 330 329 330 331 331 332 333 336 336 338 340 339 339 340 341 342 343 342 343 343 344 347 350 350 351 346 349 352
299 295 303 306 305 302 299 297 296 299 304 303 302 310 321 325 328 329 329 329 331 332 332 333 334 335 338 339 339 340 341 341 344 342 344 345 344 347 348 350 350 354 355 352
298 303 308 306 302 301 296 295 295 297 301 317 314 309 315 323 327 330 331 332 331 331 332 329 331 333 338 338 339 340 342 341 345 342 343 343 345 346 346 348 348 352 353 354
301 305 306 301 301 302 293 302 301 299 293 289 304 289 306 317 320 324 329 328 330 331 332 329 330 333 337 339 341 342 342 341 344 342 342 343 341 341 344 346 349 351 356 352
299 300 300 299 300 303 300 302 300 298 292 289 293 289 293 314 315 320 324 329 329 332 331 329 330 333 338 340 340 342 343 342 343 343 342 342 341 342 346 346 348 350 353 354
296 299 299 299 302 304 303 297 294 290 288 285 288 288 289 307 310 318 323 327 330 331 334 331 332 333 338 340 340 341 340 340 341 343 340 340 341 341 342 345 345 347 350 353
292 293 295 297 293 296 296 290 284 284 284 284 286 288 296 306 312 314 315 321 329 333 334 333 330 331 336 338 339 340 340 339 340 341 341 339 341 342 343 343 345 345 347 350
284 285 292 297 292 289 291 290 286 281 281 285 288 286 298 313 316 320 323 322 323 330 334 334 332 332 334 337 338 339 339 339 340 341 341 339 340 342 342 344 345 346 347 350
284 286 295 296 296 293 290 286 288 285 283 286 287 295 302 314 314 316 317 320 322 325 332 334 335 332 333 337 338 339 340 340 341 341 341 339 338 340 341 344 345 347 349 351
287 283 289 294 296 295 291 291 287 286 282 281 286 293 298 307 310 314 314 317 321 324 329 334 335 335 333 336 338 340 341 340 341 342 342 341 339 339 341 343 345 346 348 350
286 285 287 290 288 286 288 286 286 286 285 283 283 292 307 309 312 312 314 317 321 325 329 330 334 337 336 337 337 339 340 341 341 342 343 343 341 340 339 341 345 348 349 349
288 283 281 283 290 292 290 286 284 285 283 283 287 291 310 312 314 314 313 316 320 323 326 328 332 336 337 336 337 337 340 341 341 342 343 343 343 343 341 340 342 345 347 349
287 280 277 281 285 288 287 289 284 283 282 281 287 291 310 311 312 315 314 314 316 321 323 326 326 329 333 336 337 337 339 342 341 342 341 342 341 341 343 343 342 342 345 346
292 280 278 278 280 284 285 288 288 284 282 282 285 293 302 304 307 309 314 316 315 316 319 322 324 325 327 329 337 339 340 341 343 342 341 340 340 339 341 343 344 342 344 345
287 281 281 282 286 287 287 287 287 285 285 284 287 298 299 305 303 305 308 314 313 314 315 317 320 323 323 324 327 332 339 341 342 341 342 341 341 341 341 341 342 345 344 344
286 284 282 281 287 286 287 291 291 293 294 292 295 293 305 305 304 302 303 306 310 312 314 316 317 320 323 322 323 326 329 338 340 342 341 344 344 343 340 340 341 343 345 345
283 282 279 276 284 283 280 286 293 293 294 294 291 295 301 302 300 300 301 302 304 307 313 314 315 317 321 322 322 321 323 329 340 340 343 343 344 343 342 340 339 339 342 344
283 281 279 277 278 274 281 294 297 294 295 296 296 297 298 298 302 302 302 301 302 305 307 314 314 315 317 323 323 321 321 323 325 332 341 345 345 343 343 343 339 338 339 342
284 283 279 278 276 280 286 291 292 289 291 296 295 296 297 299 301 301 302 302 302 304 306 308 316 316 317 318 323 321 319 319 319 321 325 330 337 343 344 343 343 342 339 339
286 285 283 278 278 277 284 292 295 295 285 295 296 295 294 296 291 297 299 301 303 304 304 306 309 314 316 316 320 320 318 317 316 319 321 325 330 334 338 345 344 345 345 343
277 279 279 278 278 283 290 293 295 284 284 295 295 294 293 291 294 296 298 299 301 303 303 304 305 307 314 316 318 318 318 315 318 319 321 323 327 331 337 338 340 346 346 346
279 277 276 279 281 279 293 292 288 289 292 293 292 293 291 292 294 295 296 297 299 300 302 302 302 303 310 315 317 317 315 316 318 318 319 321 324 330 334 336 338 339 347 346
278 282 279 281 282 289 291 289 292 291 289 290 291 292 292 292 292 293 293 294 295 297 299 301 301 301 304 312 316 316 317 315 315 316 317 319 322 327 329 330 333 335 342 345
285 286 281 283 285 289 291 292 293 292 291 292 292 292 293 291 292 292 294 294 295 296 296 298 299 300 300 305 312 317 317 314 313 313 314 316 318 320 326 329 332 334 339 345
285 286 283 283 286 287 291 291 292 292 294 293 294 294 293 293 292 293 295 295 295 296 297 297 298 298 299 302 305 312 316 313 311 311 313 315 316 317 322 326 329 331 335 342
286 284 282 282 288 287 287 291 293 292 292 294 293 293 294 294 293 296 296 297 297 297 297 297 297 298 299 301 304 309 314 311 309 309 311 312 312 315 319 323 325 318 312 310

GFSCGP_sfc_thetae_093.txt.gz
Theta_e
306 304 303 309 311 309 307 306 304 306 321 324 320 321 326 333 334 334 333 334 335 336 340 343 345 346 346 346 347 350 351 355 355 353 351 352 353 356 362 360 360 359 357 361
303 302 309 312 310 308 307 306 304 306 312 319 309 311 324 330 333 335 334 334 336 337 338 340 343 344 345 345 346 350 351 355 355 354 356 357 357 358 361 359 360 359 360 364
301 306 311 309 309 307 307 306 304 303 305 319 319 315 322 327 333 336 337 338 338 337 337 339 341 342 344 345 346 349 352 354 356 357 357 356 357 357 356 356 357 362 360 361
306 311 309 308 307 309 306 308 306 305 303 300 315 300 316 323 325 331 334 336 336 338 339 340 340 340 342 345 348 350 352 353 355 358 356 357 352 357 353 357 358 359 363 362
305 307 308 307 308 310 306 309 307 305 304 301 307 302 306 323 319 320 330 335 337 337 339 339 339 341 343 345 346 349 352 353 355 356 358 355 355 354 355 356 360 361 364 364
301 304 305 307 307 309 309 304 302 302 302 297 299 300 305 310 314 319 324 328 336 338 336 340 342 343 342 345 346 347 351 353 354 355 355 357 357 356 353 355 354 356 363 361
298 298 301 302 302 305 306 303 296 295 294 295 298 303 308 316 319 320 322 326 330 334 339 339 340 340 342 343 345 346 350 352 353 353 354 354 356 358 358 359 355 356 355 357
295 292 298 301 299 300 303 303 297 291 292 295 298 300 307 317 321 323 325 326 329 331 333 340 340 341 340 343 345 346 349 351 351 351 355 357 356 352 354 358 355 355 355 357
294 293 299 300 301 300 299 299 300 297 295 296 298 304 312 317 318 320 320 322 323 332 331 337 341 341 341 343 346 347 350 353 352 351 355 354 355 354 354 359 360 356 361 358
296 292 296 298 300 301 300 299 297 299 292 292 298 301 303 310 313 316 316 319 323 327 334 334 341 341 342 344 346 348 349 351 353 351 353 351 352 353 354 356 358 358 360 361
297 296 294 298 294 293 298 298 297 299 296 294 293 300 311 311 313 312 313 316 321 325 327 334 339 343 342 343 345 346 347 348 349 351 353 353 351 351 353 352 355 358 360 362
296 295 291 292 296 297 297 294 294 297 295 296 301 299 314 313 313 316 313 314 317 322 325 327 331 332 340 342 343 345 345 346 348 351 353 351 352 352 351 351 352 356 358 361
295 291 289 290 294 296 294 294 295 294 296 296 296 298 311 311 310 311 313 315 316 318 321 323 324 325 326 331 339 343 345 345 346 349 347 350 350 350 351 352 353 353 355 358
298 291 289 290 291 293 291 291 293 294 295 294 297 301 305 305 305 307 311 315 316 318 317 319 322 322 322 324 327 332 344 347 348 348 346 348 350 352 351 354 354 353 354 354
297 290 291 291 292 292 290 290 291 293 294 294 300 300 302 303 304 305 307 311 313 316 316 317 316 320 323 322 322 326 329 339 349 350 348 349 352 353 353 353 354 355 354 353
295 291 292 289 291 292 291 294 294 295 297 300 303 300 304 306 306 307 308 309 308 310 315 317 317 316 318 323 322 323 325 329 341 346 348 351 352 351 351 351 352 352 353 354
294 292 290 286 289 290 287 293 296 297 299 301 300 300 304 302 302 304 305 306 307 308 310 312 316 317 317 319 324 323 323 325 329 329 336 349 351 351 351 351 350 351 351 353
293 292 292 287 288 281 291 300 300 298 299 302 301 302 302 302 304 304 306 306 306 307 307 309 310 313 318 319 321 325 324 324 323 323 325 328 334 349 352 352 351 351 350 351
295 294 289 287 286 287 292 297 298 297 295 301 301 301 302 302 305 304 305 305 304 306 308 309 310 310 313 318 321 323 325 321 322 321 322 325 328 331 336 349 350 351 349 350
294 296 293 288 285 283 291 297 301 301 291 301 302 300 299 299 297 303 303 302 303 305 306 308 309 310 310 313 317 320 322 321 320 320 322 325 327 328 331 335 339 346 350 347
291 293 290 289 287 290 296 297 300 289 293 301 300 298 298 296 299 300 301 302 303 303 304 306 306 307 309 311 313 317 319 320 322 321 322 323 326 326 330 334 337 339 344 349
290 289 289 289 287 284 299 297 294 298 301 300 298 297 296 297 298 299 300 300 301 301 302 303 303 304 306 309 310 312 315 321 323 319 320 322 323 326 330 331 330 333 341 342
289 293 292 292 292 296 300 297 300 300 299 297 298 298 298 297 298 299 300 301 301 302 302 303 302 303 305 308 309 309 313 318 321 321 318 319 321 323 327 327 327 330 335 341
294 294 294 291 295 296 299 299 300 300 298 299 299 299 299 298 300 300 300 301 301 302 302 303 302 302 303 306 307 308 310 314 318 320 320 317 318 319 320 323 327 330 331 336
295 295 294 293 295 295 297 300 301 300 299 299 299 299 299 300 300 301 301 301 302 302 302 303 302 302 302 305 305 307 309 312 315 318 319 319 316 318 318 320 321 324 329 330
296 295 294 294 299 299 297 301 302 300 299 299 299 299 301 301 301 302 302 302 302 301 302 302 303 303 303 304 305 307 309 311 313 315 317 317 316 316 317 319 319 315 311 310

GFSCGP_sfc_thetae_096.txt.gz
Theta_e
309 307 305 310 315 317 317 314 311 316 327 326 323 323 330 336 336 335 336 338 337 339 340 343 348 348 345 344 348 351 353 359 357 355 353 354 354 364 359 360 364 364 362 363
305 304 310 315 316 315 315 311 311 312 322 323 312 314 321 333 333 337 337 335 336 338 338 342 347 348 347 345 349 352 355 360 360 357 358 358 357 358 358 361 363 361 362 363
304 307 313 315 314 312 315 312 310 310 312 316 316 318 324 328 333 335 337 338 339 338 339 339 343 347 348 346 348 352 355 360 361 361 362 364 365 367 360 363 358 360 362 361
306 312 312 314 312 313 309 315 311 309 308 308 319 304 318 326 329 332 336 336 339 339 340 341 343 346 347 348 349 352 357 359 360 364 361 361 352 349 353 357 358 358 360 361
306 310 311 310 313 315 311 315 313 310 308 308 310 308 316 325 322 325 334 337 340 343 341 341 342 346 348 350 349 351 356 359 360 363 363 361 357 350 353 356 367 362 362 361
310 315 315 314 315 315 314 312 311 310 309 301 310 308 311 317 319 324 329 333 338 339 342 342 345 346 347 349 350 351 355 359 361 361 362 363 359 357 355 356 369 362 357 358
306 308 307 309 310 314 311 308 300 300 299 299 308 306 313 319 322 324 327 330 333 338 339 341 344 344 346 348 350 351 354 358 361 359 360 361 362 363 360 361 351 359 354 355
299 297 305 305 307 308 308 308 301 295 297 300 306 304 309 321 325 327 325 327 332 336 338 339 341 346 346 348 351 353 354 357 359 360 360 362 363 358 357 358 352 354 354 356
301 297 303 304 306 306 308 304 309 303 306 301 304 312 318 320 322 324 321 323 326 335 337 338 345 346 347 348 350 353 355 358 360 358 361 361 362 361 357 360 360 355 360 357
303 297 301 302 305 306 307 310 302 303 297 296 301 306 308 313 315 319 318 318 323 328 337 339 341 346 347 349 350 353 356 356 358 358 358 359 361 362 361 359 360 360 361 362
305 303 299 303 301 302 304 304 306 306 304 299 298 303 313 313 315 315 315 317 320 324 328 334 331 341 348 349 348 351 354 355 355 357 358 359 359 360 361 357 359 360 364 365
303 303 299 299 301 302 303 303 305 301 301 304 304 304 315 314 316 316 315 316 317 321 323 327 331 334 338 345 348 350 351 352 354 356 357 357 358 360 357 358 358 359 361 365
302 301 295 296 300 301 300 302 304 305 306 303 300 304 313 313 314 316 315 317 317 318 319 321 324 323 325 329 339 346 349 350 351 354 354 355 356 356 357 358 359 359 359 361
302 301 297 295 297 301 298 297 300 303 301 303 303 304 305 309 310 313 316 317 318 319 319 319 319 321 323 324 324 332 341 349 349 349 352 353 355 356 356 360 361 360 360 359
303 297 299 297 297 297 296 296 296 299 302 301 307 305 306 308 310 313 316 318 317 317 320 322 321 322 323 325 326 324 327 334 345 352 351 352 357 355 356 357 358 360 360 360
302 297 298 294 295 295 295 297 298 298 301 305 307 301 309 311 311 311 312 314 316 316 317 318 320 323 323 324 326 327 326 326 332 341 349 354 355 357 357 358 359 360 359 360
298 298 296 293 294 294 291 297 298 300 303 307 304 307 309 309 310 311 312 312 312 313 314 315 316 317 321 324 327 328 329 327 328 329 336 342 348 351 354 356 357 357 358 359
297 298 296 296 293 286 297 303 302 301 303 308 309 309 311 311 312 312 313 311 311 311 312 314 314 315 316 319 324 328 330 329 326 326 326 331 338 338 344 353 356 358 357 357
302 298 294 291 290 293 295 300 300 300 300 306 308 309 310 310 311 310 311 310 310 311 312 313 315 314 316 317 318 321 327 330 328 327 325 326 329 330 333 339 346 347 357 357
300 301 296 293 289 286 297 302 306 305 296 307 308 308 307 307 303 309 309 308 308 309 310 310 311 312 314 316 317 317 319 325 328 329 328 326 326 328 328 331 335 342 345 352
296 296 293 293 291 295 301 304 306 292 299 308 308 307 305 304 305 305 306 306 307 308 308 309 310 310 312 314 315 315 317 319 325 328 330 330 327 326 328 332 334 333 338 345
296 294 295 295 291 289 304 302 297 305 308 307 306 304 303 303 303 304 305 305 306 307 308 308 308 310 311 313 313 314 315 319 322 323 327 330 330 327 326 330 331 332 334 336
294 298 298 297 298 302 305 304 307 307 306 304 304 303 303 303 304 305 305 306 306 307 308 308 308 309 311 312 313 312 316 317 317 318 321 327 330 329 329 327 326 330 334 334
299 301 296 296 300 301 304 305 306 304 304 304 304 304 304 303 304 304 305 305 306 307 307 308 308 308 309 311 312 313 314 315 315 316 319 323 325 327 328 326 324 321 323 329
302 301 299 298 301 301 304 305 306 305 304 303 304 304 303 303 304 304 304 305 306 307 307 307 307 307 308 311 311 312 313 314 313 314 316 320 322 325 326 326 323 320 322 320
302 300 298 297 301 302 301 306 307 305 304 304 304 303 304 305 304 305 305 307 306 307 307 306 306 306 307 308 309 312 314 313 313 312 314 316 319 321 322 323 323 311 309 308

GFSCGP_sfc_thetae_099.txt.gz
Theta_e
311 308 306 311 313 316 318 316 315 320 326 325 321 322 328 335 335 335 333 332 333 335 340 341 342 343 342 346 349 352 354 360 358 354 351 355 354 360 361 359 361 362 362 362
308 304 311 314 315 315 318 315 315 322 327 323 319 319 326 331 332 335 337 335 335 337 337 340 342 344 341 344 348 352 356 360 358 354 360 362 358 358 364 359 362 365 361 361
306 308 313 313 313 314 317 314 314 314 323 319 315 316 321 328 332 336 338 338 339 337 336 338 341 343 344 343 348 352 357 360 361 367 364 361 363 360 357 358 358 360 361 360
309 312 311 312 313 315 311 317 316 315 314 310 318 305 318 325 330 334 337 338 337 337 339 339 340 343 343 344 348 353 357 361 361 363 364 362 352 350 354 362 356 358 362 363
307 308 309 311 313 315 312 318 315 314 312 315 312 311 312 323 323 329 335 338 338 338 340 337 339 344 345 346 346 351 357 361 364 364 366 358 358 354 358 357 363 364 364 361
310 314 315 315 317 317 318 315 316 314 311 305 314 311 310 317 321 328 334 337 339 339 340 342 342 345 344 346 347 349 356 363 363 363 362 363 358 360 353 355 356 356 355 358
309 310 316 315 314 316 315 312 303 302 302 302 314 311 314 322 325 326 328 331 337 341 344 344 341 342 345 345 346 349 360 363 362 360 362 362 362 361 360 359 356 352 353 351
303 302 309 315 314 311 312 311 304 297 299 302 311 309 314 325 325 326 326 329 334 338 343 344 344 345 345 346 347 349 360 363 361 361 363 368 365 358 355 360 355 355 351 354
303 302 310 310 314 311 311 307 312 306 308 303 308 315 320 324 325 324 322 324 327 336 342 343 343 346 345 348 349 352 359 365 362 361 367 367 367 365 359 364 363 356 361 361
307 301 307 308 311 312 310 314 305 306 300 298 306 310 311 316 318 320 318 319 324 332 339 342 341 343 347 348 349 352 356 361 361 363 362 361 363 365 364 361 361 364 364 361
308 306 303 306 306 306 308 307 309 309 307 301 301 308 320 318 316 318 317 318 321 325 330 336 340 341 347 345 345 351 354 358 360 361 363 365 362 363 364 360 360 361 365 363
308 306 301 302 307 308 309 308 309 303 303 306 305 303 318 320 320 319 317 317 319 322 327 332 334 334 329 332 338 350 343 354 355 359 361 360 362 362 361 362 360 361 364 367
307 303 299 299 303 306 305 308 309 309 309 305 302 304 319 318 319 319 317 317 318 319 321 325 328 329 330 326 329 340 345 343 345 359 358 359 360 361 361 361 362 362 364 364
308 303 302 296 300 304 302 303 306 307 303 305 306 306 312 315 316 316 317 319 320 320 321 321 322 325 326 327 328 327 334 337 344 351 351 360 361 361 360 361 363 363 365 364
306 300 302 302 301 302 302 302 301 303 305 303 310 308 313 317 317 318 319 319 320 320 320 321 321 323 326 330 329 328 327 329 335 347 353 353 360 359 360 361 362 362 365 363
306 301 302 300 300 300 299 301 301 302 304 305 312 307 316 318 321 320 319 318 319 319 319 320 322 323 325 329 330 331 327 329 329 332 337 345 354 357 360 359 362 362 361 366
304 302 300 296 301 299 296 300 302 303 304 306 307 312 315 314 316 317 318 318 317 318 319 319 319 320 321 325 328 329 331 329 330 329 327 332 338 341 352 357 359 360 362 362
301 302 301 296 299 289 300 306 304 303 305 309 315 314 316 315 315 316 318 317 315 315 316 317 318 319 320 321 322 326 331 333 333 330 329 327 331 333 338 342 356 358 361 361
304 302 297 294 294 297 299 302 302 302 303 310 313 313 314 314 315 314 316 316 315 315 316 316 317 316 319 320 321 321 323 329 332 332 332 331 330 330 332 336 339 345 355 355
303 303 299 297 291 290 300 304 307 307 297 310 314 314 313 314 308 311 315 313 312 313 313 314 314 316 317 318 318 319 320 321 325 329 332 334 334 328 329 331 332 335 341 348
297 298 294 295 294 298 305 307 307 295 300 310 312 312 312 309 311 312 312 311 311 311 311 312 314 313 315 317 317 317 319 320 323 325 325 329 334 335 331 331 333 334 334 338
298 297 296 297 294 291 307 305 298 308 312 311 311 312 310 310 309 309 309 309 309 310 310 311 312 312 314 316 316 316 317 321 322 323 323 324 328 331 332 333 332 331 335 335
297 301 300 300 299 308 308 308 312 311 310 310 310 308 309 307 307 307 309 309 309 309 310 311 311 311 313 315 316 314 317 319 319 319 320 322 325 327 331 333 332 328 332 330
303 305 301 301 303 305 306 308 311 310 310 308 308 308 307 306 307 308 309 309 309 309 309 311 310 310 311 314 315 316 317 318 318 317 318 319 320 324 327 326 328 328 325 324
304 305 302 301 304 305 306 308 309 308 308 307 307 307 306 306 306 308 308 309 309 309 310 311 310 309 310 312 313 314 315 316 315 316 316 317 318 320 323 326 326 328 332 324
305 303 301 299 305 305 306 309 310 309 307 307 306 306 307 306 306 307 308 310 309 309 310 309 310 310 310 310 310 312 314 315 314 314 314 314 315 317 319 321 323 313 312 307

GFSCGP_sfc_thetae_105.txt.gz
Theta_e
305 298 295 299 303 306 307 310 313 320 327 322 320 320 321 329 331 331 328 324 326 328 332 335 337 341 343 344 340 348 347 351 347 349 349 349 348 349 347 346 355 354 355 353
301 297 303 306 307 306 306 307 316 323 327 322 321 319 324 328 330 331 331 325 327 327 329 332 334 340 341 342 343 348 351 350 346 350 351 351 346 351 351 353 353 355 354 354
299 303 308 305 304 303 304 301 314 317 319 323 318 314 317 325 328 329 330 333 330 329 328 330 332 338 341 342 345 349 350 350 352 350 347 345 345 349 349 350 352 354 354 354
301 307 306 303 302 304 297 313 319 315 312 307 317 301 313 319 321 324 327 332 330 330 331 330 331 336 339 342 347 351 350 349 352 353 347 338 342 342 345 349 353 353 355 355
300 303 303 302 304 307 303 321 318 315 310 312 311 305 311 318 317 321 326 326 330 332 333 332 332 335 340 343 345 352 351 349 350 353 350 347 339 336 342 346 350 352 354 355
303 308 306 305 308 308 313 310 314 313 310 303 310 307 308 314 318 320 324 325 332 333 335 335 336 334 339 342 346 350 351 350 353 351 350 346 333 332 340 344 348 349 350 351
302 303 307 309 303 308 309 301 295 296 299 299 310 306 309 319 318 320 320 325 336 337 335 335 335 335 338 340 344 347 352 350 351 352 351 347 343 344 345 345 346 347 347 348
295 293 303 309 304 302 303 300 296 295 293 294 306 303 311 321 326 328 329 332 334 337 337 338 339 338 337 339 343 346 349 351 351 351 351 349 347 344 337 343 349 346 347 347
298 297 308 310 311 309 304 299 305 298 298 294 305 313 320 322 322 324 325 328 329 331 335 340 338 342 341 340 342 345 348 351 354 353 353 351 351 346 344 344 350 346 348 352
303 294 305 309 310 309 303 304 296 296 290 289 302 308 308 313 316 318 319 322 326 330 333 335 338 341 344 343 344 343 344 342 350 353 354 354 353 353 354 353 351 349 350 347
300 297 301 305 300 300 301 298 299 298 296 291 297 301 318 315 315 315 317 320 324 327 331 332 332 334 338 340 339 340 338 335 335 335 344 352 353 353 354 353 350 350 349 347
301 299 297 298 305 305 302 299 299 294 293 300 303 302 320 318 316 316 315 319 323 328 329 331 331 332 333 336 336 337 339 336 335 336 342 350 352 353 354 354 354 352 347 347
300 295 291 294 297 300 297 301 298 298 298 296 296 303 319 318 317 317 315 318 321 324 326 327 327 327 329 331 335 338 335 334 338 342 342 347 350 353 352 354 355 354 353 350
308 297 295 289 293 299 296 300 301 297 293 302 305 306 310 313 313 316 316 317 319 321 323 325 326 325 325 328 330 332 333 336 338 340 339 340 340 347 350 353 355 356 356 354
299 294 297 297 301 301 299 299 301 296 299 301 305 306 310 313 314 316 318 317 316 319 321 322 325 326 324 324 325 326 329 330 334 333 335 337 339 340 343 348 350 353 354 355
301 294 297 294 300 300 297 299 301 300 309 309 309 306 314 315 317 317 316 316 315 314 316 321 320 322 326 325 325 326 327 327 329 330 332 336 338 339 339 340 339 348 350 351
298 297 294 290 298 297 292 296 298 298 300 311 305 309 314 313 314 315 316 316 315 314 314 315 315 315 316 318 325 326 327 328 328 327 329 331 333 333 335 338 338 339 339 347
296 296 295 291 294 284 294 304 302 299 301 312 313 314 315 315 316 317 318 315 314 313 311 310 311 312 313 315 317 320 326 329 327 327 329 327 327 328 332 333 334 336 338 340
297 294 291 287 288 293 298 302 299 297 307 315 313 314 316 317 316 314 317 316 313 311 309 309 312 313 312 312 314 317 319 320 320 321 322 323 325 328 326 325 329 332 334 337
297 296 292 290 286 285 296 302 305 302 299 314 315 314 313 312 304 308 314 313 310 309 309 309 310 311 310 310 313 313 315 315 315 317 318 321 322 322 322 325 327 327 329 333
291 291 288 288 288 295 302 304 305 292 296 309 315 312 311 307 308 310 309 308 308 307 308 309 310 309 309 312 312 311 312 311 314 316 316 318 319 319 319 321 328 329 327 327
293 290 288 289 286 288 306 305 299 303 308 310 311 309 306 305 306 307 308 308 307 306 307 309 307 307 310 311 310 309 310 313 314 314 314 315 317 318 319 318 320 324 330 328
289 296 293 294 295 303 306 305 307 309 307 308 308 308 308 307 307 307 307 307 306 306 306 307 305 306 308 309 310 308 308 310 310 309 310 311 314 315 317 317 317 316 321 324
297 301 295 297 304 303 305 307 308 309 307 308 309 309 308 306 307 306 305 304 304 305 305 306 305 305 305 307 307 306 308 309 308 307 307 309 309 310 311 313 315 315 316 317
300 299 297 296 299 302 305 306 306 306 308 307 307 305 304 305 304 304 304 303 304 304 305 305 304 305 304 305 304 306 306 306 305 306 307 307 309 308 308 309 311 313 314 314
302 297 297 294 302 300 302 305 308 305 304 306 304 304 304 303 303 305 303 304 305 304 304 304 304 303 302 303 303 304 305 304 303 303 306 307 308 310 309 309 308 309 306 304

GFSCGP_sfc_thetae_108.txt.gz
Theta_e
303 297 294 298 299 300 300 306 316 321 325 323 318 318 324 329 330 326 330 331 327 331 334 336 340 341 341 339 341 342 343 344 346 344 342 341 341 345 345 345 352 350 353 348
299 295 301 303 303 301 300 301 311 320 323 321 319 317 323 327 328 329 329 329 325 331 331 334 339 339 339 337 343 343 345 343 344 348 347 348 347 347 346 345 351 352 353 349
296 301 306 304 301 299 298 297 312 316 321 322 318 315 317 325 328 330 332 332 333 329 329 332 336 338 338 340 344 346 346 342 344 347 347 344 345 346 346 347 347 351 352 352
298 306 304 301 300 299 293 303 317 315 312 304 317 302 311 319 323 327 330 330 332 328 330 332 335 337 337 342 345 347 347 346 348 346 342 340 342 340 344 345 347 350 351 351
297 300 300 300 301 302 299 320 317 314 311 309 310 305 304 318 318 322 327 329 331 332 329 330 335 337 339 343 346 346 346 345 349 349 343 341 340 340 342 345 348 348 349 351
301 307 302 301 305 304 319 316 313 312 307 299 308 305 307 311 316 322 327 329 332 331 335 331 337 338 339 343 347 346 344 344 347 348 347 342 335 337 339 343 345 346 347 349
301 303 303 304 299 303 307 304 293 295 296 295 306 307 307 316 320 323 325 328 330 331 333 336 334 335 337 340 345 348 344 344 348 347 348 342 334 336 342 342 344 344 345 346
292 293 299 304 301 299 300 300 294 290 291 296 306 303 313 318 322 323 326 330 332 335 336 339 339 336 337 340 344 348 345 345 348 347 347 343 342 345 345 344 344 345 346 345
292 295 305 307 306 304 299 300 302 297 298 297 306 312 318 321 320 325 325 329 329 332 337 338 341 342 338 339 342 346 348 346 345 349 348 345 344 342 337 340 346 348 345 346
297 292 298 306 306 306 304 305 297 296 289 290 300 306 307 314 318 321 321 323 327 332 335 337 339 339 341 341 344 346 344 340 338 340 343 348 346 345 341 341 344 345 345 349
298 293 296 301 297 298 299 297 298 296 293 289 294 302 317 316 317 316 318 323 325 329 330 332 335 338 338 339 340 338 336 333 332 336 339 342 346 351 350 348 348 348 346 344
297 293 290 295 303 302 300 297 296 292 292 296 298 304 317 317 317 317 319 321 326 328 329 330 332 334 336 336 337 337 335 336 337 339 341 343 346 349 349 350 348 348 346 344
297 290 288 292 295 301 295 298 295 293 293 296 295 303 317 315 314 317 318 322 324 325 326 327 328 330 333 333 336 335 337 337 340 341 340 342 343 347 350 348 350 348 346 345
304 290 291 287 291 296 295 296 297 293 293 299 301 307 311 312 311 314 317 321 323 324 323 323 324 326 329 332 333 334 335 337 339 338 339 339 339 341 344 346 348 350 349 345
297 292 293 297 298 298 298 296 297 297 298 294 304 306 310 312 312 314 317 319 320 322 323 322 320 322 324 326 326 329 330 333 333 334 336 338 338 339 340 340 340 347 349 351
295 293 296 295 299 298 295 297 299 308 308 307 307 306 314 316 316 315 315 317 317 319 320 323 324 323 322 323 324 325 325 326 329 331 334 335 335 336 337 338 339 340 341 346
294 293 292 290 296 294 289 294 294 299 309 309 303 307 314 313 314 314 314 314 314 317 316 315 315 316 317 324 324 324 325 326 326 326 326 328 331 330 332 335 336 337 337 339
292 292 292 290 293 285 294 299 299 302 311 311 310 312 314 315 316 316 316 314 312 310 312 311 310 312 314 316 320 327 327 324 322 321 321 324 327 328 329 331 331 333 336 338
293 290 287 286 288 292 297 300 298 304 305 313 312 313 314 315 315 312 313 311 309 306 308 308 309 309 310 313 315 317 317 317 317 317 317 319 321 321 324 326 329 331 332 334
292 291 289 287 285 285 295 301 305 306 296 313 315 313 312 312 303 305 309 309 307 308 308 308 308 308 310 310 312 311 310 310 311 312 314 315 316 317 318 319 324 328 326 328
286 286 285 285 285 292 299 305 306 292 293 311 315 314 312 308 306 307 307 306 307 308 307 307 308 307 308 309 309 307 308 308 310 312 312 313 313 313 314 315 318 320 323 327
289 283 283 284 283 284 304 304 297 301 305 309 309 306 306 305 305 305 304 304 305 306 306 306 306 306 307 308 308 305 305 307 308 308 309 309 310 313 315 313 315 315 316 319
287 292 290 291 291 299 302 303 305 307 306 306 305 306 307 306 305 305 303 303 304 305 304 305 305 304 305 305 305 303 303 305 306 305 305 306 307 308 309 309 310 311 312 313
295 296 293 294 298 300 301 303 305 306 307 307 307 308 308 306 307 305 305 304 304 302 303 303 303 302 302 302 303 303 303 304 303 302 303 305 305 307 307 307 308 308 308 308
297 297 292 292 296 299 302 302 303 304 305 306 307 306 305 305 304 305 302 301 303 302 302 303 302 301 300 301 302 302 302 301 301 301 303 303 305 304 306 307 305 307 307 307
296 294 291 291 298 297 300 302 304 302 303 303 303 301 303 303 303 302 301 302 303 302 303 301 300 299 299 300 300 300 301 301 299 298 299 300 301 302 304 304 305 306 303 303

GFSCGP_sfc_thetae_111.txt.gz
Theta_e
302 296 293 297 298 299 298 297 307 320 324 322 319 317 323 328 329 328 329 330 330 332 337 340 341 345 342 341 340 342 341 342 343 341 337 337 337 340 344 345 348 349 350 347
298 293 300 302 301 300 298 297 310 319 322 321 319 318 322 326 326 328 327 329 328 332 335 337 339 341 339 339 341 340 342 342 343 344 345 343 343 344 344 344 348 349 350 346
296 299 304 302 299 299 295 297 302 314 320 322 319 315 319 324 327 328 329 332 332 329 330 334 336 338 337 337 340 340 342 342 343 347 345 343 345 345 344 343 346 348 350 348
298 303 303 299 299 299 290 300 304 316 311 305 317 302 314 318 321 324 326 328 329 329 331 334 335 335 335 338 342 343 343 340 344 346 343 341 340 338 341 342 345 347 349 350
296 297 298 298 299 301 297 307 303 314 307 306 308 304 303 317 317 321 323 326 331 329 330 333 335 336 336 341 342 344 343 343 344 344 342 340 340 340 343 344 345 345 347 349
300 304 302 300 302 302 318 314 311 308 305 297 305 306 304 312 316 320 325 328 332 331 332 330 336 338 336 342 343 344 342 343 346 346 342 340 339 339 339 341 343 344 345 347
298 300 302 303 296 302 313 301 294 295 294 294 302 306 307 315 321 324 325 328 332 332 331 336 332 336 336 340 342 343 340 340 344 345 343 341 338 338 340 341 343 342 343 344
290 291 298 302 299 296 306 300 294 289 291 294 304 300 308 319 322 324 329 330 332 332 334 335 335 335 337 339 343 343 340 339 343 344 345 343 338 336 341 343 343 344 344 345
290 293 303 303 303 302 298 297 300 295 293 296 302 311 317 320 320 323 325 328 329 333 335 335 339 339 337 337 342 344 342 341 344 344 345 342 339 342 342 343 344 345 345 346
295 291 297 303 304 303 300 302 294 292 288 289 298 302 307 312 316 320 320 323 326 330 336 337 339 341 340 338 341 347 345 342 341 344 344 345 343 343 339 340 342 345 344 344
295 292 295 299 296 295 298 295 294 294 291 290 292 299 315 315 316 317 321 324 326 329 332 335 338 340 339 339 339 339 337 336 336 339 340 340 343 346 343 341 342 343 344 344
295 291 290 294 300 300 297 295 294 291 290 297 296 302 317 319 318 318 319 324 327 329 330 333 334 337 337 337 336 335 334 334 337 338 339 340 341 343 345 347 349 348 344 344
294 289 288 292 296 297 294 295 292 291 295 295 295 302 316 317 317 319 318 324 325 326 326 328 331 334 334 335 334 335 338 338 338 340 339 338 339 342 346 347 349 347 345 344
302 289 290 287 289 292 292 296 294 291 294 297 301 307 311 312 312 316 320 322 323 322 323 324 326 330 333 333 332 334 337 340 338 338 338 338 338 341 341 344 345 347 346 344
295 289 290 296 296 295 295 295 296 292 295 295 304 306 310 312 313 317 320 321 321 320 320 321 323 325 328 329 331 333 334 335 337 335 337 337 337 339 338 338 338 341 344 347
293 289 292 292 300 296 293 295 297 306 308 306 308 306 314 315 315 317 319 320 320 320 320 321 322 322 323 326 327 328 329 330 333 333 332 334 332 337 337 337 337 337 339 341
293 290 289 286 297 295 290 293 294 305 308 308 303 309 314 312 313 314 316 318 318 317 317 313 314 316 323 324 326 325 326 326 324 323 324 326 328 329 332 334 334 335 335 339
292 290 288 286 291 285 295 300 301 307 309 309 309 312 314 313 314 313 316 316 314 314 311 311 313 315 319 323 321 322 320 318 317 316 316 318 320 324 328 329 327 329 332 331
292 289 286 284 285 292 297 299 297 298 304 312 311 313 313 315 315 312 314 313 311 309 308 308 310 314 315 315 315 314 314 314 314 314 313 314 315 317 318 320 326 328 329 330
290 289 287 284 283 284 294 301 305 304 295 311 314 312 311 311 302 303 308 310 309 309 308 308 310 311 311 309 311 311 310 310 310 311 311 312 314 315 315 315 318 322 326 328
284 285 283 283 283 290 300 304 306 292 292 312 315 313 311 307 305 304 307 308 308 308 307 307 307 307 307 308 307 305 305 305 307 308 309 309 308 310 311 311 312 314 316 319
286 283 282 282 282 283 302 303 296 300 301 309 312 312 307 306 306 303 304 305 305 305 306 307 305 305 305 305 305 303 302 304 306 307 306 306 307 309 309 307 309 310 311 312
286 290 289 288 288 297 300 302 305 307 305 307 306 307 307 307 305 304 303 303 303 303 304 305 304 302 302 303 303 301 301 303 303 304 304 304 306 306 307 305 305 306 306 308
293 294 292 292 296 298 300 302 305 305 305 307 308 308 308 306 307 307 305 304 304 303 303 303 302 300 299 301 302 301 302 302 302 300 301 302 302 303 304 305 305 304 304 304
295 295 290 291 295 297 300 300 303 306 306 307 307 308 308 308 306 305 305 304 303 303 303 302 301 299 299 300 299 299 299 300 299 298 299 299 300 300 301 302 303 303 302 301
293 293 290 290 296 294 296 300 303 305 305 305 305 303 304 305 303 303 303 304 303 303 303 300 299 298 298 299 298 298 299 299 296 296 296 297 297 298 299 299 299 302 302 301

GFSCGP_sfc_thetae_114.txt.gz
Theta_e
301 296 294 296 298 298 297 295 298 319 323 321 318 318 322 326 327 327 329 328 329 330 336 339 341 344 344 343 341 340 338 339 342 340 336 338 339 342 346 349 351 351 352 352
296 293 298 301 300 298 297 295 308 319 323 320 319 318 322 326 326 327 329 330 328 330 333 337 339 342 342 341 341 340 341 341 343 343 342 342 342 345 347 348 351 351 352 350
295 298 302 301 298 297 293 292 307 312 320 322 319 315 319 325 327 328 330 331 332 331 332 335 337 340 340 339 340 341 342 342 344 346 345 345 347 347 346 346 349 352 353 350
297 302 301 298 298 298 289 299 304 315 308 302 314 301 314 320 322 325 326 328 331 332 332 334 336 338 337 339 341 342 342 342 344 346 345 344 343 341 344 344 348 350 353 352
296 296 297 296 298 300 296 307 304 315 305 303 305 300 305 318 317 320 325 327 331 330 330 333 335 338 338 340 340 342 342 341 345 347 345 343 343 344 345 346 348 349 352 352
298 302 300 299 301 301 317 311 308 306 303 295 301 300 302 312 316 321 325 327 329 332 331 333 337 337 335 339 341 343 341 341 344 345 344 342 342 342 344 345 346 347 350 350
296 298 301 302 296 302 308 302 294 292 294 294 298 303 303 314 320 323 324 326 329 334 332 331 332 334 335 338 341 342 341 341 344 345 343 342 342 343 344 345 346 346 347 349
290 290 298 300 299 296 303 300 294 288 290 293 304 299 305 319 321 324 326 325 329 332 333 333 335 335 336 339 341 343 341 341 344 346 346 344 342 343 344 346 347 348 347 349
289 291 301 302 300 303 302 299 300 294 291 295 299 308 316 319 321 323 324 326 327 331 334 334 335 339 337 339 342 342 340 340 344 345 346 343 341 339 342 346 347 349 350 350
293 289 295 301 302 301 300 302 294 291 287 286 298 301 302 314 317 322 324 325 328 331 334 336 337 340 340 339 341 345 342 341 344 346 346 344 342 343 345 345 345 349 349 350
294 292 294 297 295 294 296 294 293 293 291 289 291 297 315 314 318 318 321 323 325 330 332 334 336 340 339 341 343 346 343 340 343 345 346 345 346 347 345 342 342 346 350 349
293 291 289 293 298 298 295 294 292 291 289 294 294 296 316 319 320 320 321 325 326 328 330 334 335 339 338 338 337 336 336 337 338 340 341 341 343 345 348 348 346 345 346 348
293 288 287 291 294 295 292 294 290 290 295 294 292 295 317 319 317 321 322 324 326 326 328 332 334 335 336 335 335 334 337 338 339 340 340 339 341 342 344 348 350 351 349 347
300 289 290 287 288 291 291 294 293 291 291 294 295 304 311 313 313 317 322 324 325 325 326 327 330 333 334 334 335 336 338 337 338 338 338 336 339 341 342 346 349 351 350 348
293 289 291 294 295 295 294 293 294 291 292 294 299 303 310 312 312 319 322 322 321 321 323 324 325 330 331 331 333 334 336 333 335 337 337 336 338 340 340 341 342 344 348 349
291 289 290 292 298 297 293 294 297 305 305 304 305 302 312 313 316 318 320 320 319 319 320 321 323 326 329 330 331 331 330 329 334 331 330 331 333 336 337 338 338 340 342 343
292 292 289 286 293 296 292 292 294 299 308 307 301 305 312 311 315 318 320 320 320 318 315 316 321 323 324 325 327 326 326 326 323 322 322 324 330 330 331 332 335 337 337 337
292 290 290 286 292 286 293 300 308 307 308 309 308 311 312 312 314 317 321 319 316 314 315 317 319 320 319 319 319 319 320 319 316 316 316 318 320 322 326 330 330 329 331 331
292 289 286 285 286 289 296 297 298 299 302 311 310 312 312 314 314 313 319 316 312 311 312 315 317 316 315 314 315 316 317 316 314 313 314 316 317 317 318 320 324 326 330 331
290 289 289 284 283 282 291 301 306 306 292 312 313 311 312 314 305 307 312 312 310 309 311 313 314 313 313 314 313 311 310 311 310 311 312 313 315 314 315 316 318 321 324 327
284 284 283 284 283 289 297 302 304 291 292 311 314 313 312 309 307 306 312 310 310 309 310 311 310 310 309 309 308 306 307 306 308 310 311 311 311 312 312 314 314 314 317 318
285 282 282 282 282 283 300 302 294 297 305 311 313 313 310 307 306 309 308 306 305 306 307 308 307 306 306 307 306 304 304 306 308 309 309 308 309 310 309 310 310 310 311 312
286 288 288 286 286 295 299 300 305 306 307 310 309 308 309 305 306 308 305 303 304 305 305 307 304 303 304 305 305 303 304 305 305 305 305 306 307 307 308 307 307 307 307 307
292 293 291 292 295 297 299 303 306 306 307 309 310 310 309 307 307 306 306 304 305 305 304 303 303 302 301 303 303 303 304 304 303 302 303 304 304 304 305 305 306 305 305 305
293 293 291 291 295 297 300 301 303 306 308 309 310 310 309 308 306 307 306 306 306 305 304 303 302 301 301 301 300 302 302 302 300 300 301 301 302 302 302 303 304 304 305 304
293 292 290 291 296 295 296 300 304 305 306 307 307 306 308 308 307 309 309 306 305 304 304 303 302 302 301 300 300 301 301 300 299 299 299 300 300 300 300 300 300 301 300 299

GFSCGP_sfc_thetae_117.txt.gz
Theta_e
309 309 308 309 307 306 307 304 308 321 327 325 322 322 326 331 329 329 330 330 335 336 341 344 344 347 349 351 352 353 352 350 346 348 347 349 350 353 356 361 359 361 361 361
307 307 309 307 306 305 304 303 316 322 326 324 322 321 326 330 329 330 329 329 332 335 338 342 344 347 348 350 352 352 352 351 349 348 349 351 353 354 356 358 360 360 360 360
307 308 306 305 304 304 303 303 315 316 323 324 322 319 322 328 329 330 330 331 332 334 336 341 343 346 348 349 351 352 352 349 350 353 351 353 354 357 353 355 356 359 361 359
309 306 304 304 303 304 302 305 312 319 316 309 320 307 317 322 325 327 328 330 330 335 338 340 342 345 347 349 351 352 352 350 353 356 352 353 348 349 356 358 359 360 361 361
303 303 304 303 304 306 304 307 309 314 315 312 314 310 313 321 321 324 328 330 332 333 335 339 341 345 347 349 349 351 353 354 354 356 356 353 356 359 354 357 359 361 362 362
305 307 306 306 306 307 318 312 315 316 313 302 309 309 310 316 322 326 329 331 333 333 334 338 342 345 346 348 349 350 352 353 355 356 356 357 357 357 359 356 353 358 357 358
304 304 307 307 304 309 317 311 303 302 302 301 310 309 312 320 324 329 329 330 333 333 336 337 339 342 344 345 347 348 352 352 354 355 355 355 355 356 355 358 361 360 354 358
297 294 304 307 306 303 310 308 301 295 298 301 311 306 313 322 326 329 333 333 332 334 337 338 339 342 343 343 347 349 351 352 354 355 356 356 357 354 354 357 354 355 356 366
298 298 306 307 306 309 307 304 309 304 305 304 309 312 320 322 324 327 330 331 330 335 337 337 340 341 343 343 346 349 350 352 354 354 359 358 356 354 354 357 359 357 361 362
303 298 304 307 308 307 310 311 301 304 298 296 304 308 311 316 321 326 327 329 331 334 337 338 340 343 345 344 347 350 352 352 354 356 357 359 355 355 353 354 357 359 360 361
304 302 302 305 304 303 305 305 304 306 303 299 299 306 320 320 322 324 327 329 331 333 335 338 338 344 346 347 346 351 352 352 352 355 358 357 356 354 356 354 356 358 359 360
303 304 301 301 305 304 304 303 305 301 300 305 305 305 320 323 324 326 326 330 333 334 337 339 339 341 343 344 346 349 353 352 353 354 356 355 355 357 356 355 353 355 356 359
303 300 296 299 302 303 301 302 302 303 309 305 300 304 320 324 323 323 324 328 332 334 336 338 338 340 342 341 339 340 344 346 350 352 352 351 352 352 355 357 359 358 358 359
309 300 300 294 299 301 298 300 301 302 302 304 305 309 315 318 321 321 324 327 327 330 330 333 336 338 337 339 340 340 341 343 345 346 342 344 346 347 347 352 359 360 361 360
304 300 300 300 300 300 299 299 306 301 302 304 308 310 316 319 320 321 325 326 325 325 327 329 331 334 335 336 336 337 338 339 342 341 341 341 343 345 347 347 351 358 361 360
302 299 301 299 301 301 298 300 304 307 307 308 309 311 319 324 324 322 322 322 324 324 325 326 327 330 332 334 334 332 332 333 336 335 338 338 342 342 340 343 346 349 353 355
302 301 299 295 299 300 296 300 302 308 312 312 308 313 320 320 319 320 321 323 323 323 322 324 326 327 330 332 332 329 327 325 325 324 329 330 335 338 339 339 339 341 343 350
301 301 300 296 299 291 300 307 309 309 312 315 315 316 320 319 322 323 327 326 321 320 321 321 319 319 319 320 321 321 319 319 320 319 323 325 327 331 334 337 338 339 340 342
303 302 296 295 293 297 300 302 302 302 302 313 315 317 319 322 322 321 325 321 320 320 319 318 317 316 317 317 318 318 318 316 316 316 319 321 326 326 324 325 329 335 336 338
300 303 299 294 290 288 299 304 309 309 299 315 318 318 319 320 311 309 314 315 315 317 317 315 314 315 315 314 315 314 314 315 314 315 315 318 320 321 320 321 321 326 330 332
296 297 294 294 292 295 302 307 309 297 301 316 320 320 320 319 321 317 313 312 315 317 315 313 313 310 311 312 312 309 310 310 311 315 315 314 316 316 318 319 321 323 325 327
295 295 294 293 291 288 306 308 301 308 313 316 320 321 321 316 319 318 316 310 311 311 312 312 309 308 309 310 310 309 307 310 312 313 312 312 312 313 314 318 317 319 320 320
296 299 299 297 298 304 307 308 314 315 314 318 321 319 316 316 316 316 315 314 310 310 311 311 309 308 308 309 309 306 308 310 310 310 310 311 312 312 312 313 313 312 316 316
300 301 303 301 304 306 307 311 314 314 314 316 320 317 316 314 312 312 311 312 312 313 312 313 311 310 310 311 311 311 310 311 311 309 309 309 309 309 310 309 309 310 311 313
303 302 301 301 304 306 307 309 310 314 316 317 317 316 316 315 312 310 308 311 309 311 312 312 311 310 309 310 310 310 310 310 308 307 308 307 307 307 307 307 306 308 307 307
304 303 302 303 305 306 306 309 310 313 314 316 316 314 315 315 311 311 309 309 308 308 309 310 311 310 309 309 309 309 309 310 309 307 306 305 305 305 305 306 305 300 300 298

GFSCGP_sfc_thetae_120.txt.gz
Theta_e
312 311 311 316 316 315 319 316 317 324 330 327 323 325 327 330 329 328 330 333 337 338 343 346 348 349 350 352 354 354 355 357 354 353 350 350 350 353 354 356 361 363 361 363
309 308 316 319 313 312 315 313 317 324 329 328 324 323 330 332 328 326 329 332 336 337 340 344 348 348 350 352 354 356 357 359 353 353 354 353 354 353 354 357 360 360 361 363
305 310 317 312 311 310 311 311 318 318 325 327 325 321 325 331 334 331 331 332 333 337 339 344 346 348 350 352 353 355 358 359 359 356 355 356 362 362 358 355 356 358 360 360
309 313 312 312 311 313 310 311 318 321 318 312 325 311 321 327 328 329 332 330 331 336 340 342 345 347 349 351 354 356 358 359 357 358 356 357 349 352 358 364 357 357 361 360
308 309 309 308 310 312 310 311 312 314 312 313 316 312 319 327 323 328 332 330 332 333 338 341 342 347 350 352 352 353 358 358 357 360 360 354 354 351 352 354 359 360 363 362
310 314 311 311 312 312 313 310 312 314 311 304 310 312 316 321 324 328 331 335 335 333 337 341 345 348 349 352 352 352 356 359 360 360 359 360 358 354 352 354 353 354 355 357
307 308 311 311 307 310 312 310 304 302 303 302 313 311 314 324 328 330 333 334 337 336 335 338 342 346 348 350 352 351 355 357 359 359 358 358 359 358 358 358 354 355 353 353
302 299 307 311 308 306 310 311 304 299 300 304 314 307 316 326 330 333 337 337 338 339 337 335 343 346 348 349 352 352 355 356 358 358 360 360 360 360 364 359 353 352 352 356
301 300 309 310 311 311 307 305 313 306 309 305 311 314 324 327 328 330 333 336 335 338 336 338 340 345 347 349 351 353 354 358 358 357 361 362 360 361 365 363 360 357 359 355
307 301 307 308 312 311 310 313 303 306 300 299 306 309 313 323 324 329 331 334 337 338 336 339 342 345 348 349 351 354 356 357 358 357 358 358 359 361 363 365 363 363 362 359
309 307 305 310 307 305 306 306 307 308 306 301 301 307 324 324 327 329 332 335 337 338 340 339 344 347 348 349 350 352 355 356 356 357 357 359 357 359 362 358 361 364 363 363
310 307 303 305 310 311 311 308 309 302 303 307 306 308 326 328 328 332 333 336 338 339 340 340 343 346 349 349 349 351 355 355 356 357 358 356 358 358 357 360 361 363 366 367
310 305 300 302 306 308 307 308 309 309 309 305 302 305 327 329 329 332 333 334 337 337 339 341 343 345 346 348 351 352 354 355 356 358 356 356 356 356 357 358 358 361 362 364
308 307 304 299 303 308 304 305 307 307 303 304 306 309 321 326 327 330 331 331 334 336 339 339 341 344 345 347 347 349 352 354 355 356 355 356 357 357 357 360 361 364 363 364
309 304 305 305 304 304 304 304 306 306 307 304 306 309 314 325 328 329 329 329 330 332 333 337 339 341 343 344 345 346 349 349 350 349 350 351 352 356 356 356 360 363 362 358
307 304 305 302 304 304 302 304 307 307 308 309 310 311 324 329 332 327 328 329 331 332 333 335 337 338 339 338 340 341 340 341 346 345 345 346 349 349 349 351 352 356 361 362
305 305 302 299 304 303 300 303 305 308 313 312 309 318 325 326 324 326 327 329 329 330 333 334 337 337 338 336 332 328 327 333 333 336 344 343 346 347 348 348 349 347 351 357
305 305 303 299 303 294 305 310 309 308 312 318 317 319 322 326 326 326 329 327 327 330 329 325 324 323 326 332 332 331 325 325 324 325 328 333 337 340 342 344 345 347 348 349
310 307 301 297 297 301 303 307 307 306 306 312 312 319 324 324 323 323 330 332 332 328 324 320 319 319 320 324 330 328 327 321 324 321 322 325 327 329 330 333 339 344 345 346
306 309 303 301 295 292 304 308 311 311 302 315 318 320 320 321 313 317 327 330 329 324 321 318 317 315 314 316 321 320 316 320 319 321 319 322 325 327 325 325 333 337 342 338
301 302 299 299 296 299 307 310 311 300 305 317 321 323 322 318 323 326 326 324 327 324 319 319 314 311 312 314 314 312 315 313 315 317 318 319 324 322 325 329 331 330 334 338
299 298 297 298 296 293 311 310 304 314 317 317 322 325 325 323 325 323 318 320 316 315 315 314 312 311 311 313 312 310 311 314 315 316 315 316 317 318 320 324 327 330 331 330
299 303 301 300 302 312 314 314 317 320 320 320 323 326 325 325 322 317 315 314 315 317 317 314 310 309 313 312 313 311 312 315 314 315 315 315 315 315 316 318 319 319 324 326
306 308 304 304 308 310 313 316 317 322 322 321 326 326 325 324 323 321 320 317 312 312 312 315 310 309 309 311 312 313 314 315 317 315 315 315 315 315 314 313 314 315 316 316
308 308 306 306 311 311 313 315 316 320 323 323 324 325 325 324 322 321 318 315 313 312 313 312 310 310 310 311 311 312 313 315 314 314 314 314 313 313 312 310 310 309 306 307
309 307 304 303 313 313 314 315 317 317 319 321 322 322 325 324 320 318 315 312 309 311 312 314 314 313 311 312 313 314 315 317 315 313 312 311 311 311 310 309 307 300 300 298

GFSCGP_sfc_thetae_123.txt.gz
Theta_e
311 309 313 318 321 318 318 317 315 322 332 328 324 324 327 330 332 332 331 333 332 333 339 342 344 345 346 349 352 355 356 357 358 352 349 350 348 353 354 352 359 361 359 361
308 306 314 320 320 317 316 316 317 326 330 327 324 322 327 330 329 330 329 330 333 335 338 341 343 344 345 349 351 354 356 358 357 363 359 363 354 362 359 356 357 359 358 361
306 310 315 318 317 313 315 315 317 319 327 327 323 321 322 327 331 328 330 332 334 338 335 341 343 343 346 347 352 355 358 359 357 359 359 358 365 357 353 357 356 356 358 358
309 313 315 315 314 315 310 316 318 316 320 314 326 311 321 324 327 328 328 331 332 333 339 339 342 342 344 348 350 355 358 360 359 360 361 363 350 350 353 354 359 357 358 357
307 310 311 312 313 317 311 317 316 318 317 316 317 312 314 327 324 327 329 330 335 331 338 338 339 343 346 348 348 352 358 360 360 361 362 355 356 358 353 357 360 363 365 359
312 316 315 314 316 315 317 314 314 315 314 306 313 313 313 322 327 330 330 331 333 331 337 341 341 344 346 347 348 349 355 359 360 361 360 359 357 358 353 354 355 353 354 357
310 310 314 314 311 314 314 311 304 302 304 304 313 312 317 323 330 333 332 333 334 333 336 336 341 342 346 346 347 349 355 358 359 359 357 359 359 358 356 358 354 360 353 354
304 301 310 313 311 309 310 311 306 300 302 306 315 308 317 329 332 335 338 337 337 334 337 336 341 342 348 346 347 349 355 357 357 358 360 361 361 356 357 359 355 350 350 355
304 304 312 312 313 312 309 307 314 307 308 305 308 315 325 328 329 332 333 337 337 336 337 336 340 343 345 346 349 352 355 358 358 356 360 362 361 359 357 361 364 355 360 356
308 303 309 310 312 312 310 314 305 308 301 300 306 311 305 321 324 329 331 335 336 339 339 339 339 343 345 348 351 353 355 358 358 356 357 357 359 360 360 360 361 361 361 358
311 308 306 309 307 307 307 307 309 309 308 302 301 309 321 325 327 329 332 335 337 338 341 339 339 343 346 350 352 352 354 357 357 356 357 358 357 358 361 357 359 362 363 363
312 309 304 306 312 312 312 308 309 304 303 306 305 306 323 327 329 332 333 337 338 339 342 340 340 344 347 348 352 352 355 355 357 358 358 356 357 358 358 359 360 362 363 366
311 307 302 302 308 311 309 311 310 309 309 305 303 307 329 328 329 333 334 337 339 341 338 342 345 345 348 349 354 353 355 356 357 357 357 357 356 355 356 359 360 361 362 364
313 308 306 297 304 308 306 307 309 309 304 306 306 313 322 325 328 333 335 338 338 340 341 343 344 345 347 350 352 353 354 357 360 356 356 359 358 357 355 360 360 360 363 362
310 305 307 307 307 308 307 307 307 306 307 305 307 309 315 324 330 333 337 338 338 337 338 339 343 346 347 349 349 352 353 356 360 358 360 359 363 363 359 360 361 361 362 358
310 303 306 304 306 306 304 306 307 308 309 308 309 308 323 327 335 333 331 332 334 336 338 340 342 344 344 346 347 348 351 352 355 356 354 356 356 356 358 359 360 361 361 361
306 305 303 299 305 304 301 305 306 308 311 311 307 318 326 324 330 331 330 331 332 334 335 339 341 342 342 341 337 335 339 343 346 348 348 349 350 350 352 354 354 356 359 363
308 307 305 301 304 296 305 313 311 309 312 314 316 319 324 329 331 330 332 331 331 334 333 332 333 335 337 334 332 332 332 337 332 328 330 336 341 344 349 350 351 352 353 356
310 308 303 299 299 302 306 309 308 307 307 314 314 318 327 330 329 327 332 334 335 333 330 327 327 326 330 333 333 334 334 332 329 324 324 327 330 333 333 338 342 347 349 351
308 310 304 302 297 293 303 309 313 313 304 316 318 318 324 325 319 325 333 328 329 330 325 320 319 318 317 322 332 330 329 331 330 322 322 325 326 325 325 330 329 338 342 344
302 303 300 300 298 302 309 310 311 299 307 317 320 322 325 322 324 331 330 327 328 325 322 319 316 313 314 316 318 323 327 325 326 325 324 323 322 324 327 328 327 330 337 335
301 300 299 301 297 294 313 310 304 316 319 319 320 323 326 325 329 326 324 324 323 322 320 318 315 312 313 314 314 313 315 321 322 321 318 319 321 321 327 330 330 331 331 335
299 303 301 302 303 314 314 316 319 320 319 321 322 326 329 328 325 321 317 318 317 317 315 316 315 312 313 315 315 313 314 317 318 317 316 320 320 320 323 321 325 328 332 332
306 311 304 305 309 310 314 318 319 320 320 323 325 327 327 324 322 318 317 315 314 315 314 314 314 310 311 313 315 315 316 317 317 316 317 318 317 318 318 317 319 319 319 321
307 306 306 305 309 311 313 316 317 320 322 324 326 326 325 325 322 321 319 318 314 314 313 314 313 310 311 314 312 314 317 318 318 316 315 316 316 316 315 313 311 309 304 305
308 307 303 302 312 313 314 317 318 317 319 322 323 324 326 325 323 322 320 320 317 314 315 314 313 311 312 311 313 316 315 317 315 313 315 314 313 314 313 311 307 299 299 297